Darstellungsparameter: Aktuell verwendete Einstellungen:
Skalierung der Graphiken ... ?
xyx+y,   Skalierungsfaktor:      Skalierung: Modus: x, Faktor: 1
Darstellungszeitraum ... ?
Vom - - bis: - -   Zeitraum: 06.11.2019 - 03.12.2019
Min/Max/Avg-Anzeige ... ?
Zeige MMA aktuell
Zeige MMA Monat
Zeige MMA alles
Zeige --A aktuell
Zeige --A Monat
Zeige --A alles
Keine MMA-Anzeige
MMA:
Average (ber die Originaldaten)
MMA-Basis: 06.11.2019 - 03.12.2019
Quicknavigation für Darstellung... ?
Tage:      1T, 2T, 3T, 5T -1T -2T -3T -5T +1T +2T +3T +5T
Wochen: 1W, 2W, 3W -1W -2W -3W +1W +2W +3W
Monate: 1M, 3M, 6M -1M -3M -6M +1M +3M +6M
Jahre:    1J, 3J, 5J, 10J -1J -3J -5J -10J +1J +3J +5J +10J
Nutze für die Darstellung ... ?
Originaldaten oder Mittelwerte auf ...
Stundenbasis Tagesbasis Wochenbasis
Monatsbasis Jahresbasis      Datenbasis: Original-Daten
Darstellen als:
Statistik (Auto) Statistik J:M      Darstellung:
Zur Graphik,    zurück zur Übersicht aller Sensoren.
 
Tabellarische Datenbersicht: ?
 
Sensor: Nr:Datum:Temp:Feuchte:
Aussen-T/F 1 06-11-2019 00:08:17 7.8 C 36 %
2 06-11-2019 00:18:17 7.7 C 36 %
3 06-11-2019 00:28:17 7.6 C 36 %
4 06-11-2019 00:38:17 7.8 C 37 %
5 06-11-2019 00:48:17 7.8 C 37 %
6 06-11-2019 00:58:17 7.9 C 36 %
7 06-11-2019 01:08:17 7.9 C 35 %
8 06-11-2019 01:18:17 8 C 35 %
9 06-11-2019 01:28:17 7.6 C 35 %
10 06-11-2019 01:38:17 7.3 C 37 %
11 06-11-2019 01:48:17 7.4 C 38 %
12 06-11-2019 01:58:17 7.3 C 38 %
13 06-11-2019 02:08:17 7.5 C 39 %
14 06-11-2019 02:18:17 7.7 C 39 %
15 06-11-2019 02:28:17 7.6 C 39 %
16 06-11-2019 02:38:17 7.6 C 39 %
17 06-11-2019 02:48:17 7.6 C 39 %
18 06-11-2019 02:58:17 7.5 C 39 %
19 06-11-2019 03:08:18 7.1 C 37 %
20 06-11-2019 03:18:18 6.9 C 39 %
21 06-11-2019 03:28:18 6.9 C 40 %
22 06-11-2019 03:38:17 6.6 C 39 %
23 06-11-2019 03:48:17 6.5 C 39 %
24 06-11-2019 03:58:17 6.4 C 39 %
25 06-11-2019 04:08:17 6.7 C 40 %
Sensor: Nr:Datum:Temp:Feuchte:
Aussen-T/F 26 06-11-2019 04:18:17 6.8 C 40 %
27 06-11-2019 04:28:17 7 C 39 %
28 06-11-2019 04:38:17 6.8 C 39 %
29 06-11-2019 04:48:17 6.9 C 39 %
30 06-11-2019 04:58:17 6.6 C 39 %
31 06-11-2019 05:08:17 6.7 C 39 %
32 06-11-2019 05:18:17 6.8 C 39 %
33 06-11-2019 05:28:17 6.8 C 39 %
34 06-11-2019 05:38:17 6.8 C 39 %
35 06-11-2019 05:48:18 6.8 C 39 %
36 06-11-2019 05:58:18 6.9 C 39 %
37 06-11-2019 06:08:17 7.1 C 39 %
38 06-11-2019 06:18:17 7.1 C 39 %
39 06-11-2019 06:28:17 7.3 C 38 %
40 06-11-2019 06:38:18 7.3 C 37 %
41 06-11-2019 06:48:17 7.3 C 37 %
42 06-11-2019 06:58:17 7.2 C 36 %
43 06-11-2019 07:08:17 7.1 C 36 %
44 06-11-2019 07:18:17 7.1 C 36 %
45 06-11-2019 07:28:17 6.8 C 37 %
46 06-11-2019 07:38:17 6.8 C 38 %
47 06-11-2019 07:48:17 6.9 C 38 %
48 06-11-2019 07:58:17 7 C 38 %
49 06-11-2019 08:08:17 7.1 C 38 %
50 06-11-2019 08:18:17 7.3 C 38 %
Sensor: Nr:Datum:Temp:Feuchte:
Aussen-T/F 51 06-11-2019 08:28:17 7.4 C 38 %
52 06-11-2019 08:38:18 7.8 C 38 %
53 06-11-2019 08:48:17 8 C 36 %
54 06-11-2019 08:58:17 8.1 C 35 %
55 06-11-2019 09:08:17 8.4 C 31 %
56 06-11-2019 09:18:17 8.4 C 31 %
57 06-11-2019 09:28:17 8.6 C 30 %
58 06-11-2019 09:38:17 8.8 C 29 %
59 06-11-2019 09:48:17 9 C 27 %
60 06-11-2019 09:58:17 9.2 C 26 %
61 06-11-2019 10:08:17 9.3 C 25 %
62 06-11-2019 10:18:17 9.6 C 25 %
63 06-11-2019 10:28:17 9.6 C 25 %
64 06-11-2019 10:38:18 9.5 C 25 %
65 06-11-2019 10:48:17 9.5 C 25 %
66 06-11-2019 10:58:17 9.4 C 25 %
67 06-11-2019 11:08:17 9.4 C 25 %
68 06-11-2019 11:18:17 9.5 C 26 %
69 06-11-2019 11:28:17 9.4 C 26 %
70 06-11-2019 11:38:17 9.5 C 27 %
71 06-11-2019 11:48:17 9.5 C 27 %
72 06-11-2019 11:58:17 9.7 C 27 %
73 06-11-2019 12:08:17 9.9 C 26 %
74 06-11-2019 12:18:17 9.7 C 26 %
75 06-11-2019 12:28:17 9.6 C 27 %
Sensor: Nr:Datum:Temp:Feuchte:
Aussen-T/F 76 06-11-2019 12:38:17 9.7 C 27 %
77 06-11-2019 12:48:17 10 C 25 %
78 06-11-2019 12:58:17 10.2 C 25 %
79 06-11-2019 13:08:18 10.3 C 25 %
80 06-11-2019 13:18:17 10.5 C 23 %
81 06-11-2019 13:28:17 10.2 C 23 %
82 06-11-2019 13:38:17 10.3 C 23 %
83 06-11-2019 13:48:17 10.3 C 23 %
84 06-11-2019 13:58:17 10.1 C 25 %
85 06-11-2019 14:08:18 9.8 C 25 %
86 06-11-2019 14:18:17 9.6 C 26 %
87 06-11-2019 14:28:17 9.5 C 28 %
88 06-11-2019 14:38:17 9.6 C 27 %
89 06-11-2019 14:48:17 9.6 C 28 %
90 06-11-2019 14:58:17 9.4 C 28 %
91 06-11-2019 15:08:18 9.6 C 28 %
92 06-11-2019 15:18:17 9.5 C 30 %
93 06-11-2019 15:28:17 9.4 C 31 %
94 06-11-2019 15:38:17 9.3 C 32 %
95 06-11-2019 15:48:17 9.2 C 32 %
96 06-11-2019 15:58:17 9.2 C 35 %
97 06-11-2019 16:08:18 9.2 C 35 %
98 06-11-2019 16:18:17 9.1 C 35 %
99 06-11-2019 16:28:17 9.1 C 36 %
100 06-11-2019 16:38:17 9 C 36 %
Sensor: Nr:Datum:Temp:Feuchte:
Aussen-T/F 101 06-11-2019 16:48:17 8.9 C 37 %
102 06-11-2019 16:58:17 8.9 C 37 %
103 06-11-2019 17:08:17 8.9 C 38 %
104 06-11-2019 17:18:17 8.7 C 38 %
105 06-11-2019 17:28:17 8.8 C 38 %
106 06-11-2019 17:38:17 8.8 C 39 %
107 06-11-2019 17:48:18 8.7 C 39 %
108 06-11-2019 17:58:18 8.8 C 39 %
109 06-11-2019 18:08:17 8.8 C 39 %
110 06-11-2019 18:18:17 8.8 C 39 %
111 06-11-2019 18:28:17 8.8 C 39 %
112 06-11-2019 18:38:17 8.8 C 39 %
113 06-11-2019 18:48:17 8.8 C 39 %
114 06-11-2019 18:58:17 8.8 C 39 %
115 06-11-2019 19:08:17 8.7 C 39 %
116 06-11-2019 19:18:17 8.7 C 38 %
117 06-11-2019 19:28:17 8.6 C 38 %
118 06-11-2019 19:38:17 8.6 C 38 %
119 06-11-2019 19:48:18 8.6 C 38 %
120 06-11-2019 19:58:18 8.5 C 38 %
121 06-11-2019 20:08:17 8.4 C 38 %
122 06-11-2019 20:18:17 8.4 C 38 %
123 06-11-2019 20:28:17 8.4 C 38 %
124 06-11-2019 20:38:17 8.3 C 38 %
125 06-11-2019 20:48:17 8.2 C 38 %
Sensor: Nr:Datum:Temp:Feuchte:
Aussen-T/F 126 06-11-2019 20:58:17 8.3 C 38 %
127 06-11-2019 21:08:17 8.3 C 38 %
128 06-11-2019 21:18:17 8.3 C 38 %
129 06-11-2019 21:28:17 8.3 C 38 %
130 06-11-2019 21:38:17 8.3 C 38 %
131 06-11-2019 21:48:18 8.2 C 38 %
132 06-11-2019 21:58:18 8.2 C 38 %
133 06-11-2019 22:08:17 8.2 C 38 %
134 06-11-2019 22:18:17 8.3 C 38 %
135 06-11-2019 22:28:17 8.2 C 38 %
136 06-11-2019 22:38:17 8.2 C 38 %
137 06-11-2019 22:48:17 8.2 C 38 %
138 06-11-2019 22:58:18 8.2 C 38 %
139 06-11-2019 23:08:17 8.2 C 38 %
140 06-11-2019 23:18:17 8.1 C 38 %
141 06-11-2019 23:28:17 8.2 C 38 %
142 06-11-2019 23:38:17 8.2 C 38 %
143 06-11-2019 23:48:17 8.2 C 38 %
144 06-11-2019 23:58:17 8 C 38 %
145 07-11-2019 00:08:17 7.9 C 39 %
146 07-11-2019 00:18:17 7.8 C 39 %
147 07-11-2019 00:28:17 7.8 C 39 %
148 07-11-2019 00:38:17 7.6 C 39 %
149 07-11-2019 00:48:17 7.6 C 39 %
150 07-11-2019 00:58:17 7.6 C 39 %
Sensor: Nr:Datum:Temp:Feuchte:
Aussen-T/F 151 07-11-2019 01:08:17 7.5 C 39 %
152 07-11-2019 01:18:17 7.4 C 39 %
153 07-11-2019 01:28:17 7.3 C 39 %
154 07-11-2019 01:38:17 7.3 C 39 %
155 07-11-2019 01:48:18 7.2 C 39 %
156 07-11-2019 01:58:18 7.3 C 39 %
157 07-11-2019 02:08:17 7.3 C 39 %
158 07-11-2019 02:18:17 7.4 C 39 %
159 07-11-2019 02:28:17 7.4 C 39 %
160 07-11-2019 02:38:17 7.4 C 39 %
161 07-11-2019 02:48:17 7.4 C 39 %
162 07-11-2019 02:58:17 7.5 C 38 %
163 07-11-2019 03:08:17 7.4 C 38 %
164 07-11-2019 03:18:17 7.2 C 38 %
165 07-11-2019 03:28:17 7.1 C 38 %
166 07-11-2019 03:38:17 6.9 C 39 %
167 07-11-2019 03:48:17 6.9 C 39 %
168 07-11-2019 03:58:18 6.8 C 39 %
169 07-11-2019 04:08:17 6.7 C 39 %
170 07-11-2019 04:18:17 6.9 C 39 %
171 07-11-2019 04:28:17 6.8 C 39 %
172 07-11-2019 04:38:17 6.9 C 39 %
173 07-11-2019 04:48:17 6.8 C 39 %
174 07-11-2019 04:58:17 7 C 38 %
175 07-11-2019 05:08:17 7 C 38 %
Sensor: Nr:Datum:Temp:Feuchte:
Aussen-T/F 176 07-11-2019 05:18:17 6.8 C 39 %
177 07-11-2019 05:28:17 6.7 C 39 %
178 07-11-2019 05:38:17 6.7 C 39 %
179 07-11-2019 05:48:17 6.7 C 39 %
180 07-11-2019 05:58:17 6.7 C 39 %
181 07-11-2019 06:08:17 6.7 C 39 %
182 07-11-2019 06:18:17 6.7 C 39 %
183 07-11-2019 06:28:17 6.7 C 39 %
184 07-11-2019 06:38:17 6.7 C 39 %
185 07-11-2019 06:48:17 6.7 C 39 %
186 07-11-2019 06:58:17 6.8 C 39 %
187 07-11-2019 07:08:18 6.8 C 39 %
188 07-11-2019 07:18:17 6.9 C 39 %
189 07-11-2019 07:28:17 6.9 C 39 %
190 07-11-2019 07:38:17 6.9 C 39 %
191 07-11-2019 07:48:17 7.1 C 38 %
192 07-11-2019 07:58:17 7.3 C 38 %
193 07-11-2019 08:08:17 7.5 C 38 %
194 07-11-2019 08:18:17 7.6 C 38 %
195 07-11-2019 08:28:17 7.6 C 38 %
196 07-11-2019 08:38:18 7.8 C 38 %
197 07-11-2019 08:48:17 7.9 C 38 %
198 07-11-2019 08:58:17 8.1 C 37 %
199 07-11-2019 09:08:17 8 C 37 %
200 07-11-2019 09:18:17 8.2 C 36 %
Sensor: Nr:Datum:Temp:Feuchte:
Aussen-T/F 201 07-11-2019 09:28:17 8.5 C 36 %
202 07-11-2019 09:38:17 8.5 C 36 %
203 07-11-2019 09:48:17 8.5 C 36 %
204 07-11-2019 09:58:17 8.5 C 36 %
205 07-11-2019 10:08:17 9.1 C 35 %
206 07-11-2019 10:18:17 9.4 C 36 %
207 07-11-2019 10:28:17 9.5 C 36 %
208 07-11-2019 10:38:17 9.7 C 35 %
209 07-11-2019 10:48:18 9.3 C 28 %
210 07-11-2019 10:58:18 9.3 C 29 %
211 07-11-2019 11:08:17 9.4 C 29 %
212 07-11-2019 11:18:17 9.2 C 29 %
213 07-11-2019 11:28:17 9.2 C 30 %
214 07-11-2019 11:38:17 9 C 29 %
215 07-11-2019 11:48:18 8.9 C 29 %
216 07-11-2019 11:58:18 8.7 C 28 %
217 07-11-2019 12:08:17 8.7 C 33 %
218 07-11-2019 12:18:17 8.9 C 34 %
219 07-11-2019 12:28:17 8.9 C 34 %
220 07-11-2019 12:38:17 8.6 C 28 %
221 07-11-2019 12:48:17 8.9 C 26 %
222 07-11-2019 12:58:17 8.9 C 25 %
223 07-11-2019 13:08:17 9.7 C 25 %
224 07-11-2019 13:18:17 9.5 C 23 %
225 07-11-2019 13:28:17 9.4 C 26 %
Sensor: Nr:Datum:Temp:Feuchte:
Aussen-T/F 226 07-11-2019 13:38:17 10.2 C 21 %
227 07-11-2019 13:48:17 9.8 C 20 %
228 07-11-2019 13:58:17 9.2 C 21 %
229 07-11-2019 14:08:17 8.9 C 25 %
230 07-11-2019 14:18:17 8.8 C 25 %
231 07-11-2019 14:28:17 8.8 C 25 %
232 07-11-2019 14:38:17 9.3 C 25 %
233 07-11-2019 14:48:18 9.7 C 23 %
234 07-11-2019 14:58:18 9.9 C 21 %
235 07-11-2019 15:08:17 9.6 C 21 %
236 07-11-2019 15:18:17 9.8 C 21 %
237 07-11-2019 15:28:17 10.1 C 20 %
238 07-11-2019 15:38:17 9.7 C 25 %
239 07-11-2019 15:48:17 9.3 C 29 %
240 07-11-2019 15:58:17 9.5 C 23 %
241 07-11-2019 16:08:17 9.7 C 20 %
242 07-11-2019 16:18:17 9.6 C 20 %
243 07-11-2019 16:28:17 9.3 C 20 %
244 07-11-2019 16:38:18 9.1 C 20 %
245 07-11-2019 16:48:17 9 C 20 %
246 07-11-2019 16:58:17 8.8 C 20 %
247 07-11-2019 17:08:17 8.4 C 20 %
248 07-11-2019 17:18:17 7.1 C 30 %
249 07-11-2019 17:28:18 8.2 C 20 %
250 07-11-2019 17:38:17 8 C 20 %
Sensor: Nr:Datum:Temp:Feuchte:
Aussen-T/F 251 07-11-2019 17:48:17 7.8 C 20 %
252 07-11-2019 17:58:17 7.1 C 23 %
253 07-11-2019 18:08:17 6.6 C 27 %
254 07-11-2019 18:18:17 6 C 30 %
255 07-11-2019 18:28:17 5.6 C 36 %
256 07-11-2019 18:38:17 5.5 C 38 %
257 07-11-2019 18:48:18 5.6 C 38 %
258 07-11-2019 18:58:18 5.6 C 38 %
259 07-11-2019 19:08:17 6 C 40 %
260 07-11-2019 19:18:17 6.4 C 39 %
261 07-11-2019 19:28:17 6.1 C 33 %
262 07-11-2019 19:38:17 5.8 C 34 %
263 07-11-2019 19:48:18 5.3 C 35 %
264 07-11-2019 19:58:18 5.1 C 36 %
265 07-11-2019 20:08:17 5.1 C 36 %
266 07-11-2019 20:18:17 5.6 C 40 %
267 07-11-2019 20:28:17 5.5 C 38 %
268 07-11-2019 20:38:17 5.3 C 36 %
269 07-11-2019 20:48:17 5.2 C 36 %
270 07-11-2019 20:58:17 4.9 C 37 %
271 07-11-2019 21:08:17 4.5 C 38 %
272 07-11-2019 21:18:17 4.5 C 39 %
273 07-11-2019 21:28:17 4.5 C 39 %
274 07-11-2019 21:38:18 4.5 C 39 %
275 07-11-2019 21:48:17 4.8 C 40 %
Sensor: Nr:Datum:Temp:Feuchte:
Aussen-T/F 276 07-11-2019 21:58:17 4.5 C 38 %
277 07-11-2019 22:08:17 4.5 C 38 %
278 07-11-2019 22:18:17 4 C 38 %
279 07-11-2019 22:28:17 3.6 C 40 %
280 07-11-2019 22:38:17 3.5 C 40 %
281 07-11-2019 22:48:17 3.3 C 40 %
282 07-11-2019 22:58:17 3.7 C 41 %
283 07-11-2019 23:08:18 4.1 C 40 %
284 07-11-2019 23:18:17 4.5 C 40 %
285 07-11-2019 23:28:18 4.5 C 37 %
286 07-11-2019 23:38:17 4.5 C 35 %
287 07-11-2019 23:48:17 4.3 C 35 %
288 07-11-2019 23:58:17 4.1 C 35 %
289 08-11-2019 00:08:17 3.9 C 37 %
290 08-11-2019 00:18:17 3.7 C 38 %
291 08-11-2019 00:28:17 3.7 C 39 %
292 08-11-2019 00:38:17 3.5 C 40 %
293 08-11-2019 00:48:18 3.3 C 40 %
294 08-11-2019 00:58:18 3.2 C 40 %
295 08-11-2019 01:08:17 3.3 C 41 %
296 08-11-2019 01:18:17 3.3 C 41 %
297 08-11-2019 01:28:17 3.2 C 40 %
298 08-11-2019 01:38:17 3.1 C 40 %
299 08-11-2019 01:48:18 2.9 C 40 %
300 08-11-2019 01:58:18 2.4 C 40 %
Sensor: Nr:Datum:Temp:Feuchte:
Aussen-T/F 301 08-11-2019 02:08:17 2 C 40 %
302 08-11-2019 02:18:17 2 C 40 %
303 08-11-2019 02:28:17 1.9 C 42 %
304 08-11-2019 02:38:17 2.1 C 41 %
305 08-11-2019 02:48:18 1.8 C 42 %
306 08-11-2019 02:58:18 1.8 C 42 %
307 08-11-2019 03:08:17 2 C 41 %
308 08-11-2019 03:18:17 2 C 41 %
309 08-11-2019 03:28:17 1.8 C 42 %
310 08-11-2019 03:38:17 2.3 C 41 %
311 08-11-2019 03:48:18 2.1 C 41 %
312 08-11-2019 03:58:18 1.7 C 41 %
313 08-11-2019 04:08:17 1.7 C 41 %
314 08-11-2019 04:18:17 1.4 C 41 %
315 08-11-2019 04:28:17 1.4 C 41 %
316 08-11-2019 04:38:17 1.2 C 41 %
317 08-11-2019 04:48:17 1.2 C 41 %
318 08-11-2019 04:58:17 1.3 C 41 %
319 08-11-2019 05:08:17 1.2 C 41 %
320 08-11-2019 05:18:17 1.2 C 41 %
321 08-11-2019 05:28:17 1.1 C 41 %
322 08-11-2019 05:38:17 1.1 C 41 %
323 08-11-2019 05:48:17 1.3 C 41 %
324 08-11-2019 05:58:17 1.3 C 41 %
325 08-11-2019 06:08:17 1.4 C 41 %
Sensor: Nr:Datum:Temp:Feuchte:
Aussen-T/F 326 08-11-2019 06:18:17 1.4 C 41 %
327 08-11-2019 06:28:17 1.4 C 41 %
328 08-11-2019 06:38:18 1.3 C 41 %
329 08-11-2019 06:48:17 1.2 C 41 %
330 08-11-2019 06:58:17 1.1 C 41 %
331 08-11-2019 07:08:17 1.2 C 41 %
332 08-11-2019 07:18:17 1.5 C 41 %
333 08-11-2019 07:28:17 1.3 C 41 %
334 08-11-2019 07:38:17 1.2 C 41 %
335 08-11-2019 07:48:18 1.3 C 41 %
336 08-11-2019 07:58:18 1.8 C 41 %
337 08-11-2019 08:08:17 2.1 C 41 %
338 08-11-2019 08:18:17 2.3 C 41 %
339 08-11-2019 08:28:17 2.6 C 41 %
340 08-11-2019 08:38:17 2.9 C 41 %
341 08-11-2019 08:48:18 3.1 C 40 %
342 08-11-2019 08:58:18 3.1 C 40 %
343 08-11-2019 09:08:17 3.3 C 40 %
344 08-11-2019 09:18:18 3 C 40 %
345 08-11-2019 09:28:18 3.3 C 40 %
346 08-11-2019 09:38:17 3.3 C 40 %
347 08-11-2019 09:48:17 3.5 C 40 %
348 08-11-2019 09:58:17 3.7 C 40 %
349 08-11-2019 10:08:17 3.8 C 40 %
350 08-11-2019 10:18:17 4.1 C 39 %
Sensor: Nr:Datum:Temp:Feuchte:
Aussen-T/F 351 08-11-2019 10:28:17 4.6 C 39 %
352 08-11-2019 10:38:17 4.6 C 39 %
353 08-11-2019 10:48:18 5.1 C 37 %
354 08-11-2019 10:58:18 4.9 C 37 %
355 08-11-2019 11:08:17 5.1 C 37 %
356 08-11-2019 11:18:17 5.4 C 35 %
357 08-11-2019 11:28:17 5.3 C 33 %
358 08-11-2019 11:38:17 5.6 C 35 %
359 08-11-2019 11:48:18 5.6 C 34 %
360 08-11-2019 11:58:18 5.7 C 34 %
361 08-11-2019 12:08:17 5.7 C 32 %
362 08-11-2019 12:18:17 6 C 32 %
363 08-11-2019 12:28:17 6.4 C 32 %
364 08-11-2019 12:38:17 6.4 C 31 %
365 08-11-2019 12:48:18 6.5 C 28 %
366 08-11-2019 12:58:18 6.8 C 30 %
367 08-11-2019 13:08:17 7 C 28 %
368 08-11-2019 13:18:17 7.3 C 30 %
369 08-11-2019 13:28:17 6.9 C 27 %
370 08-11-2019 13:38:17 7.1 C 28 %
371 08-11-2019 13:48:17 7.3 C 26 %
372 08-11-2019 13:58:17 7.5 C 27 %
373 08-11-2019 14:08:18 7.5 C 26 %
374 08-11-2019 14:18:17 7.7 C 27 %
375 08-11-2019 14:28:17 7.6 C 27 %
Sensor: Nr:Datum:Temp:Feuchte:
Aussen-T/F 376 08-11-2019 14:38:17 7.6 C 27 %
377 08-11-2019 14:48:17 7.5 C 27 %
378 08-11-2019 14:58:17 7.5 C 29 %
379 08-11-2019 15:08:17 7.5 C 30 %
380 08-11-2019 15:18:17 7.4 C 30 %
381 08-11-2019 15:28:17 7.4 C 31 %
382 08-11-2019 15:38:17 7.3 C 30 %
383 08-11-2019 15:48:17 7.2 C 31 %
384 08-11-2019 15:58:17 7.1 C 32 %
385 08-11-2019 16:08:18 7.1 C 31 %
386 08-11-2019 16:18:17 6.8 C 33 %
387 08-11-2019 16:28:17 6.6 C 34 %
388 08-11-2019 16:38:17 6.4 C 35 %
389 08-11-2019 16:48:17 6.3 C 36 %
390 08-11-2019 16:58:17 6.2 C 36 %
391 08-11-2019 17:08:18 6.1 C 36 %
392 08-11-2019 17:18:17 6 C 36 %
393 08-11-2019 17:28:17 5.9 C 36 %
394 08-11-2019 17:38:17 5.9 C 36 %
395 08-11-2019 17:48:17 5.9 C 36 %
396 08-11-2019 17:58:17 5.8 C 38 %
397 08-11-2019 18:08:17 5.8 C 39 %
398 08-11-2019 18:18:17 5.8 C 39 %
399 08-11-2019 18:28:17 5.8 C 40 %
400 08-11-2019 18:38:17 5.8 C 40 %
Sensor: Nr:Datum:Temp:Feuchte:
Aussen-T/F 401 08-11-2019 18:48:17 5.8 C 40 %
402 08-11-2019 18:58:17 5.7 C 40 %
403 08-11-2019 19:08:18 5.8 C 40 %
404 08-11-2019 19:18:17 5.6 C 39 %
405 08-11-2019 19:28:17 5.6 C 39 %
406 08-11-2019 19:38:17 5.3 C 39 %
407 08-11-2019 19:48:17 5.4 C 40 %
408 08-11-2019 19:58:17 5.4 C 40 %
409 08-11-2019 20:08:18 5.4 C 40 %
410 08-11-2019 20:18:17 5.4 C 40 %
411 08-11-2019 20:28:17 5.3 C 40 %
412 08-11-2019 20:38:17 5.4 C 40 %
413 08-11-2019 20:48:17 5.3 C 40 %
414 08-11-2019 20:58:17 5.1 C 39 %
415 08-11-2019 21:08:17 4.8 C 39 %
416 08-11-2019 21:18:18 4.5 C 40 %
417 08-11-2019 21:28:18 4.3 C 40 %
418 08-11-2019 21:38:17 4.5 C 40 %
419 08-11-2019 21:48:17 4.5 C 40 %
420 08-11-2019 21:58:17 4.5 C 40 %
421 08-11-2019 22:08:17 4.3 C 40 %
422 08-11-2019 22:19:17 4.4 C 40 %
423 08-11-2019 22:28:17 4.6 C 40 %
424 08-11-2019 22:38:17 4.7 C 40 %
425 08-11-2019 22:49:17 4.7 C 40 %
Sensor: Nr:Datum:Temp:Feuchte:
Aussen-T/F 426 08-11-2019 22:59:17 4.8 C 40 %
427 08-11-2019 23:08:18 4.6 C 40 %
428 08-11-2019 23:18:17 4.6 C 40 %
429 08-11-2019 23:28:18 4.7 C 40 %
430 08-11-2019 23:38:17 4.7 C 40 %
431 08-11-2019 23:49:17 4.6 C 40 %
432 08-11-2019 23:59:17 4.6 C 40 %
433 09-11-2019 00:09:17 4.6 C 40 %
434 09-11-2019 00:19:17 4.5 C 40 %
435 09-11-2019 00:29:17 4.5 C 40 %
436 09-11-2019 00:39:17 4.5 C 40 %
437 09-11-2019 00:48:17 4.5 C 40 %
438 09-11-2019 00:58:17 4.5 C 40 %
439 09-11-2019 01:08:17 4.4 C 40 %
440 09-11-2019 01:18:17 4.4 C 40 %
441 09-11-2019 01:28:17 4.3 C 40 %
442 09-11-2019 01:38:17 4.3 C 39 %
443 09-11-2019 01:49:17 4.2 C 39 %
444 09-11-2019 01:59:17 4.2 C 39 %
445 09-11-2019 02:09:18 4.3 C 39 %
446 09-11-2019 02:19:17 4.3 C 39 %
447 09-11-2019 02:29:17 4.3 C 38 %
448 09-11-2019 02:39:17 4.3 C 38 %
449 09-11-2019 02:49:17 4.3 C 38 %
450 09-11-2019 02:59:17 4.3 C 38 %
Sensor: Nr:Datum:Temp:Feuchte:
Aussen-T/F 451 09-11-2019 03:09:18 4.3 C 38 %
452 09-11-2019 03:19:17 4.3 C 38 %
453 09-11-2019 03:29:17 4.4 C 38 %
454 09-11-2019 03:39:17 4.5 C 38 %
455 09-11-2019 03:49:17 4.5 C 37 %
456 09-11-2019 03:59:17 4.6 C 37 %
457 09-11-2019 04:09:18 4.6 C 37 %
458 09-11-2019 04:19:17 4.5 C 37 %
459 09-11-2019 04:29:17 4.5 C 37 %
460 09-11-2019 04:39:17 3.6 C 39 %
461 09-11-2019 04:49:17 3.5 C 40 %
462 09-11-2019 04:59:17 3.6 C 40 %
463 09-11-2019 05:09:17 4 C 40 %
464 09-11-2019 05:19:17 4.2 C 39 %
465 09-11-2019 05:29:17 4.5 C 36 %
466 09-11-2019 05:39:17 4.5 C 36 %
467 09-11-2019 05:49:17 4.6 C 36 %
468 09-11-2019 05:59:17 4.4 C 33 %
469 09-11-2019 06:09:17 4.1 C 31 %
470 09-11-2019 06:19:17 3.9 C 31 %
471 09-11-2019 06:29:17 3.8 C 30 %
472 09-11-2019 06:39:17 3.6 C 31 %
473 09-11-2019 06:49:17 3.5 C 31 %
474 09-11-2019 06:59:17 3.2 C 32 %
475 09-11-2019 07:09:17 2.8 C 35 %
Sensor: Nr:Datum:Temp:Feuchte:
Aussen-T/F 476 09-11-2019 07:19:17 2.8 C 36 %
477 09-11-2019 07:29:17 2.8 C 37 %
478 09-11-2019 07:39:17 2.6 C 38 %
479 09-11-2019 07:49:18 2.3 C 39 %
480 09-11-2019 07:59:18 2.3 C 40 %
481 09-11-2019 08:09:17 2.1 C 40 %
482 09-11-2019 08:19:17 2.2 C 40 %
483 09-11-2019 08:29:17 2.4 C 41 %
484 09-11-2019 08:39:17 2.7 C 41 %
485 09-11-2019 08:49:18 2.8 C 41 %
486 09-11-2019 08:59:18 3.6 C 41 %
487 09-11-2019 09:09:17 3.7 C 40 %
488 09-11-2019 09:19:17 4 C 37 %
489 09-11-2019 09:29:17 4.7 C 32 %
490 09-11-2019 09:39:17 4.8 C 28 %
491 09-11-2019 09:49:18 5 C 26 %
492 09-11-2019 09:59:18 5 C 25 %
493 09-11-2019 10:09:17 5.2 C 25 %
494 09-11-2019 10:19:17 5.2 C 25 %
495 09-11-2019 10:29:17 6 C 25 %
496 09-11-2019 10:39:17 5.8 C 23 %
497 09-11-2019 10:49:17 5.5 C 23 %
498 09-11-2019 10:59:17 5.7 C 25 %
499 09-11-2019 11:09:17 5.4 C 25 %
500 09-11-2019 11:19:17 5.3 C 23 %
Sensor: Nr:Datum:Temp:Feuchte:
Aussen-T/F 501 09-11-2019 11:29:17 5.5 C 23 %
502 09-11-2019 11:39:17 5.5 C 23 %
503 09-11-2019 11:49:18 5.6 C 23 %
504 09-11-2019 11:59:18 5.6 C 23 %
505 09-11-2019 12:09:17 5.6 C 23 %
506 09-11-2019 12:19:17 5.8 C 23 %
507 09-11-2019 12:29:17 6 C 23 %
508 09-11-2019 12:39:17 6.5 C 20 %
509 09-11-2019 12:49:18 6.5 C 20 %
510 09-11-2019 12:59:18 6.8 C 20 %
511 09-11-2019 13:09:17 6.5 C 20 %
512 09-11-2019 13:19:17 6.8 C 20 %
513 09-11-2019 13:29:17 6.9 C 20 %
514 09-11-2019 13:39:17 7.2 C 20 %
515 09-11-2019 13:49:17 6.9 C 20 %
516 09-11-2019 13:59:17 6.6 C 20 %
517 09-11-2019 14:09:17 6.6 C 20 %
518 09-11-2019 14:19:17 6.6 C 20 %
519 09-11-2019 14:29:17 6.5 C 20 %
520 09-11-2019 14:39:17 6.5 C 20 %
521 09-11-2019 14:49:17 6.5 C 20 %
522 09-11-2019 14:59:17 6.5 C 21 %
523 09-11-2019 15:09:17 6.2 C 23 %
524 09-11-2019 15:19:17 5.7 C 26 %
525 09-11-2019 15:29:17 5.6 C 29 %
Sensor: Nr:Datum:Temp:Feuchte:
Aussen-T/F 526 09-11-2019 15:39:17 5.6 C 30 %
527 09-11-2019 15:49:17 5.6 C 30 %
528 09-11-2019 15:59:17 5.7 C 29 %
529 09-11-2019 16:09:18 6 C 27 %
530 09-11-2019 16:19:17 5.9 C 29 %
531 09-11-2019 16:29:17 5.8 C 29 %
532 09-11-2019 16:39:17 5.7 C 30 %
533 09-11-2019 16:49:17 5.6 C 31 %
534 09-11-2019 16:59:17 5.6 C 30 %
535 09-11-2019 17:09:17 5.7 C 30 %
536 09-11-2019 17:19:17 5.7 C 30 %
537 09-11-2019 17:29:17 5.4 C 30 %
538 09-11-2019 17:39:17 5.2 C 30 %
539 09-11-2019 17:49:18 5 C 31 %
540 09-11-2019 17:59:18 5.1 C 30 %
541 09-11-2019 18:09:17 5.1 C 29 %
542 09-11-2019 18:19:17 4.7 C 30 %
543 09-11-2019 18:29:17 4.3 C 35 %
544 09-11-2019 18:39:17 4.1 C 36 %
545 09-11-2019 18:49:17 3.8 C 38 %
546 09-11-2019 18:59:17 3.6 C 39 %
547 09-11-2019 19:09:17 4.3 C 39 %
548 09-11-2019 19:19:17 4.7 C 32 %
549 09-11-2019 19:29:17 4.7 C 29 %
550 09-11-2019 19:39:17 4.6 C 28 %
Sensor: Nr:Datum:Temp:Feuchte:
Aussen-T/F 551 09-11-2019 19:49:17 4.3 C 30 %
552 09-11-2019 19:59:17 3.9 C 30 %
553 09-11-2019 20:09:18 3.4 C 31 %
554 09-11-2019 20:19:17 2.5 C 33 %
555 09-11-2019 20:29:17 2.5 C 37 %
556 09-11-2019 20:39:17 2.7 C 39 %
557 09-11-2019 20:49:17 2.5 C 39 %
558 09-11-2019 20:59:17 2.4 C 40 %
559 09-11-2019 21:09:17 2.4 C 40 %
560 09-11-2019 21:19:17 2.4 C 40 %
561 09-11-2019 21:29:17 2.1 C 40 %
562 09-11-2019 21:39:17 2.1 C 40 %
563 09-11-2019 21:49:17 2.2 C 41 %
564 09-11-2019 21:59:17 2 C 41 %
565 09-11-2019 22:09:17 1.6 C 41 %
566 09-11-2019 22:19:17 1.2 C 41 %
567 09-11-2019 22:29:17 1.3 C 42 %
568 09-11-2019 22:39:17 1.5 C 42 %
569 09-11-2019 22:49:18 1.4 C 42 %
570 09-11-2019 22:59:18 1.2 C 42 %
571 09-11-2019 23:09:17 1 C 41 %
572 09-11-2019 23:19:17 0.7 C 43 %
573 09-11-2019 23:29:17 0.6 C 43 %
574 09-11-2019 23:39:17 0.7 C 43 %
575 09-11-2019 23:49:17 0.7 C 43 %
Sensor: Nr:Datum:Temp:Feuchte:
Aussen-T/F 576 09-11-2019 23:59:17 0.2 C 43 %
577 10-11-2019 00:09:18 0.1 C 43 %
578 10-11-2019 00:19:17 -0.1 C 43 %
579 10-11-2019 00:29:17 -0.1 C 42 %
580 10-11-2019 00:39:17 -0.1 C 43 %
581 10-11-2019 00:49:17 0.1 C 43 %
582 10-11-2019 00:59:17 0 C 43 %
583 10-11-2019 01:09:17 0.4 C 43 %
584 10-11-2019 01:19:17 0.8 C 43 %
585 10-11-2019 01:29:17 0.9 C 43 %
586 10-11-2019 01:39:17 1 C 42 %
587 10-11-2019 01:49:17 1 C 42 %
588 10-11-2019 01:59:17 0.8 C 43 %
589 10-11-2019 02:09:18 1 C 42 %
590 10-11-2019 02:19:17 0.7 C 43 %
591 10-11-2019 02:29:17 0.6 C 43 %
592 10-11-2019 02:39:17 0.7 C 43 %
593 10-11-2019 02:49:17 0.8 C 43 %
594 10-11-2019 02:59:17 0.8 C 43 %
595 10-11-2019 03:09:17 0.6 C 43 %
596 10-11-2019 03:19:17 0.5 C 43 %
597 10-11-2019 03:29:17 0.6 C 43 %
598 10-11-2019 03:39:17 0.5 C 43 %
599 10-11-2019 03:49:17 0.6 C 43 %
600 10-11-2019 03:59:18 0.5 C 43 %
Sensor: Nr:Datum:Temp:Feuchte:
Aussen-T/F 601 10-11-2019 04:09:17 0.4 C 43 %
602 10-11-2019 04:19:17 0.3 C 42 %
603 10-11-2019 04:29:17 0.4 C 42 %
604 10-11-2019 04:39:17 0.4 C 42 %
605 10-11-2019 04:49:18 0.3 C 42 %
606 10-11-2019 04:59:18 0.5 C 42 %
607 10-11-2019 05:09:17 0.5 C 43 %
608 10-11-2019 05:19:17 0.8 C 43 %
609 10-11-2019 05:29:17 0.9 C 43 %
610 10-11-2019 05:39:17 0.9 C 43 %
611 10-11-2019 05:49:17 0.9 C 43 %
612 10-11-2019 05:59:17 0.9 C 43 %
613 10-11-2019 06:09:17 0.9 C 43 %
614 10-11-2019 06:19:17 1.1 C 41 %
615 10-11-2019 06:29:17 0.8 C 42 %
616 10-11-2019 06:39:17 0.9 C 42 %
617 10-11-2019 06:49:17 0.9 C 42 %
618 10-11-2019 06:59:17 0.9 C 42 %
619 10-11-2019 07:09:17 0.9 C 42 %
620 10-11-2019 07:19:18 0.9 C 43 %
621 10-11-2019 07:29:18 0.9 C 42 %
622 10-11-2019 07:39:17 0.9 C 42 %
623 10-11-2019 07:49:17 0.9 C 42 %
624 10-11-2019 07:59:17 1 C 41 %
625 10-11-2019 08:09:17 1.1 C 41 %
Sensor: Nr:Datum:Temp:Feuchte:
Aussen-T/F 626 10-11-2019 08:19:17 1.2 C 42 %
627 10-11-2019 08:29:17 1.3 C 41 %
628 10-11-2019 08:39:17 1.3 C 42 %
629 10-11-2019 08:49:17 1.4 C 41 %
630 10-11-2019 08:59:17 1.6 C 41 %
631 10-11-2019 09:09:18 1.6 C 41 %
632 10-11-2019 09:19:17 1.8 C 41 %
633 10-11-2019 09:29:18 1.7 C 41 %
634 10-11-2019 09:39:17 2 C 40 %
635 10-11-2019 09:49:17 2.1 C 40 %
636 10-11-2019 09:59:17 2.3 C 39 %
637 10-11-2019 10:09:17 2.3 C 38 %
638 10-11-2019 10:19:17 2.4 C 38 %
639 10-11-2019 10:29:17 2.4 C 36 %
640 10-11-2019 10:39:18 2.8 C 36 %
641 10-11-2019 10:49:17 3.1 C 35 %
642 10-11-2019 10:59:17 2.8 C 32 %
643 10-11-2019 11:09:17 3.2 C 33 %
644 10-11-2019 11:19:17 3.4 C 33 %
645 10-11-2019 11:29:17 3.5 C 33 %
646 10-11-2019 11:39:17 3.7 C 33 %
647 10-11-2019 11:49:17 3.6 C 30 %
648 10-11-2019 11:59:17 3.5 C 30 %
649 10-11-2019 12:09:17 3.4 C 30 %
650 10-11-2019 12:19:17 3.6 C 30 %
Sensor: Nr:Datum:Temp:Feuchte:
Aussen-T/F 651 10-11-2019 12:29:17 3.6 C 28 %
652 10-11-2019 12:39:17 3.5 C 27 %
653 10-11-2019 12:49:17 3.6 C 26 %
654 10-11-2019 12:59:17 3.6 C 26 %
655 10-11-2019 13:09:17 3.6 C 26 %
656 10-11-2019 13:19:17 3.8 C 26 %
657 10-11-2019 13:29:17 4.1 C 26 %
658 10-11-2019 13:39:17 4.1 C 25 %
659 10-11-2019 13:49:17 4.2 C 25 %
660 10-11-2019 13:59:17 4.1 C 25 %
661 10-11-2019 14:09:17 4.2 C 25 %
662 10-11-2019 14:19:17 4.1 C 25 %
663 10-11-2019 14:29:17 4.3 C 25 %
664 10-11-2019 14:39:17 4.4 C 25 %
665 10-11-2019 14:49:17 4.4 C 23 %
666 10-11-2019 14:59:17 4.5 C 23 %
667 10-11-2019 15:09:18 4.5 C 23 %
668 10-11-2019 15:19:17 4.5 C 25 %
669 10-11-2019 15:29:17 4.5 C 25 %
670 10-11-2019 15:39:17 4.5 C 25 %
671 10-11-2019 15:49:17 4.3 C 25 %
672 10-11-2019 15:59:17 4.3 C 26 %
673 10-11-2019 16:09:17 4.2 C 25 %
674 10-11-2019 16:19:17 4.1 C 26 %
675 10-11-2019 16:29:17 4.1 C 26 %
Sensor: Nr:Datum:Temp:Feuchte:
Aussen-T/F 676 10-11-2019 16:39:17 4 C 27 %
677 10-11-2019 16:49:18 3.9 C 28 %
678 10-11-2019 16:59:18 3.8 C 28 %
679 10-11-2019 17:09:17 3.7 C 29 %
680 10-11-2019 17:19:17 3.7 C 29 %
681 10-11-2019 17:29:17 3.7 C 30 %
682 10-11-2019 17:39:17 3.7 C 30 %
683 10-11-2019 17:49:18 3.7 C 30 %
684 10-11-2019 17:59:18 3.6 C 30 %
685 10-11-2019 18:09:17 3.7 C 30 %
686 10-11-2019 18:19:17 3.7 C 30 %
687 10-11-2019 18:29:17 3.6 C 30 %
688 10-11-2019 18:39:17 3.6 C 30 %
689 10-11-2019 18:49:18 3.6 C 30 %
690 10-11-2019 18:59:18 3.5 C 31 %
691 10-11-2019 19:09:17 3.5 C 31 %
692 10-11-2019 19:19:17 3.4 C 31 %
693 10-11-2019 19:29:17 3.4 C 32 %
694 10-11-2019 19:39:17 3.4 C 32 %
695 10-11-2019 19:49:17 3.4 C 32 %
696 10-11-2019 19:59:17 3.4 C 33 %
697 10-11-2019 20:09:17 3.5 C 34 %
698 10-11-2019 20:19:17 3.6 C 34 %
699 10-11-2019 20:29:17 3.6 C 33 %
700 10-11-2019 20:39:17 3.6 C 33 %
Sensor: Nr:Datum:Temp:Feuchte:
Aussen-T/F 701 10-11-2019 20:49:17 3.7 C 34 %
702 10-11-2019 20:59:17 3.7 C 34 %
703 10-11-2019 21:09:18 3.7 C 34 %
704 10-11-2019 21:19:17 3.7 C 32 %
705 10-11-2019 21:29:17 3.7 C 32 %
706 10-11-2019 21:39:17 3.6 C 32 %
707 10-11-2019 21:49:17 3.6 C 33 %
708 10-11-2019 21:59:17 3.6 C 33 %
709 10-11-2019 22:09:17 3.6 C 32 %
710 10-11-2019 22:19:17 3.6 C 33 %
711 10-11-2019 22:29:17 3.7 C 34 %
712 10-11-2019 22:39:17 3.7 C 35 %
713 10-11-2019 22:49:17 3.8 C 32 %
714 10-11-2019 22:59:17 3.9 C 31 %
715 10-11-2019 23:09:17 3.9 C 31 %
716 10-11-2019 23:19:17 3.8 C 30 %
717 10-11-2019 23:29:17 3.8 C 29 %
718 10-11-2019 23:39:17 3.8 C 30 %
719 10-11-2019 23:49:17 3.8 C 29 %
720 10-11-2019 23:59:17 3.8 C 29 %
721 11-11-2019 00:09:17 3.8 C 28 %
722 11-11-2019 00:19:17 3.7 C 27 %
723 11-11-2019 00:29:17 3.6 C 27 %
724 11-11-2019 00:39:17 3.5 C 28 %
725 11-11-2019 00:49:17 3.5 C 27 %
Sensor: Nr:Datum:Temp:Feuchte:
Aussen-T/F 726 11-11-2019 00:59:17 3.4 C 27 %
727 11-11-2019 01:09:17 3.2 C 27 %
728 11-11-2019 01:19:17 3.2 C 27 %
729 11-11-2019 01:29:17 3.1 C 28 %
730 11-11-2019 01:39:17 3.1 C 28 %
731 11-11-2019 01:49:17 3 C 28 %
732 11-11-2019 01:59:17 3 C 28 %
733 11-11-2019 02:09:17 3.1 C 28 %
734 11-11-2019 02:19:17 3 C 29 %
735 11-11-2019 02:29:17 3 C 28 %
736 11-11-2019 02:39:17 3.1 C 28 %
737 11-11-2019 02:49:17 2.8 C 28 %
738 11-11-2019 02:59:17 2.8 C 29 %
739 11-11-2019 03:09:17 2.7 C 30 %
740 11-11-2019 03:19:17 2.7 C 29 %
741 11-11-2019 03:29:17 2.7 C 29 %
742 11-11-2019 03:39:17 2.6 C 29 %
743 11-11-2019 03:49:17 2.5 C 28 %
744 11-11-2019 03:59:17 2.5 C 28 %
745 11-11-2019 04:09:17 2.4 C 29 %
746 11-11-2019 04:19:17 2.4 C 30 %
747 11-11-2019 04:29:17 2.4 C 30 %
748 11-11-2019 04:39:17 2.4 C 30 %
749 11-11-2019 04:49:17 2.5 C 30 %
750 11-11-2019 04:59:17 2.5 C 30 %
Sensor: Nr:Datum:Temp:Feuchte:
Aussen-T/F 751 11-11-2019 05:09:17 2.6 C 30 %
752 11-11-2019 05:19:17 2.6 C 30 %
753 11-11-2019 05:29:17 2.6 C 30 %
754 11-11-2019 05:39:17 2.6 C 30 %
755 11-11-2019 05:49:17 2.7 C 30 %
756 11-11-2019 05:59:17 2.6 C 30 %
757 11-11-2019 06:09:17 2.7 C 29 %
758 11-11-2019 06:19:17 2.7 C 29 %
759 11-11-2019 06:29:17 2.6 C 30 %
760 11-11-2019 06:39:17 2.7 C 30 %
761 11-11-2019 06:49:17 2.7 C 30 %
762 11-11-2019 06:59:17 2.7 C 31 %
763 11-11-2019 07:09:17 2.7 C 31 %
764 11-11-2019 07:19:18 2.7 C 31 %
765 11-11-2019 07:29:18 2.8 C 31 %
766 11-11-2019 07:39:17 2.9 C 32 %
767 11-11-2019 07:49:17 3 C 31 %
768 11-11-2019 07:59:17 3.2 C 30 %
769 11-11-2019 08:09:17 3.5 C 26 %
770 11-11-2019 08:19:17 3.7 C 25 %
771 11-11-2019 08:29:17 3.9 C 25 %
772 11-11-2019 08:39:17 4.2 C 21 %
773 11-11-2019 08:49:17 4.4 C 20 %
774 11-11-2019 08:59:17 4.7 C 20 %
775 11-11-2019 09:09:17 4.7 C 20 %
Sensor: Nr:Datum:Temp:Feuchte:
Aussen-T/F 776 11-11-2019 09:19:17 4.5 C 20 %
777 11-11-2019 09:29:17 4.9 C 20 %
778 11-11-2019 09:39:17 5.2 C 20 %
779 11-11-2019 09:49:17 5.4 C 20 %
780 11-11-2019 09:59:17 5.2 C 20 %
781 11-11-2019 10:09:17 5.2 C 20 %
782 11-11-2019 10:19:17 5.2 C 20 %
783 11-11-2019 10:29:17 5 C 20 %
784 11-11-2019 10:39:17 5.1 C 20 %
785 11-11-2019 10:49:17 4.8 C 20 %
786 11-11-2019 10:59:17 5.3 C 20 %
787 11-11-2019 11:09:17 5.2 C 20 %
788 11-11-2019 11:19:17 5.6 C 20 %
789 11-11-2019 11:29:17 5.9 C 20 %
790 11-11-2019 11:39:17 5.9 C 20 %
791 11-11-2019 11:49:17 6 C 20 %
792 11-11-2019 11:59:17 5.8 C 20 %
793 11-11-2019 12:09:17 6.4 C 20 %
794 11-11-2019 12:19:17 6.2 C 20 %
795 11-11-2019 12:29:17 6.4 C 20 %
796 11-11-2019 12:39:17 6.5 C 20 %
797 11-11-2019 12:49:17 6.5 C 20 %
798 11-11-2019 12:59:17 7.1 C 20 %
799 11-11-2019 13:09:17 7.2 C 20 %
800 11-11-2019 13:19:17 7.2 C 20 %
Sensor: Nr:Datum:Temp:Feuchte:
Aussen-T/F 801 11-11-2019 13:29:17 6.5 C 20 %
802 11-11-2019 13:39:17 6.7 C 20 %
803 11-11-2019 13:49:17 6.5 C 20 %
804 11-11-2019 13:59:17 6.4 C 20 %
805 11-11-2019 14:09:17 6.2 C 20 %
806 11-11-2019 14:19:17 6.2 C 20 %
807 11-11-2019 14:29:17 6.3 C 20 %
808 11-11-2019 14:39:17 5.8 C 20 %
809 11-11-2019 14:49:17 5.4 C 20 %
810 11-11-2019 14:59:17 5.3 C 20 %
811 11-11-2019 15:09:17 5.5 C 20 %
812 11-11-2019 15:19:17 5.5 C 20 %
813 11-11-2019 15:29:17 5.3 C 20 %
814 11-11-2019 15:39:17 5.1 C 20 %
815 11-11-2019 15:49:17 4.9 C 20 %
816 11-11-2019 15:59:17 4.8 C 20 %
817 11-11-2019 16:09:17 4.7 C 21 %
818 11-11-2019 16:19:17 4.7 C 20 %
819 11-11-2019 16:29:17 4.6 C 23 %
820 11-11-2019 16:39:17 4.6 C 23 %
821 11-11-2019 16:49:17 4.6 C 23 %
822 11-11-2019 16:59:17 4.5 C 23 %
823 11-11-2019 17:09:17 4.5 C 21 %
824 11-11-2019 17:19:17 4.5 C 23 %
825 11-11-2019 17:29:17 4.4 C 23 %
Sensor: Nr:Datum:Temp:Feuchte:
Aussen-T/F 826 11-11-2019 17:39:17 4.3 C 23 %
827 11-11-2019 17:49:17 4.1 C 25 %
828 11-11-2019 17:59:17 4.1 C 25 %
829 11-11-2019 18:09:17 3.9 C 26 %
830 11-11-2019 18:19:17 4 C 25 %
831 11-11-2019 18:29:17 4.1 C 25 %
832 11-11-2019 18:39:17 4 C 26 %
833 11-11-2019 18:49:17 3.9 C 30 %
834 11-11-2019 18:59:17 3.9 C 31 %
835 11-11-2019 19:09:17 3.9 C 35 %
836 11-11-2019 19:19:17 3.8 C 36 %
837 11-11-2019 19:29:17 3.9 C 39 %
838 11-11-2019 19:39:17 3.9 C 40 %
839 11-11-2019 19:49:17 3.8 C 40 %
840 11-11-2019 19:59:17 3.8 C 41 %
841 11-11-2019 20:09:17 3.8 C 41 %
842 11-11-2019 20:19:17 3.8 C 41 %
843 11-11-2019 20:29:17 3.8 C 40 %
844 11-11-2019 20:39:18 3.9 C 40 %
845 11-11-2019 20:49:17 3.9 C 40 %
846 11-11-2019 20:59:17 4 C 39 %
847 11-11-2019 21:09:17 4.1 C 39 %
848 11-11-2019 21:19:17 4.2 C 37 %
849 11-11-2019 21:29:17 4.2 C 37 %
850 11-11-2019 21:39:17 4.3 C 37 %
Sensor: Nr:Datum:Temp:Feuchte:
Aussen-T/F 851 11-11-2019 21:49:17 4.4 C 36 %
852 11-11-2019 21:59:17 4.4 C 36 %
853 11-11-2019 22:09:17 4.4 C 36 %
854 11-11-2019 22:19:17 4.4 C 36 %
855 11-11-2019 22:29:17 4.3 C 35 %
856 11-11-2019 22:39:17 4.4 C 37 %
857 11-11-2019 22:49:17 4.4 C 38 %
858 11-11-2019 22:59:17 4.4 C 39 %
859 11-11-2019 23:09:17 4.5 C 39 %
860 11-11-2019 23:19:17 4.5 C 39 %
861 11-11-2019 23:29:17 4.5 C 39 %
862 11-11-2019 23:39:17 4.5 C 39 %
863 11-11-2019 23:49:17 4.5 C 38 %
864 11-11-2019 23:59:17 4.2 C 38 %
865 12-11-2019 00:09:17 4.3 C 40 %
866 12-11-2019 00:19:17 4.4 C 40 %
867 12-11-2019 00:29:17 4.3 C 40 %
868 12-11-2019 00:39:17 4.5 C 39 %
869 12-11-2019 00:49:17 3.8 C 38 %
870 12-11-2019 00:59:17 4 C 40 %
871 12-11-2019 01:09:17 4.5 C 37 %
872 12-11-2019 01:19:17 4.8 C 35 %
873 12-11-2019 01:29:17 4.7 C 32 %
874 12-11-2019 01:39:17 5 C 28 %
875 12-11-2019 01:49:17 4.9 C 28 %
Sensor: Nr:Datum:Temp:Feuchte:
Aussen-T/F 876 12-11-2019 01:59:17 5 C 27 %
877 12-11-2019 02:09:17 5.2 C 25 %
878 12-11-2019 02:19:17 4.9 C 30 %
879 12-11-2019 02:29:17 4.7 C 31 %
880 12-11-2019 02:39:17 4.7 C 32 %
881 12-11-2019 02:49:17 5.1 C 26 %
882 12-11-2019 02:59:17 5 C 28 %
883 12-11-2019 03:09:17 5.1 C 26 %
884 12-11-2019 03:19:17 5 C 26 %
885 12-11-2019 03:29:17 4.8 C 28 %
886 12-11-2019 03:39:17 4.9 C 27 %
887 12-11-2019 03:49:17 4.8 C 27 %
888 12-11-2019 03:59:17 4.8 C 28 %
889 12-11-2019 04:09:17 4.8 C 29 %
890 12-11-2019 04:19:17 5.1 C 25 %
891 12-11-2019 04:29:17 5 C 25 %
892 12-11-2019 04:39:17 5.2 C 23 %
893 12-11-2019 04:49:17 5 C 25 %
894 12-11-2019 04:59:17 4.9 C 26 %
895 12-11-2019 05:09:17 4.7 C 26 %
896 12-11-2019 05:19:17 4.5 C 30 %
897 12-11-2019 05:29:17 4.5 C 31 %
898 12-11-2019 05:39:17 4.4 C 31 %
899 12-11-2019 05:49:17 4.4 C 30 %
900 12-11-2019 05:59:17 4.5 C 30 %
Sensor: Nr:Datum:Temp:Feuchte:
Aussen-T/F 901 12-11-2019 06:09:17 4.6 C 30 %
902 12-11-2019 06:19:18 4.8 C 29 %
903 12-11-2019 06:29:18 4.9 C 26 %
904 12-11-2019 06:39:17 4.7 C 26 %
905 12-11-2019 06:49:17 4.8 C 26 %
906 12-11-2019 06:59:17 4.9 C 26 %
907 12-11-2019 07:09:17 4.9 C 25 %
908 12-11-2019 07:19:17 5 C 25 %
909 12-11-2019 07:29:17 5 C 23 %
910 12-11-2019 07:39:17 5.2 C 21 %
911 12-11-2019 07:49:17 5.5 C 23 %
912 12-11-2019 07:59:17 5 C 23 %
913 12-11-2019 08:09:17 5.1 C 25 %
914 12-11-2019 08:19:17 5.1 C 25 %
915 12-11-2019 08:29:17 5.2 C 25 %
916 12-11-2019 08:39:17 5.4 C 20 %
917 12-11-2019 08:49:17 5.3 C 21 %
918 12-11-2019 08:59:17 5.6 C 20 %
919 12-11-2019 09:09:17 6 C 20 %
920 12-11-2019 09:19:17 6.3 C 20 %
921 12-11-2019 09:29:17 6.4 C 20 %
922 12-11-2019 09:39:17 7.2 C 20 %
923 12-11-2019 09:49:17 7.1 C 20 %
924 12-11-2019 09:59:17 7.2 C 20 %
925 12-11-2019 10:09:17 7.5 C 20 %
Sensor: Nr:Datum:Temp:Feuchte:
Aussen-T/F 926 12-11-2019 10:19:17 7.8 C 20 %
927 12-11-2019 10:29:17 7.8 C 20 %
928 12-11-2019 10:39:17 7.9 C 20 %
929 12-11-2019 10:49:17 8.3 C 20 %
930 12-11-2019 10:59:17 8.2 C 20 %
931 12-11-2019 11:09:17 8.1 C 20 %
932 12-11-2019 11:19:17 8 C 20 %
933 12-11-2019 11:29:17 7.5 C 20 %
934 12-11-2019 11:39:17 7.1 C 20 %
935 12-11-2019 11:49:17 7 C 20 %
936 12-11-2019 11:59:17 7.1 C 20 %
937 12-11-2019 12:09:17 7.6 C 20 %
938 12-11-2019 12:19:17 7.8 C 20 %
939 12-11-2019 12:29:17 8.4 C 20 %
940 12-11-2019 12:39:17 7.9 C 20 %
941 12-11-2019 12:49:17 7.6 C 20 %
942 12-11-2019 12:59:17 7.7 C 20 %
943 12-11-2019 13:09:17 7.8 C 20 %
944 12-11-2019 13:19:17 7.5 C 20 %
945 12-11-2019 13:29:17 7.5 C 20 %
946 12-11-2019 13:39:17 7.3 C 20 %
947 12-11-2019 13:49:17 7.3 C 20 %
948 12-11-2019 13:59:17 7.5 C 20 %
949 12-11-2019 14:09:17 7.5 C 20 %
950 12-11-2019 14:19:17 7.9 C 20 %
Sensor: Nr:Datum:Temp:Feuchte:
Aussen-T/F 951 12-11-2019 14:29:17 7.8 C 20 %
952 12-11-2019 14:39:17 7.6 C 20 %
953 12-11-2019 14:49:17 7.6 C 20 %
954 12-11-2019 14:59:17 7.7 C 20 %
955 12-11-2019 15:09:17 7.8 C 20 %
956 12-11-2019 15:19:17 7.8 C 20 %
957 12-11-2019 15:29:17 7.8 C 20 %
958 12-11-2019 15:39:17 7.4 C 20 %
959 12-11-2019 15:49:17 7.2 C 20 %
960 12-11-2019 15:59:17 7.2 C 20 %
961 12-11-2019 16:09:17 7.1 C 20 %
962 12-11-2019 16:19:17 7 C 20 %
963 12-11-2019 16:29:17 6.9 C 20 %
964 12-11-2019 16:39:17 6.8 C 20 %
965 12-11-2019 16:49:17 6.4 C 20 %
966 12-11-2019 16:59:17 6.4 C 20 %
967 12-11-2019 17:09:17 6.3 C 20 %
968 12-11-2019 17:19:17 6 C 20 %
969 12-11-2019 17:29:17 6 C 20 %
970 12-11-2019 17:39:17 6.1 C 20 %
971 12-11-2019 17:49:17 5.7 C 20 %
972 12-11-2019 17:59:17 5.5 C 20 %
973 12-11-2019 18:09:17 4.8 C 26 %
974 12-11-2019 18:19:17 4.7 C 26 %
975 12-11-2019 18:29:17 5.1 C 21 %
Sensor: Nr:Datum:Temp:Feuchte:
Aussen-T/F 976 12-11-2019 18:39:17 4.9 C 26 %
977 12-11-2019 18:49:17 4.6 C 25 %
978 12-11-2019 18:59:17 4.8 C 23 %
979 12-11-2019 19:09:18 4.4 C 25 %
980 12-11-2019 19:19:17 3.7 C 28 %
981 12-11-2019 19:29:17 3.2 C 30 %
982 12-11-2019 19:39:17 3 C 31 %
983 12-11-2019 19:49:18 2.8 C 32 %
984 12-11-2019 19:59:18 2.5 C 34 %
985 12-11-2019 20:09:17 2.5 C 34 %
986 12-11-2019 20:19:17 2.2 C 33 %
987 12-11-2019 20:29:17 1.8 C 36 %
988 12-11-2019 20:39:17 1.5 C 37 %
989 12-11-2019 20:49:17 1.7 C 41 %
990 12-11-2019 20:59:17 2.6 C 42 %
991 12-11-2019 21:09:17 3.2 C 35 %
992 12-11-2019 21:19:17 2.7 C 32 %
993 12-11-2019 21:29:17 2.1 C 33 %
994 12-11-2019 21:39:17 2.4 C 36 %
995 12-11-2019 21:49:17 2.6 C 35 %
996 12-11-2019 21:59:17 3.3 C 32 %
997 12-11-2019 22:09:17 3.4 C 32 %
998 12-11-2019 22:19:17 3.6 C 31 %
999 12-11-2019 22:29:17 4 C 27 %
1000 12-11-2019 22:39:17 4.2 C 26 %
Sensor: Nr:Datum:Temp:Feuchte:
Aussen-T/F 1001 12-11-2019 22:49:17 4.2 C 26 %
1002 12-11-2019 22:59:17 4.3 C 26 %
1003 12-11-2019 23:09:17 4.4 C 23 %
1004 12-11-2019 23:19:17 4.3 C 23 %
1005 12-11-2019 23:29:17 4.3 C 23 %
1006 12-11-2019 23:39:17 4.3 C 25 %
1007 12-11-2019 23:49:17 4.4 C 25 %
1008 12-11-2019 23:59:17 4.4 C 21 %
1009 13-11-2019 00:09:17 4.4 C 21 %
1010 13-11-2019 00:19:17 4.4 C 21 %
1011 13-11-2019 00:29:17 4.3 C 23 %
1012 13-11-2019 00:39:17 4.3 C 21 %
1013 13-11-2019 00:49:17 4.3 C 21 %
1014 13-11-2019 00:59:17 4.2 C 25 %
1015 13-11-2019 01:09:17 4.1 C 25 %
1016 13-11-2019 01:19:17 4 C 25 %
1017 13-11-2019 01:29:17 3.7 C 25 %
1018 13-11-2019 01:39:17 3.6 C 26 %
1019 13-11-2019 01:49:17 2.8 C 29 %
1020 13-11-2019 01:59:17 2.4 C 31 %
1021 13-11-2019 02:09:17 2.3 C 32 %
1022 13-11-2019 02:19:17 2.2 C 32 %
1023 13-11-2019 02:29:17 2.1 C 31 %
1024 13-11-2019 02:39:17 2.8 C 29 %
1025 13-11-2019 02:49:17 3.1 C 28 %
Sensor: Nr:Datum:Temp:Feuchte:
Aussen-T/F 1026 13-11-2019 02:59:17 3.9 C 21 %
1027 13-11-2019 03:09:17 3.9 C 20 %
1028 13-11-2019 03:19:17 4 C 20 %
1029 13-11-2019 03:29:17 3.8 C 21 %
1030 13-11-2019 03:39:17 4 C 20 %
1031 13-11-2019 03:49:17 3.9 C 23 %
1032 13-11-2019 03:59:17 4 C 20 %
1033 13-11-2019 04:09:17 4.1 C 20 %
1034 13-11-2019 04:19:17 3.9 C 21 %
1035 13-11-2019 04:29:17 3.8 C 23 %
1036 13-11-2019 04:39:17 4.2 C 20 %
1037 13-11-2019 04:49:17 4 C 20 %
1038 13-11-2019 04:59:17 3.9 C 21 %
1039 13-11-2019 05:09:17 3.6 C 25 %
1040 13-11-2019 05:19:17 3.8 C 25 %
1041 13-11-2019 05:29:17 3.7 C 26 %
1042 13-11-2019 05:39:17 3.8 C 26 %
1043 13-11-2019 05:49:17 3.8 C 26 %
1044 13-11-2019 05:59:17 3.8 C 26 %
1045 13-11-2019 06:09:17 3.8 C 26 %
1046 13-11-2019 06:19:17 3.9 C 25 %
1047 13-11-2019 06:29:17 3.9 C 25 %
1048 13-11-2019 06:39:17 3.9 C 25 %
1049 13-11-2019 06:49:17 3.2 C 25 %
1050 13-11-2019 06:59:17 3.1 C 30 %
Sensor: Nr:Datum:Temp:Feuchte:
Aussen-T/F 1051 13-11-2019 07:09:17 3.3 C 30 %
1052 13-11-2019 07:19:17 3.3 C 30 %
1053 13-11-2019 07:29:17 3.7 C 27 %
1054 13-11-2019 07:39:17 3.7 C 27 %
1055 13-11-2019 07:49:17 3.8 C 26 %
1056 13-11-2019 07:59:17 3.9 C 26 %
1057 13-11-2019 08:09:17 4 C 25 %
1058 13-11-2019 08:19:17 4.2 C 25 %
1059 13-11-2019 08:29:17 4.3 C 21 %
1060 13-11-2019 08:39:17 4.5 C 20 %
1061 13-11-2019 08:49:17 4.5 C 21 %
1062 13-11-2019 08:59:17 4.5 C 21 %
1063 13-11-2019 09:09:17 4.7 C 21 %
1064 13-11-2019 09:19:17 5.1 C 20 %
1065 13-11-2019 09:29:17 5.5 C 20 %
1066 13-11-2019 09:39:17 5.6 C 20 %
1067 13-11-2019 09:49:17 5.6 C 20 %
1068 13-11-2019 09:59:17 5.5 C 20 %
1069 13-11-2019 10:09:17 5.6 C 20 %
1070 13-11-2019 10:19:17 5.7 C 20 %
1071 13-11-2019 10:29:17 5.8 C 20 %
1072 13-11-2019 10:39:17 5.9 C 20 %
1073 13-11-2019 10:49:17 5.7 C 20 %
1074 13-11-2019 10:59:17 5.7 C 20 %
1075 13-11-2019 11:09:17 5.6 C 20 %
Sensor: Nr:Datum:Temp:Feuchte:
Aussen-T/F 1076 13-11-2019 11:19:17 5.8 C 20 %
1077 13-11-2019 11:29:17 6 C 20 %
1078 13-11-2019 11:39:17 6.1 C 20 %
1079 13-11-2019 11:49:17 6.1 C 20 %
1080 13-11-2019 11:59:17 6.6 C 20 %
1081 13-11-2019 12:09:17 6.5 C 20 %
1082 13-11-2019 12:19:17 6.6 C 20 %
1083 13-11-2019 12:29:17 6.8 C 20 %
1084 13-11-2019 12:39:17 6.7 C 20 %
1085 13-11-2019 12:49:17 6.4 C 20 %
1086 13-11-2019 12:59:17 6.7 C 20 %
1087 13-11-2019 13:09:17 6.8 C 20 %
1088 13-11-2019 13:19:17 6.7 C 20 %
1089 13-11-2019 13:29:17 6.4 C 20 %
1090 13-11-2019 13:39:17 6.5 C 20 %
1091 13-11-2019 13:49:17 6.4 C 20 %
1092 13-11-2019 13:59:17 6.3 C 20 %
1093 13-11-2019 14:09:17 6.3 C 20 %
1094 13-11-2019 14:19:17 6.3 C 20 %
1095 13-11-2019 14:29:17 6.2 C 20 %
1096 13-11-2019 14:39:17 6.2 C 20 %
1097 13-11-2019 14:49:17 6.2 C 20 %
1098 13-11-2019 14:59:17 6.3 C 20 %
1099 13-11-2019 15:09:17 6.3 C 20 %
1100 13-11-2019 15:19:17 6.3 C 20 %
Sensor: Nr:Datum:Temp:Feuchte:
Aussen-T/F 1101 13-11-2019 15:29:17 6.2 C 20 %
1102 13-11-2019 15:39:17 6.2 C 20 %
1103 13-11-2019 15:49:17 6.2 C 20 %
1104 13-11-2019 15:59:17 6.2 C 20 %
1105 13-11-2019 16:09:17 6.2 C 20 %
1106 13-11-2019 16:19:17 6.2 C 20 %
1107 13-11-2019 16:29:17 6.1 C 20 %
1108 13-11-2019 16:39:17 6 C 20 %
1109 13-11-2019 16:49:17 6 C 20 %
1110 13-11-2019 16:59:17 6 C 20 %
1111 13-11-2019 17:09:17 6 C 20 %
1112 13-11-2019 17:19:17 6 C 20 %
1113 13-11-2019 17:29:17 5.9 C 20 %
1114 13-11-2019 17:39:17 6 C 20 %
1115 13-11-2019 17:49:17 5.9 C 20 %
1116 13-11-2019 17:59:17 5.9 C 20 %
1117 13-11-2019 18:09:17 5.8 C 20 %
1118 13-11-2019 18:19:17 5.8 C 20 %
1119 13-11-2019 18:29:17 5.9 C 20 %
1120 13-11-2019 18:39:17 5.8 C 20 %
1121 13-11-2019 18:49:17 5.7 C 20 %
1122 13-11-2019 18:59:17 5.6 C 21 %
1123 13-11-2019 19:09:18 5.6 C 21 %
1124 13-11-2019 19:19:17 5.6 C 23 %
1125 13-11-2019 19:29:17 5.6 C 20 %
Sensor: Nr:Datum:Temp:Feuchte:
Aussen-T/F 1126 13-11-2019 19:39:17 5.6 C 21 %
1127 13-11-2019 19:49:17 5.8 C 20 %
1128 13-11-2019 19:59:17 5.8 C 20 %
1129 13-11-2019 20:09:17 5.8 C 20 %
1130 13-11-2019 20:19:17 5.9 C 20 %
1131 13-11-2019 20:29:17 5.8 C 20 %
1132 13-11-2019 20:39:17 5.8 C 20 %
1133 13-11-2019 20:49:17 5.8 C 20 %
1134 13-11-2019 20:59:17 5.6 C 20 %
1135 13-11-2019 21:09:17 5.5 C 23 %
1136 13-11-2019 21:19:17 5.4 C 25 %
1137 13-11-2019 21:29:17 4.8 C 27 %
1138 13-11-2019 21:39:17 4.8 C 27 %
1139 13-11-2019 21:49:17 4.7 C 28 %
1140 13-11-2019 21:59:17 4.7 C 29 %
1141 13-11-2019 22:09:17 4.2 C 28 %
1142 13-11-2019 22:19:17 3.8 C 32 %
1143 13-11-2019 22:29:17 3.8 C 33 %
1144 13-11-2019 22:39:17 3.8 C 33 %
1145 13-11-2019 22:49:17 4.1 C 32 %
1146 13-11-2019 22:59:17 4 C 31 %
1147 13-11-2019 23:09:17 4.1 C 29 %
1148 13-11-2019 23:19:17 3.4 C 33 %
1149 13-11-2019 23:29:17 3.6 C 33 %
1150 13-11-2019 23:39:17 3.6 C 33 %
Sensor: Nr:Datum:Temp:Feuchte:
Aussen-T/F 1151 13-11-2019 23:49:17 3.9 C 33 %
1152 13-11-2019 23:59:17 4.2 C 30 %
1153 14-11-2019 00:09:17 4.4 C 30 %
1154 14-11-2019 00:19:17 4.5 C 31 %
1155 14-11-2019 00:29:17 4.7 C 30 %
1156 14-11-2019 00:39:17 4.6 C 30 %
1157 14-11-2019 00:49:17 4.7 C 31 %
1158 14-11-2019 00:59:17 4.4 C 30 %
1159 14-11-2019 01:09:17 3.7 C 31 %
1160 14-11-2019 01:19:17 3.8 C 37 %
1161 14-11-2019 01:29:17 3.7 C 37 %
1162 14-11-2019 01:39:17 3.8 C 39 %
1163 14-11-2019 01:49:17 3.8 C 38 %
1164 14-11-2019 01:59:17 3.9 C 39 %
1165 14-11-2019 02:09:17 4 C 37 %
1166 14-11-2019 02:19:17 4 C 35 %
1167 14-11-2019 02:29:17 4.1 C 36 %
1168 14-11-2019 02:39:17 4.4 C 35 %
1169 14-11-2019 02:49:17 4.5 C 33 %
1170 14-11-2019 02:59:17 4.8 C 31 %
1171 14-11-2019 03:09:17 5 C 29 %
1172 14-11-2019 03:19:17 4.8 C 30 %
1173 14-11-2019 03:29:17 5 C 30 %
1174 14-11-2019 03:39:17 5.1 C 29 %
1175 14-11-2019 03:49:17 5.2 C 28 %
Sensor: Nr:Datum:Temp:Feuchte:
Aussen-T/F 1176 14-11-2019 03:59:17 5.1 C 28 %
1177 14-11-2019 04:09:17 5.2 C 29 %
1178 14-11-2019 04:19:17 5.1 C 29 %
1179 14-11-2019 04:29:17 4.6 C 31 %
1180 14-11-2019 04:39:17 4.5 C 32 %
1181 14-11-2019 04:49:17 4.6 C 33 %
1182 14-11-2019 04:59:17 4.2 C 31 %
1183 14-11-2019 05:09:17 3.4 C 33 %
1184 14-11-2019 05:19:17 3.3 C 40 %
1185 14-11-2019 05:29:17 3.7 C 41 %
1186 14-11-2019 05:39:18 4.1 C 40 %
1187 14-11-2019 05:49:17 4.4 C 38 %
1188 14-11-2019 05:59:17 4.4 C 36 %
1189 14-11-2019 06:09:17 3.6 C 34 %
1190 14-11-2019 06:19:17 3.5 C 36 %
1191 14-11-2019 06:29:17 3.5 C 36 %
1192 14-11-2019 06:39:17 3.9 C 38 %
1193 14-11-2019 06:49:17 4.2 C 36 %
1194 14-11-2019 06:59:17 4.6 C 30 %
1195 14-11-2019 07:09:17 4.6 C 30 %
1196 14-11-2019 07:19:17 4.8 C 26 %
1197 14-11-2019 07:29:17 4.8 C 25 %
1198 14-11-2019 07:39:17 4.5 C 26 %
1199 14-11-2019 07:49:17 4.5 C 26 %
1200 14-11-2019 07:59:17 4.5 C 26 %
Sensor: Nr:Datum:Temp:Feuchte:
Aussen-T/F 1201 14-11-2019 08:09:17 4.2 C 26 %
1202 14-11-2019 08:19:17 4.2 C 26 %
1203 14-11-2019 08:29:17 4.6 C 26 %
1204 14-11-2019 08:39:17 4.7 C 25 %
1205 14-11-2019 08:49:17 4.6 C 25 %
1206 14-11-2019 08:59:17 4.5 C 26 %
1207 14-11-2019 09:09:17 5 C 21 %
1208 14-11-2019 09:19:17 5 C 21 %
1209 14-11-2019 09:29:17 5.4 C 20 %
1210 14-11-2019 09:39:17 5.6 C 20 %
1211 14-11-2019 09:49:17 5.6 C 20 %
1212 14-11-2019 09:59:17 5.9 C 20 %
1213 14-11-2019 10:09:17 6.1 C 20 %
1214 14-11-2019 10:19:17 6.3 C 20 %
1215 14-11-2019 10:29:17 6.5 C 20 %
1216 14-11-2019 10:39:17 6.7 C 20 %
1217 14-11-2019 10:49:17 7.1 C 20 %
1218 14-11-2019 10:59:17 7.2 C 20 %
1219 14-11-2019 11:09:17 7.4 C 20 %
1220 14-11-2019 11:19:17 7.9 C 20 %
1221 14-11-2019 11:29:17 8.2 C 20 %
1222 14-11-2019 11:39:17 8.2 C 20 %
1223 14-11-2019 11:49:17 8.2 C 20 %
1224 14-11-2019 11:59:17 8.9 C 20 %
1225 14-11-2019 12:09:17 9.3 C 20 %
Sensor: Nr:Datum:Temp:Feuchte:
Aussen-T/F 1226 14-11-2019 12:19:17 9.1 C 20 %
1227 14-11-2019 12:29:17 9 C 20 %
1228 14-11-2019 12:39:17 8.6 C 20 %
1229 14-11-2019 12:49:17 8.3 C 20 %
1230 14-11-2019 12:59:17 8.3 C 20 %
1231 14-11-2019 13:09:17 8.6 C 20 %
1232 14-11-2019 13:19:17 8.8 C 20 %
1233 14-11-2019 13:29:17 8.6 C 20 %
1234 14-11-2019 13:39:17 8.7 C 20 %
1235 14-11-2019 13:49:17 9.1 C 20 %
1236 14-11-2019 13:59:17 9.6 C 20 %
1237 14-11-2019 14:09:17 9.4 C 20 %
1238 14-11-2019 14:19:17 9.2 C 20 %
1239 14-11-2019 14:29:17 9 C 20 %
1240 14-11-2019 14:39:17 8.9 C 20 %
1241 14-11-2019 14:49:17 8.5 C 20 %
1242 14-11-2019 14:59:17 8.1 C 20 %
1243 14-11-2019 15:09:17 7.9 C 20 %
1244 14-11-2019 15:19:17 7.8 C 20 %
1245 14-11-2019 15:29:17 7.3 C 20 %
1246 14-11-2019 15:39:17 6.9 C 20 %
1247 14-11-2019 15:49:17 6.7 C 20 %
1248 14-11-2019 15:59:17 6.5 C 20 %
1249 14-11-2019 16:09:17 6.5 C 20 %
1250 14-11-2019 16:19:17 6 C 20 %
Sensor: Nr:Datum:Temp:Feuchte:
Aussen-T/F 1251 14-11-2019 16:29:17 5.6 C 20 %
1252 14-11-2019 16:39:17 5.2 C 20 %
1253 14-11-2019 16:49:17 4.8 C 20 %
1254 14-11-2019 16:59:17 4.6 C 20 %
1255 14-11-2019 17:09:17 4.4 C 20 %
1256 14-11-2019 17:19:17 4.3 C 20 %
1257 14-11-2019 17:29:17 3.9 C 20 %
1258 14-11-2019 17:39:17 3.8 C 20 %
1259 14-11-2019 17:49:17 3.8 C 20 %
1260 14-11-2019 17:59:17 3.8 C 20 %
1261 14-11-2019 18:09:17 4.1 C 20 %
1262 14-11-2019 18:19:17 3.9 C 20 %
1263 14-11-2019 18:29:17 3.8 C 20 %
1264 14-11-2019 18:39:17 3.9 C 20 %
1265 14-11-2019 18:49:17 3.3 C 20 %
1266 14-11-2019 18:59:17 3.4 C 20 %
1267 14-11-2019 19:09:17 3.2 C 20 %
1268 14-11-2019 19:19:17 2.6 C 25 %
1269 14-11-2019 19:29:17 2.7 C 25 %
1270 14-11-2019 19:39:17 2.7 C 25 %
1271 14-11-2019 19:49:17 2.6 C 25 %
1272 14-11-2019 19:59:18 2.7 C 26 %
1273 14-11-2019 20:09:17 2.4 C 26 %
1274 14-11-2019 20:19:17 2.3 C 30 %
1275 14-11-2019 20:29:17 2.4 C 27 %
Sensor: Nr:Datum:Temp:Feuchte:
Aussen-T/F 1276 14-11-2019 20:39:17 2.6 C 26 %
1277 14-11-2019 20:49:17 2.5 C 26 %
1278 14-11-2019 20:59:17 2 C 27 %
1279 14-11-2019 21:09:17 1.6 C 32 %
1280 14-11-2019 21:19:17 1.6 C 36 %
1281 14-11-2019 21:29:17 1.7 C 35 %
1282 14-11-2019 21:39:17 1.6 C 35 %
1283 14-11-2019 21:49:17 1.4 C 35 %
1284 14-11-2019 21:59:17 1.4 C 36 %
1285 14-11-2019 22:09:17 1.6 C 37 %
1286 14-11-2019 22:19:17 1.5 C 36 %
1287 14-11-2019 22:29:17 1.5 C 37 %
1288 14-11-2019 22:39:17 1.6 C 39 %
1289 14-11-2019 22:49:17 1.6 C 39 %
1290 14-11-2019 22:59:17 1.9 C 40 %
1291 14-11-2019 23:09:17 2 C 38 %
1292 14-11-2019 23:19:17 2 C 37 %
1293 14-11-2019 23:29:17 2 C 36 %
1294 14-11-2019 23:39:17 2.2 C 36 %
1295 14-11-2019 23:49:17 2.1 C 36 %
1296 14-11-2019 23:59:17 2.1 C 36 %
1297 15-11-2019 00:09:17 2.1 C 36 %
1298 15-11-2019 00:19:17 2.2 C 35 %
1299 15-11-2019 00:29:17 2.3 C 36 %
1300 15-11-2019 00:39:17 2.5 C 36 %
Sensor: Nr:Datum:Temp:Feuchte:
Aussen-T/F 1301 15-11-2019 00:49:17 2.8 C 33 %
1302 15-11-2019 00:59:17 3 C 31 %
1303 15-11-2019 01:09:17 3.2 C 30 %
1304 15-11-2019 01:19:17 2.9 C 31 %
1305 15-11-2019 01:29:17 2.8 C 32 %
1306 15-11-2019 01:39:17 3.1 C 30 %
1307 15-11-2019 01:49:17 3.2 C 30 %
1308 15-11-2019 01:59:17 3.1 C 30 %
1309 15-11-2019 02:09:17 2.7 C 30 %
1310 15-11-2019 02:19:17 2.6 C 31 %
1311 15-11-2019 02:29:17 2.6 C 31 %
1312 15-11-2019 02:39:17 2.7 C 30 %
1313 15-11-2019 02:49:17 2.8 C 31 %
1314 15-11-2019 02:59:17 3.2 C 30 %
1315 15-11-2019 03:09:17 2.9 C 30 %
1316 15-11-2019 03:19:17 2.7 C 30 %
1317 15-11-2019 03:29:17 2.5 C 30 %
1318 15-11-2019 03:39:17 2.3 C 30 %
1319 15-11-2019 03:49:17 2.2 C 30 %
1320 15-11-2019 03:59:17 2.2 C 31 %
1321 15-11-2019 04:09:17 2.2 C 31 %
1322 15-11-2019 04:19:17 2.6 C 30 %
1323 15-11-2019 04:29:17 3.1 C 26 %
1324 15-11-2019 04:39:17 3.2 C 25 %
1325 15-11-2019 04:49:17 3 C 25 %
Sensor: Nr:Datum:Temp:Feuchte:
Aussen-T/F 1326 15-11-2019 04:59:17 3.1 C 25 %
1327 15-11-2019 05:09:17 2.8 C 27 %
1328 15-11-2019 05:19:17 2.6 C 26 %
1329 15-11-2019 05:29:17 2.7 C 25 %
1330 15-11-2019 05:39:17 2.5 C 27 %
1331 15-11-2019 05:49:17 2.6 C 25 %
1332 15-11-2019 05:59:17 3.2 C 23 %
1333 15-11-2019 06:09:17 3.3 C 20 %
1334 15-11-2019 06:19:17 3.4 C 20 %
1335 15-11-2019 06:29:17 3.3 C 20 %
1336 15-11-2019 06:39:17 3.4 C 20 %
1337 15-11-2019 06:49:17 3.4 C 20 %
1338 15-11-2019 06:59:17 3.1 C 20 %
1339 15-11-2019 07:09:17 3 C 20 %
1340 15-11-2019 07:19:17 2.9 C 21 %
1341 15-11-2019 07:29:17 3 C 21 %
1342 15-11-2019 07:39:17 2.9 C 23 %
1343 15-11-2019 07:49:17 2.8 C 25 %
1344 15-11-2019 07:59:17 3.2 C 20 %
1345 15-11-2019 08:09:17 3.3 C 20 %
1346 15-11-2019 08:19:17 3.3 C 20 %
1347 15-11-2019 08:29:17 3.3 C 20 %
1348 15-11-2019 08:39:17 3.3 C 20 %
1349 15-11-2019 08:49:17 3.1 C 23 %
1350 15-11-2019 08:59:17 3.3 C 21 %
Sensor: Nr:Datum:Temp:Feuchte:
Aussen-T/F 1351 15-11-2019 09:09:17 3.3 C 21 %
1352 15-11-2019 09:19:17 3.6 C 20 %
1353 15-11-2019 09:29:17 4.1 C 20 %
1354 15-11-2019 09:39:17 4.5 C 20 %
1355 15-11-2019 09:49:17 4.4 C 20 %
1356 15-11-2019 09:59:17 4.6 C 20 %
1357 15-11-2019 10:09:17 4.9 C 20 %
1358 15-11-2019 10:19:17 5.2 C 20 %
1359 15-11-2019 10:29:17 5.5 C 20 %
1360 15-11-2019 10:39:17 5.4 C 20 %
1361 15-11-2019 10:49:17 5.5 C 20 %
1362 15-11-2019 10:59:17 5.8 C 20 %
1363 15-11-2019 11:09:17 5.9 C 20 %
1364 15-11-2019 11:19:17 5.3 C 20 %
1365 15-11-2019 11:29:17 5.2 C 20 %
1366 15-11-2019 11:39:17 5.8 C 20 %
1367 15-11-2019 11:49:17 6.1 C 20 %
1368 15-11-2019 11:59:17 6.4 C 20 %
1369 15-11-2019 12:09:17 6.5 C 20 %
1370 15-11-2019 12:19:17 6.5 C 20 %
1371 15-11-2019 12:29:17 6.3 C 20 %
1372 15-11-2019 12:39:17 6.3 C 20 %
1373 15-11-2019 12:49:17 6.4 C 20 %
1374 15-11-2019 12:59:17 6.5 C 20 %
1375 15-11-2019 13:09:17 6.8 C 20 %
Sensor: Nr:Datum:Temp:Feuchte:
Aussen-T/F 1376 15-11-2019 13:19:17 6.9 C 20 %
1377 15-11-2019 13:29:17 7 C 20 %
1378 15-11-2019 13:39:17 7.4 C 20 %
1379 15-11-2019 13:49:17 7.4 C 20 %
1380 15-11-2019 13:59:17 7.3 C 20 %
1381 15-11-2019 14:09:17 7.5 C 20 %
1382 15-11-2019 14:19:17 7.6 C 20 %
1383 15-11-2019 14:29:17 7.7 C 20 %
1384 15-11-2019 14:39:17 7.5 C 20 %
1385 15-11-2019 14:49:17 7.8 C 20 %
1386 15-11-2019 14:59:17 8 C 20 %
1387 15-11-2019 15:09:17 7.8 C 20 %
1388 15-11-2019 15:19:17 7.7 C 20 %
1389 15-11-2019 15:29:17 7.6 C 20 %
1390 15-11-2019 15:39:17 7.3 C 20 %
1391 15-11-2019 15:49:17 7.1 C 20 %
1392 15-11-2019 15:59:17 6.8 C 20 %
1393 15-11-2019 16:09:17 6.7 C 20 %
1394 15-11-2019 16:19:17 5.5 C 20 %
1395 15-11-2019 16:29:17 5 C 20 %
1396 15-11-2019 16:39:17 4.4 C 20 %
1397 15-11-2019 16:49:17 4 C 23 %
1398 15-11-2019 16:59:17 3.9 C 26 %
1399 15-11-2019 17:09:17 3.8 C 27 %
1400 15-11-2019 17:19:17 3.9 C 27 %
Sensor: Nr:Datum:Temp:Feuchte:
Aussen-T/F 1401 15-11-2019 17:29:17 3.8 C 28 %
1402 15-11-2019 17:39:17 4 C 27 %
1403 15-11-2019 17:49:17 3.8 C 28 %
1404 15-11-2019 17:59:17 3.8 C 29 %
1405 15-11-2019 18:09:17 3.8 C 29 %
1406 15-11-2019 18:19:17 4.3 C 27 %
1407 15-11-2019 18:29:17 4.2 C 26 %
1408 15-11-2019 18:39:17 4.1 C 27 %
1409 15-11-2019 18:49:17 4 C 28 %
1410 15-11-2019 18:59:17 4 C 28 %
1411 15-11-2019 19:09:17 3.9 C 31 %
1412 15-11-2019 19:19:17 3.6 C 31 %
1413 15-11-2019 19:29:17 3.7 C 32 %
1414 15-11-2019 19:39:17 3.6 C 31 %
1415 15-11-2019 19:49:17 3.7 C 32 %
1416 15-11-2019 19:59:17 3.7 C 32 %
1417 15-11-2019 20:09:17 3.4 C 33 %
1418 15-11-2019 20:19:17 3.3 C 34 %
1419 15-11-2019 20:29:17 3.2 C 35 %
1420 15-11-2019 20:39:17 3.5 C 32 %
1421 15-11-2019 20:49:17 3.2 C 32 %
1422 15-11-2019 20:59:17 3.5 C 32 %
1423 15-11-2019 21:09:17 3.5 C 31 %
1424 15-11-2019 21:19:17 3.5 C 31 %
1425 15-11-2019 21:29:17 3.2 C 31 %
Sensor: Nr:Datum:Temp:Feuchte:
Aussen-T/F 1426 15-11-2019 21:39:17 3 C 34 %
1427 15-11-2019 21:49:17 2.9 C 36 %
1428 15-11-2019 21:59:17 3 C 36 %
1429 15-11-2019 22:09:17 2.8 C 36 %
1430 15-11-2019 22:19:17 2.6 C 37 %
1431 15-11-2019 22:29:17 2.6 C 39 %
1432 15-11-2019 22:39:17 2.7 C 39 %
1433 15-11-2019 22:49:17 2.7 C 39 %
1434 15-11-2019 22:59:17 2.5 C 38 %
1435 15-11-2019 23:09:17 2.6 C 39 %
1436 15-11-2019 23:19:17 2.7 C 39 %
1437 15-11-2019 23:29:17 2.6 C 38 %
1438 15-11-2019 23:39:17 2.5 C 38 %
1439 15-11-2019 23:49:17 2.5 C 40 %
1440 15-11-2019 23:59:17 2.3 C 40 %
1441 16-11-2019 00:09:17 2.3 C 40 %
1442 16-11-2019 00:19:17 2.3 C 40 %
1443 16-11-2019 00:29:17 2.3 C 40 %
1444 16-11-2019 00:39:17 2.3 C 40 %
1445 16-11-2019 00:49:17 2.4 C 40 %
1446 16-11-2019 00:59:17 2.3 C 40 %
1447 16-11-2019 01:09:17 2.3 C 40 %
1448 16-11-2019 01:19:17 2.2 C 40 %
1449 16-11-2019 01:29:17 2.2 C 40 %
1450 16-11-2019 01:39:17 2.2 C 40 %
Sensor: Nr:Datum:Temp:Feuchte:
Aussen-T/F 1451 16-11-2019 01:49:17 2.3 C 40 %
1452 16-11-2019 01:59:17 2.3 C 40 %
1453 16-11-2019 02:09:17 2.3 C 40 %
1454 16-11-2019 02:19:17 2.3 C 40 %
1455 16-11-2019 02:29:17 2.2 C 40 %
1456 16-11-2019 02:39:17 2.1 C 39 %
1457 16-11-2019 02:49:17 2.1 C 40 %
1458 16-11-2019 02:59:17 2 C 40 %
1459 16-11-2019 03:09:17 2 C 40 %
1460 16-11-2019 03:19:17 1.9 C 41 %
1461 16-11-2019 03:29:17 1.5 C 40 %
1462 16-11-2019 03:39:18 1.3 C 40 %
1463 16-11-2019 03:49:17 1.3 C 41 %
1464 16-11-2019 03:59:17 1.3 C 41 %
1465 16-11-2019 04:09:17 1.1 C 41 %
1466 16-11-2019 04:19:17 0.8 C 41 %
1467 16-11-2019 04:29:17 0.3 C 40 %
1468 16-11-2019 04:39:17 0 C 41 %
1469 16-11-2019 04:49:17 -0.2 C 41 %
1470 16-11-2019 04:59:17 -0.1 C 42 %
1471 16-11-2019 05:09:17 -0.4 C 42 %
1472 16-11-2019 05:19:17 -0.5 C 42 %
1473 16-11-2019 05:29:17 -0.7 C 42 %
1474 16-11-2019 05:39:17 -0.6 C 42 %
1475 16-11-2019 05:49:17 -0.8 C 42 %
Sensor: Nr:Datum:Temp:Feuchte:
Aussen-T/F 1476 16-11-2019 05:59:17 -1 C 42 %
1477 16-11-2019 06:09:17 -1 C 42 %
1478 16-11-2019 06:19:17 -1.1 C 42 %
1479 16-11-2019 06:29:17 -1 C 43 %
1480 16-11-2019 06:39:17 -1 C 43 %
1481 16-11-2019 06:49:17 -1.4 C 42 %
1482 16-11-2019 06:59:17 -1.5 C 42 %
1483 16-11-2019 07:09:17 -1.5 C 42 %
1484 16-11-2019 07:19:17 -1.6 C 42 %
1485 16-11-2019 07:29:17 -1.4 C 43 %
1486 16-11-2019 07:39:17 -1 C 43 %
1487 16-11-2019 07:49:17 -0.9 C 43 %
1488 16-11-2019 07:59:17 -0.7 C 43 %
1489 16-11-2019 08:09:17 -0.7 C 43 %
1490 16-11-2019 08:19:17 -0.7 C 43 %
1491 16-11-2019 08:29:17 -0.6 C 43 %
1492 16-11-2019 08:39:17 -0.5 C 43 %
1493 16-11-2019 08:49:17 -0.4 C 43 %
1494 16-11-2019 08:59:17 -0.3 C 43 %
1495 16-11-2019 09:09:17 -0.4 C 43 %
1496 16-11-2019 09:19:17 -0.5 C 43 %
1497 16-11-2019 09:29:17 -0.5 C 43 %
1498 16-11-2019 09:39:17 -0.4 C 43 %
1499 16-11-2019 09:49:17 -0.4 C 43 %
1500 16-11-2019 09:59:17 -0.2 C 43 %
Sensor: Nr:Datum:Temp:Feuchte:
Aussen-T/F 1501 16-11-2019 10:09:17 0.2 C 43 %
1502 16-11-2019 10:19:17 0.6 C 43 %
1503 16-11-2019 10:29:17 0.6 C 41 %
1504 16-11-2019 10:39:17 0.3 C 40 %
1505 16-11-2019 10:49:17 0.5 C 40 %
1506 16-11-2019 10:59:17 0.6 C 39 %
1507 16-11-2019 11:09:17 0.7 C 38 %
1508 16-11-2019 11:19:17 1.1 C 36 %
1509 16-11-2019 11:29:17 1.6 C 32 %
1510 16-11-2019 11:39:17 2.4 C 32 %
1511 16-11-2019 11:49:17 2.1 C 30 %
1512 16-11-2019 11:59:17 1.8 C 31 %
1513 16-11-2019 12:09:17 1.6 C 32 %
1514 16-11-2019 12:19:17 1.6 C 33 %
1515 16-11-2019 12:29:17 2.3 C 31 %
1516 16-11-2019 12:39:17 2.5 C 30 %
1517 16-11-2019 12:49:17 2.6 C 32 %
1518 16-11-2019 12:59:17 2.6 C 33 %
1519 16-11-2019 13:09:17 2.5 C 35 %
1520 16-11-2019 13:19:17 2.6 C 36 %
1521 16-11-2019 13:29:17 3.2 C 36 %
1522 16-11-2019 13:39:17 3.7 C 35 %
1523 16-11-2019 13:49:17 4 C 32 %
1524 16-11-2019 13:59:17 3.9 C 32 %
1525 16-11-2019 14:09:17 3.7 C 32 %
Sensor: Nr:Datum:Temp:Feuchte:
Aussen-T/F 1526 16-11-2019 14:19:17 3.7 C 33 %
1527 16-11-2019 14:29:17 3.7 C 32 %
1528 16-11-2019 14:39:17 3.9 C 32 %
1529 16-11-2019 14:49:17 3.9 C 31 %
1530 16-11-2019 14:59:17 4 C 30 %
1531 16-11-2019 15:09:17 4.4 C 29 %
1532 16-11-2019 15:19:17 4.7 C 29 %
1533 16-11-2019 15:29:17 4.6 C 29 %
1534 16-11-2019 15:39:17 4.4 C 28 %
1535 16-11-2019 15:49:17 4.5 C 28 %
1536 16-11-2019 15:59:17 4.2 C 28 %
1537 16-11-2019 16:09:17 4 C 29 %
1538 16-11-2019 16:19:17 4.3 C 26 %
1539 16-11-2019 16:29:17 3.8 C 27 %
1540 16-11-2019 16:39:17 3.5 C 30 %
1541 16-11-2019 16:49:17 3.6 C 31 %
1542 16-11-2019 16:59:17 3.4 C 32 %
1543 16-11-2019 17:09:17 3.5 C 32 %
1544 16-11-2019 17:19:17 3.3 C 32 %
1545 16-11-2019 17:29:17 2.6 C 36 %
1546 16-11-2019 17:39:17 2.2 C 36 %
1547 16-11-2019 17:49:17 2.3 C 39 %
1548 16-11-2019 17:59:17 2.2 C 40 %
1549 16-11-2019 18:09:17 2 C 39 %
1550 16-11-2019 18:19:17 2.2 C 40 %
Sensor: Nr:Datum:Temp:Feuchte:
Aussen-T/F 1551 16-11-2019 18:29:17 2 C 40 %
1552 16-11-2019 18:39:17 1.9 C 40 %
1553 16-11-2019 18:49:17 1.7 C 40 %
1554 16-11-2019 18:59:17 1.6 C 40 %
1555 16-11-2019 19:09:17 1.4 C 40 %
1556 16-11-2019 19:19:17 1.3 C 41 %
1557 16-11-2019 19:29:17 1 C 41 %
1558 16-11-2019 19:39:17 1.1 C 42 %
1559 16-11-2019 19:49:17 0.7 C 42 %
1560 16-11-2019 19:59:17 0.5 C 42 %
1561 16-11-2019 20:09:17 0.5 C 43 %
1562 16-11-2019 20:19:17 0.6 C 43 %
1563 16-11-2019 20:29:17 0.7 C 44 %
1564 16-11-2019 20:39:17 0.7 C 44 %
1565 16-11-2019 20:49:17 0.6 C 43 %
1566 16-11-2019 20:59:17 0.6 C 43 %
1567 16-11-2019 21:09:17 1.1 C 43 %
1568 16-11-2019 21:19:17 0.3 C 43 %
1569 16-11-2019 21:29:17 0.1 C 43 %
1570 16-11-2019 21:39:17 0 C 43 %
1571 16-11-2019 21:49:17 -0.2 C 42 %
1572 16-11-2019 21:59:17 -0.3 C 43 %
1573 16-11-2019 22:09:17 0 C 43 %
1574 16-11-2019 22:19:17 -0.5 C 43 %
1575 16-11-2019 22:29:17 -0.7 C 42 %
Sensor: Nr:Datum:Temp:Feuchte:
Aussen-T/F 1576 16-11-2019 22:39:17 -0.9 C 42 %
1577 16-11-2019 22:49:17 -0.9 C 42 %
1578 16-11-2019 22:59:17 -1 C 42 %
1579 16-11-2019 23:09:17 -1.2 C 42 %
1580 16-11-2019 23:19:17 -1 C 42 %
1581 16-11-2019 23:29:17 -1.3 C 42 %
1582 16-11-2019 23:39:17 -1.3 C 42 %
1583 16-11-2019 23:49:17 -1.6 C 42 %
1584 16-11-2019 23:59:17 -1.6 C 42 %
1585 17-11-2019 00:09:17 -1.6 C 42 %
1586 17-11-2019 00:19:17 -1.3 C 43 %
1587 17-11-2019 00:29:17 -1.6 C 42 %
1588 17-11-2019 00:39:17 -1.9 C 42 %
1589 17-11-2019 00:49:17 -1.9 C 42 %
1590 17-11-2019 00:59:17 -2 C 41 %
1591 17-11-2019 01:09:17 -2.2 C 41 %
1592 17-11-2019 01:19:17 -1.4 C 42 %
1593 17-11-2019 01:29:17 -2 C 41 %
1594 17-11-2019 01:39:17 -1.7 C 42 %
1595 17-11-2019 01:49:17 -1.3 C 42 %
1596 17-11-2019 01:59:17 -1.2 C 42 %
1597 17-11-2019 02:09:17 -1 C 43 %
1598 17-11-2019 02:19:17 -1 C 43 %
1599 17-11-2019 02:29:17 -0.5 C 43 %
1600 17-11-2019 02:39:17 -0.3 C 43 %
Sensor: Nr:Datum:Temp:Feuchte:
Aussen-T/F 1601 17-11-2019 02:49:17 -0.2 C 43 %
1602 17-11-2019 02:59:17 -0.2 C 43 %
1603 17-11-2019 03:09:17 0 C 43 %
1604 17-11-2019 03:19:17 0.1 C 43 %
1605 17-11-2019 03:29:17 0.2 C 43 %
1606 17-11-2019 03:39:17 0.3 C 43 %
1607 17-11-2019 03:49:17 0.5 C 43 %
1608 17-11-2019 03:59:17 0.5 C 43 %
1609 17-11-2019 04:09:17 0.7 C 43 %
1610 17-11-2019 04:19:17 0.8 C 43 %
1611 17-11-2019 04:29:17 0.9 C 43 %
1612 17-11-2019 04:39:17 0.9 C 43 %
1613 17-11-2019 04:49:17 0.8 C 43 %
1614 17-11-2019 04:59:17 0.8 C 43 %
1615 17-11-2019 05:09:17 0.8 C 43 %
1616 17-11-2019 05:19:17 0.8 C 43 %
1617 17-11-2019 05:29:17 1 C 42 %
1618 17-11-2019 05:39:17 0.8 C 43 %
1619 17-11-2019 05:49:17 0.8 C 43 %
1620 17-11-2019 05:59:17 0.8 C 43 %
1621 17-11-2019 06:09:17 0.8 C 43 %
1622 17-11-2019 06:19:17 0.8 C 43 %
1623 17-11-2019 06:29:17 0.8 C 43 %
1624 17-11-2019 06:39:17 0.9 C 43 %
1625 17-11-2019 06:49:17 1 C 41 %
Sensor: Nr:Datum:Temp:Feuchte:
Aussen-T/F 1626 17-11-2019 06:59:17 0.9 C 43 %
1627 17-11-2019 07:09:17 1 C 41 %
1628 17-11-2019 07:19:17 1 C 41 %
1629 17-11-2019 07:29:17 1 C 41 %
1630 17-11-2019 07:39:17 1.1 C 41 %
1631 17-11-2019 07:49:17 1.1 C 41 %
1632 17-11-2019 07:59:17 1.1 C 41 %
1633 17-11-2019 08:09:17 1.2 C 41 %
1634 17-11-2019 08:19:17 1.2 C 41 %
1635 17-11-2019 08:29:17 1.2 C 41 %
1636 17-11-2019 08:39:17 1.3 C 41 %
1637 17-11-2019 08:49:17 1.4 C 41 %
1638 17-11-2019 08:59:17 1.5 C 42 %
1639 17-11-2019 09:09:17 1.5 C 42 %
1640 17-11-2019 09:19:17 1.8 C 42 %
1641 17-11-2019 09:29:17 2 C 41 %
1642 17-11-2019 09:39:17 2.1 C 41 %
1643 17-11-2019 09:49:17 2.1 C 41 %
1644 17-11-2019 09:59:17 2.3 C 41 %
1645 17-11-2019 10:09:17 2.5 C 42 %
1646 17-11-2019 10:19:17 2.6 C 42 %
1647 17-11-2019 10:29:17 2.6 C 42 %
1648 17-11-2019 10:39:17 2.7 C 41 %
1649 17-11-2019 10:49:17 2.8 C 41 %
1650 17-11-2019 10:59:17 3 C 41 %
Sensor: Nr:Datum:Temp:Feuchte:
Aussen-T/F 1651 17-11-2019 11:09:17 3.2 C 40 %
1652 17-11-2019 11:19:17 3.3 C 40 %
1653 17-11-2019 11:29:17 3.5 C 39 %
1654 17-11-2019 11:39:17 3.5 C 39 %
1655 17-11-2019 11:49:17 3.5 C 39 %
1656 17-11-2019 11:59:17 3.7 C 38 %
1657 17-11-2019 12:09:17 3.9 C 38 %
1658 17-11-2019 12:19:17 3.8 C 38 %
1659 17-11-2019 12:29:17 3.9 C 38 %
1660 17-11-2019 12:39:17 4 C 37 %
1661 17-11-2019 12:49:17 4.1 C 37 %
1662 17-11-2019 12:59:17 4.4 C 37 %
1663 17-11-2019 13:09:17 4.5 C 36 %
1664 17-11-2019 13:19:17 4.6 C 33 %
1665 17-11-2019 13:29:17 4.7 C 32 %
1666 17-11-2019 13:39:17 4.7 C 32 %
1667 17-11-2019 13:49:17 4.8 C 32 %
1668 17-11-2019 13:59:17 4.8 C 32 %
1669 17-11-2019 14:09:17 4.9 C 33 %
1670 17-11-2019 14:19:17 4.9 C 31 %
1671 17-11-2019 14:29:17 5.1 C 31 %
1672 17-11-2019 14:39:17 4.6 C 29 %
1673 17-11-2019 14:49:17 4.4 C 31 %
1674 17-11-2019 14:59:17 4.3 C 35 %
1675 17-11-2019 15:09:17 4.3 C 35 %
Sensor: Nr:Datum:Temp:Feuchte:
Aussen-T/F 1676 17-11-2019 15:19:17 4.2 C 37 %
1677 17-11-2019 15:29:17 4.1 C 37 %
1678 17-11-2019 15:39:18 4.2 C 38 %
1679 17-11-2019 15:49:17 4 C 38 %
1680 17-11-2019 15:59:17 4 C 37 %
1681 17-11-2019 16:09:17 4 C 38 %
1682 17-11-2019 16:19:17 4 C 38 %
1683 17-11-2019 16:29:17 3.8 C 40 %
1684 17-11-2019 16:39:17 3.8 C 40 %
1685 17-11-2019 16:49:17 3.8 C 39 %
1686 17-11-2019 16:59:17 3.7 C 40 %
1687 17-11-2019 17:09:17 3.7 C 40 %
1688 17-11-2019 17:19:17 3.6 C 40 %
1689 17-11-2019 17:29:17 3.6 C 40 %
1690 17-11-2019 17:39:17 3.6 C 40 %
1691 17-11-2019 17:49:17 3.6 C 41 %
1692 17-11-2019 17:59:17 3.7 C 41 %
1693 17-11-2019 18:09:17 3.8 C 41 %
1694 17-11-2019 18:19:17 3.9 C 42 %
1695 17-11-2019 18:29:17 3.9 C 42 %
1696 17-11-2019 18:39:17 3.9 C 41 %
1697 17-11-2019 18:49:17 3.9 C 41 %
1698 17-11-2019 18:59:17 3.8 C 41 %
1699 17-11-2019 19:09:17 3.8 C 40 %
1700 17-11-2019 19:19:17 3.8 C 41 %
Sensor: Nr:Datum:Temp:Feuchte:
Aussen-T/F 1701 17-11-2019 19:29:17 3.8 C 41 %
1702 17-11-2019 19:39:17 3.8 C 41 %
1703 17-11-2019 19:49:17 3.9 C 41 %
1704 17-11-2019 19:59:17 3.9 C 41 %
1705 17-11-2019 20:09:17 3.9 C 41 %
1706 17-11-2019 20:19:17 3.9 C 41 %
1707 17-11-2019 20:29:17 3.9 C 41 %
1708 17-11-2019 20:39:17 3.9 C 41 %
1709 17-11-2019 20:49:17 4 C 40 %
1710 17-11-2019 20:59:17 4 C 40 %
1711 17-11-2019 21:09:17 3.9 C 41 %
1712 17-11-2019 21:19:17 4 C 40 %
1713 17-11-2019 21:29:17 3.9 C 41 %
1714 17-11-2019 21:39:17 3.9 C 41 %
1715 17-11-2019 21:49:17 3.9 C 41 %
1716 17-11-2019 21:59:17 3.9 C 41 %
1717 17-11-2019 22:09:17 3.9 C 41 %
1718 17-11-2019 22:19:17 3.9 C 41 %
1719 17-11-2019 22:29:17 3.9 C 41 %
1720 17-11-2019 22:39:17 3.9 C 41 %
1721 17-11-2019 22:49:17 3.9 C 41 %
1722 17-11-2019 22:59:17 3.8 C 41 %
1723 17-11-2019 23:09:17 3.8 C 41 %
1724 17-11-2019 23:19:17 3.8 C 41 %
1725 17-11-2019 23:29:17 3.8 C 41 %
Sensor: Nr:Datum:Temp:Feuchte:
Aussen-T/F 1726 17-11-2019 23:39:17 3.8 C 41 %
1727 17-11-2019 23:49:17 3.7 C 41 %
1728 17-11-2019 23:59:17 3.6 C 41 %
1729 18-11-2019 00:09:17 3.6 C 40 %
1730 18-11-2019 00:19:17 3.6 C 40 %
1731 18-11-2019 00:29:17 3.5 C 40 %
1732 18-11-2019 00:39:17 3.5 C 40 %
1733 18-11-2019 00:49:17 3.4 C 40 %
1734 18-11-2019 00:59:17 3.4 C 39 %
1735 18-11-2019 01:09:17 3.4 C 39 %
1736 18-11-2019 01:19:17 3.4 C 38 %
1737 18-11-2019 01:29:17 3.4 C 38 %
1738 18-11-2019 01:39:17 3.3 C 38 %
1739 18-11-2019 01:49:17 3.4 C 39 %
1740 18-11-2019 01:59:17 3.4 C 39 %
1741 18-11-2019 02:09:17 3.4 C 40 %
1742 18-11-2019 02:19:17 3.3 C 40 %
1743 18-11-2019 02:29:17 3.4 C 40 %
1744 18-11-2019 02:39:17 3.4 C 40 %
1745 18-11-2019 02:49:17 3.4 C 40 %
1746 18-11-2019 02:59:17 3.3 C 40 %
1747 18-11-2019 03:09:17 3.3 C 40 %
1748 18-11-2019 03:19:17 3.4 C 41 %
1749 18-11-2019 03:29:17 3.4 C 41 %
1750 18-11-2019 03:39:17 3.3 C 40 %
Sensor: Nr:Datum:Temp:Feuchte:
Aussen-T/F 1751 18-11-2019 03:49:17 3.4 C 40 %
1752 18-11-2019 03:59:17 3.4 C 40 %
1753 18-11-2019 04:09:17 3.4 C 40 %
1754 18-11-2019 04:19:17 3.3 C 40 %
1755 18-11-2019 04:29:17 3.4 C 40 %
1756 18-11-2019 04:39:18 3.3 C 40 %
1757 18-11-2019 04:49:17 3.3 C 40 %
1758 18-11-2019 04:59:17 3.3 C 40 %
1759 18-11-2019 05:09:17 3.4 C 40 %
1760 18-11-2019 05:19:18 3.3 C 40 %
1761 18-11-2019 05:29:18 3.3 C 40 %
1762 18-11-2019 05:39:17 3.3 C 41 %
1763 18-11-2019 05:49:17 3.3 C 40 %
1764 18-11-2019 05:59:17 3.3 C 41 %
1765 18-11-2019 06:09:17 3.3 C 41 %
1766 18-11-2019 06:19:17 3.3 C 41 %
1767 18-11-2019 06:29:17 3.2 C 41 %
1768 18-11-2019 06:39:17 3.2 C 41 %
1769 18-11-2019 06:49:17 3.2 C 41 %
1770 18-11-2019 06:59:17 3.2 C 41 %
1771 18-11-2019 07:09:17 3.2 C 41 %
1772 18-11-2019 07:19:18 3.2 C 41 %
1773 18-11-2019 07:29:18 3.2 C 41 %
1774 18-11-2019 07:39:18 3.3 C 41 %
1775 18-11-2019 07:49:17 3.3 C 41 %
Sensor: Nr:Datum:Temp:Feuchte:
Aussen-T/F 1776 18-11-2019 07:59:17 3.3 C 41 %
1777 18-11-2019 08:09:17 3.3 C 41 %
1778 18-11-2019 08:19:17 3.3 C 41 %
1779 18-11-2019 08:29:17 3.4 C 41 %
1780 18-11-2019 08:39:18 3.4 C 41 %
1781 18-11-2019 08:49:18 3.4 C 41 %
1782 18-11-2019 08:59:18 3.4 C 41 %
1783 18-11-2019 09:09:17 3.5 C 41 %
1784 18-11-2019 09:19:17 3.6 C 41 %
1785 18-11-2019 09:29:17 3.6 C 40 %
1786 18-11-2019 09:39:17 3.7 C 40 %
1787 18-11-2019 09:49:17 3.9 C 38 %
1788 18-11-2019 09:59:17 4.1 C 37 %
1789 18-11-2019 10:09:17 4.1 C 35 %
1790 18-11-2019 10:19:31 4.2 C 35 %
1791 18-11-2019 10:29:31 4.1 C 35 %
1792 18-11-2019 10:39:17 4.1 C 35 %
1793 18-11-2019 10:49:17 4.2 C 36 %
1794 18-11-2019 10:59:17 4.1 C 35 %
1795 18-11-2019 11:09:17 4.1 C 35 %
1796 18-11-2019 11:19:17 4.2 C 35 %
1797 18-11-2019 11:29:17 4.3 C 34 %
1798 18-11-2019 11:39:17 4.4 C 34 %
1799 18-11-2019 11:49:17 4.7 C 33 %
1800 18-11-2019 11:59:17 5 C 29 %
Sensor: Nr:Datum:Temp:Feuchte:
Aussen-T/F 1801 18-11-2019 12:09:17 4.9 C 30 %
1802 18-11-2019 12:19:17 5 C 28 %
1803 18-11-2019 12:29:17 4.8 C 30 %
1804 18-11-2019 12:39:17 4.8 C 30 %
1805 18-11-2019 12:49:17 4.8 C 30 %
1806 18-11-2019 12:59:17 4.8 C 30 %
1807 18-11-2019 13:09:17 4.7 C 30 %
1808 18-11-2019 13:19:17 4.7 C 31 %
1809 18-11-2019 13:29:17 4.8 C 30 %
1810 18-11-2019 13:39:17 4.8 C 30 %
1811 18-11-2019 13:49:17 4.8 C 29 %
1812 18-11-2019 13:59:17 4.8 C 30 %
1813 18-11-2019 14:09:17 4.8 C 28 %
1814 18-11-2019 14:19:17 4.8 C 30 %
1815 18-11-2019 14:29:17 4.8 C 30 %
1816 18-11-2019 14:39:17 4.8 C 30 %
1817 18-11-2019 14:49:17 4.6 C 30 %
1818 18-11-2019 14:59:17 4.5 C 30 %
1819 18-11-2019 15:09:17 4.5 C 31 %
1820 18-11-2019 15:19:18 4.5 C 31 %
1821 18-11-2019 15:29:18 4.5 C 30 %
1822 18-11-2019 15:39:17 4.5 C 30 %
1823 18-11-2019 15:49:17 4.4 C 30 %
1824 18-11-2019 15:59:17 4.3 C 30 %
1825 18-11-2019 16:09:17 4.2 C 31 %
Sensor: Nr:Datum:Temp:Feuchte:
Aussen-T/F 1826 18-11-2019 16:19:17 4.1 C 31 %
1827 18-11-2019 16:29:17 4.1 C 30 %
1828 18-11-2019 16:39:17 4.1 C 31 %
1829 18-11-2019 16:49:17 4.1 C 32 %
1830 18-11-2019 16:59:17 4.1 C 30 %
1831 18-11-2019 17:09:17 4.1 C 30 %
1832 18-11-2019 17:19:17 4.1 C 30 %
1833 18-11-2019 17:29:17 4 C 31 %
1834 18-11-2019 17:39:17 4 C 31 %
1835 18-11-2019 17:49:17 4 C 31 %
1836 18-11-2019 17:59:17 3.9 C 33 %
1837 18-11-2019 18:09:17 3.9 C 34 %
1838 18-11-2019 18:19:17 3.8 C 34 %
1839 18-11-2019 18:29:17 3.8 C 35 %
1840 18-11-2019 18:39:17 3.7 C 34 %
1841 18-11-2019 18:49:17 3.5 C 36 %
1842 18-11-2019 18:59:17 3.5 C 35 %
1843 18-11-2019 19:09:17 3.3 C 34 %
1844 18-11-2019 19:19:17 3.2 C 34 %
1845 18-11-2019 19:29:17 3 C 36 %
1846 18-11-2019 19:39:17 2.9 C 36 %
1847 18-11-2019 19:49:17 2.7 C 36 %
1848 18-11-2019 19:59:17 2.7 C 36 %
1849 18-11-2019 20:09:17 2.4 C 36 %
1850 18-11-2019 20:19:17 2.3 C 37 %
Sensor: Nr:Datum:Temp:Feuchte:
Aussen-T/F 1851 18-11-2019 20:29:17 2.2 C 36 %
1852 18-11-2019 20:39:17 2 C 37 %
1853 18-11-2019 20:49:17 1.9 C 39 %
1854 18-11-2019 20:59:17 1.8 C 38 %
1855 18-11-2019 21:09:17 1.6 C 40 %
1856 18-11-2019 21:19:17 1.5 C 39 %
1857 18-11-2019 21:29:17 1.5 C 40 %
1858 18-11-2019 21:39:17 1.5 C 40 %
1859 18-11-2019 21:49:17 1.6 C 40 %
1860 18-11-2019 21:59:17 1.8 C 40 %
1861 18-11-2019 22:09:17 2 C 38 %
1862 18-11-2019 22:19:17 2 C 38 %
1863 18-11-2019 22:29:17 2.2 C 36 %
1864 18-11-2019 22:39:17 2.2 C 36 %
1865 18-11-2019 22:49:17 2.2 C 36 %
1866 18-11-2019 22:59:17 2.2 C 36 %
1867 18-11-2019 23:09:17 2.2 C 36 %
1868 18-11-2019 23:19:17 2.4 C 36 %
1869 18-11-2019 23:29:17 2.6 C 36 %
1870 18-11-2019 23:39:17 2.7 C 35 %
1871 18-11-2019 23:49:17 2.7 C 35 %
1872 18-11-2019 23:59:17 2.8 C 36 %
1873 19-11-2019 00:09:17 2.9 C 36 %
1874 19-11-2019 00:19:17 2.9 C 36 %
1875 19-11-2019 00:29:17 3 C 36 %
Sensor: Nr:Datum:Temp:Feuchte:
Aussen-T/F 1876 19-11-2019 00:39:17 3 C 35 %
1877 19-11-2019 00:49:18 3 C 35 %
1878 19-11-2019 00:59:18 3 C 36 %
1879 19-11-2019 01:09:17 3.2 C 36 %
1880 19-11-2019 01:19:17 3.2 C 36 %
1881 19-11-2019 01:29:17 3.2 C 36 %
1882 19-11-2019 01:39:18 3.3 C 37 %
1883 19-11-2019 01:49:18 3.4 C 36 %
1884 19-11-2019 01:59:18 3.3 C 36 %
1885 19-11-2019 02:09:18 3.3 C 36 %
1886 19-11-2019 02:19:17 3.4 C 36 %
1887 19-11-2019 02:29:17 3.3 C 36 %
1888 19-11-2019 02:39:17 3.4 C 37 %
1889 19-11-2019 02:49:17 3.3 C 37 %
1890 19-11-2019 02:59:17 3.3 C 38 %
1891 19-11-2019 03:09:17 3.3 C 40 %
1892 19-11-2019 03:19:17 3.4 C 39 %
1893 19-11-2019 03:29:17 3.4 C 39 %
1894 19-11-2019 03:39:17 3.5 C 37 %
1895 19-11-2019 03:49:17 3.5 C 37 %
1896 19-11-2019 03:59:17 3.5 C 38 %
1897 19-11-2019 04:09:17 3.6 C 37 %
1898 19-11-2019 04:19:18 3.6 C 36 %
1899 19-11-2019 04:29:18 3.5 C 36 %
1900 19-11-2019 04:39:17 3.5 C 37 %
Sensor: Nr:Datum:Temp:Feuchte:
Aussen-T/F 1901 19-11-2019 04:49:17 3.4 C 37 %
1902 19-11-2019 04:59:17 3.1 C 39 %
1903 19-11-2019 05:09:17 2.5 C 40 %
1904 19-11-2019 05:19:18 2.3 C 41 %
1905 19-11-2019 05:29:18 2 C 42 %
1906 19-11-2019 05:39:17 1.6 C 43 %
1907 19-11-2019 05:49:17 1.5 C 43 %
1908 19-11-2019 05:59:17 1.8 C 44 %
1909 19-11-2019 06:09:17 1.8 C 44 %
1910 19-11-2019 06:19:17 1.7 C 43 %
1911 19-11-2019 06:29:17 1.7 C 43 %
1912 19-11-2019 06:39:17 1.8 C 43 %
1913 19-11-2019 06:49:17 2 C 42 %
1914 19-11-2019 06:59:17 2.1 C 42 %
1915 19-11-2019 07:09:17 2.4 C 42 %
1916 19-11-2019 07:19:17 2.2 C 42 %
1917 19-11-2019 07:29:17 1.5 C 42 %
1918 19-11-2019 07:39:17 1.3 C 42 %
1919 19-11-2019 07:49:17 1.2 C 42 %
1920 19-11-2019 07:59:17 1.8 C 43 %
1921 19-11-2019 08:09:17 2.1 C 42 %
1922 19-11-2019 08:19:17 2.5 C 42 %
1923 19-11-2019 08:29:17 2.8 C 42 %
1924 19-11-2019 08:39:17 2.5 C 41 %
1925 19-11-2019 08:49:17 2.6 C 41 %
Sensor: Nr:Datum:Temp:Feuchte:
Aussen-T/F 1926 19-11-2019 08:59:17 3.2 C 41 %
1927 19-11-2019 09:09:17 3.3 C 40 %
1928 19-11-2019 09:19:17 3.3 C 39 %
1929 19-11-2019 09:29:17 3.4 C 38 %
1930 19-11-2019 09:39:17 3.3 C 35 %
1931 19-11-2019 09:49:17 3.2 C 35 %
1932 19-11-2019 09:59:17 3.1 C 35 %
1933 19-11-2019 10:09:17 3.1 C 36 %
1934 19-11-2019 10:19:17 3.2 C 36 %
1935 19-11-2019 10:29:17 3.3 C 37 %
1936 19-11-2019 10:39:17 3.2 C 38 %
1937 19-11-2019 10:49:17 3.3 C 38 %
1938 19-11-2019 10:59:17 3.4 C 38 %
1939 19-11-2019 11:09:17 3.5 C 38 %
1940 19-11-2019 11:19:17 3.5 C 38 %
1941 19-11-2019 11:29:17 4.2 C 33 %
1942 19-11-2019 11:39:17 5 C 30 %
1943 19-11-2019 11:49:17 5.5 C 23 %
1944 19-11-2019 11:59:17 5.5 C 23 %
1945 19-11-2019 12:09:17 5.5 C 23 %
1946 19-11-2019 12:19:17 6.2 C 20 %
1947 19-11-2019 12:29:17 6.3 C 20 %
1948 19-11-2019 12:39:17 5.5 C 20 %
1949 19-11-2019 12:49:17 5.6 C 20 %
1950 19-11-2019 12:59:17 5.7 C 20 %
Sensor: Nr:Datum:Temp:Feuchte:
Aussen-T/F 1951 19-11-2019 13:09:17 5.8 C 20 %
1952 19-11-2019 13:19:17 5.7 C 20 %
1953 19-11-2019 13:29:17 5.8 C 20 %
1954 19-11-2019 13:39:17 5.7 C 20 %
1955 19-11-2019 13:49:17 6 C 20 %
1956 19-11-2019 13:59:17 6.3 C 20 %
1957 19-11-2019 14:09:17 6.2 C 20 %
1958 19-11-2019 14:19:17 6.2 C 20 %
1959 19-11-2019 14:29:17 6 C 20 %
1960 19-11-2019 14:39:17 5.9 C 20 %
1961 19-11-2019 14:49:17 5.8 C 20 %
1962 19-11-2019 14:59:17 5.9 C 25 %
1963 19-11-2019 15:09:17 5.8 C 23 %
1964 19-11-2019 15:19:18 5.6 C 28 %
1965 19-11-2019 15:29:18 5.4 C 30 %
1966 19-11-2019 15:39:17 5.1 C 32 %
1967 19-11-2019 15:49:17 4.9 C 30 %
1968 19-11-2019 15:59:17 4.8 C 32 %
1969 19-11-2019 16:09:17 4.7 C 35 %
1970 19-11-2019 16:19:17 4.5 C 36 %
1971 19-11-2019 16:29:17 4.4 C 35 %
1972 19-11-2019 16:39:17 4.4 C 35 %
1973 19-11-2019 16:49:17 3.8 C 38 %
1974 19-11-2019 16:59:17 3.5 C 39 %
1975 19-11-2019 17:09:17 3.3 C 40 %
Sensor: Nr:Datum:Temp:Feuchte:
Aussen-T/F 1976 19-11-2019 17:19:17 3.2 C 41 %
1977 19-11-2019 17:29:17 2.9 C 41 %
1978 19-11-2019 17:39:17 2.8 C 42 %
1979 19-11-2019 17:49:17 2.7 C 42 %
1980 19-11-2019 17:59:17 2.7 C 42 %
1981 19-11-2019 18:09:17 2.4 C 42 %
1982 19-11-2019 18:19:17 2.2 C 42 %
1983 19-11-2019 18:29:17 2.3 C 42 %
1984 19-11-2019 18:39:17 2.5 C 42 %
1985 19-11-2019 18:49:17 2.6 C 42 %
1986 19-11-2019 18:59:17 2 C 41 %
1987 19-11-2019 19:09:17 1.4 C 41 %
1988 19-11-2019 19:19:17 1.4 C 42 %
1989 19-11-2019 19:29:17 1.5 C 42 %
1990 19-11-2019 19:39:17 1.2 C 42 %
1991 19-11-2019 19:49:17 1 C 42 %
1992 19-11-2019 19:59:17 0.6 C 43 %
1993 19-11-2019 20:09:17 0.9 C 44 %
1994 19-11-2019 20:19:17 1.5 C 43 %
1995 19-11-2019 20:29:17 1.8 C 43 %
1996 19-11-2019 20:39:17 1.9 C 43 %
1997 19-11-2019 20:49:17 1.9 C 43 %
1998 19-11-2019 20:59:17 1.9 C 43 %
1999 19-11-2019 21:09:17 1.9 C 43 %
2000 19-11-2019 21:19:17 1.9 C 43 %
Sensor: Nr:Datum:Temp:Feuchte:
Aussen-T/F 2001 19-11-2019 21:29:17 1.9 C 42 %
2002 19-11-2019 21:39:17 2 C 41 %
2003 19-11-2019 21:49:17 2 C 41 %
2004 19-11-2019 21:59:17 1.9 C 42 %
2005 19-11-2019 22:09:17 1.7 C 42 %
2006 19-11-2019 22:19:17 1.5 C 41 %
2007 19-11-2019 22:29:17 1.4 C 41 %
2008 19-11-2019 22:39:17 1.1 C 41 %
2009 19-11-2019 22:49:17 0.6 C 41 %
2010 19-11-2019 22:59:17 0.6 C 42 %
2011 19-11-2019 23:09:17 -0.1 C 42 %
2012 19-11-2019 23:19:17 -0.2 C 42 %
2013 19-11-2019 23:29:17 -0.4 C 42 %
2014 19-11-2019 23:39:17 -0.5 C 42 %
2015 19-11-2019 23:49:17 -0.5 C 42 %
2016 19-11-2019 23:59:17 -0.6 C 42 %
2017 20-11-2019 00:09:17 -0.7 C 42 %
2018 20-11-2019 00:19:17 -0.6 C 42 %
2019 20-11-2019 00:29:17 -0.5 C 42 %
2020 20-11-2019 00:39:17 -0.7 C 42 %
2021 20-11-2019 00:49:17 -0.7 C 43 %
2022 20-11-2019 00:59:17 -0.8 C 42 %
2023 20-11-2019 01:09:17 -0.8 C 42 %
2024 20-11-2019 01:19:17 -1.1 C 42 %
2025 20-11-2019 01:29:17 -1.1 C 42 %
Sensor: Nr:Datum:Temp:Feuchte:
Aussen-T/F 2026 20-11-2019 01:39:17 -0.7 C 43 %
2027 20-11-2019 01:49:17 -0.6 C 43 %
2028 20-11-2019 01:59:17 -0.5 C 43 %
2029 20-11-2019 02:09:17 -0.4 C 43 %
2030 20-11-2019 02:19:17 -0.4 C 43 %
2031 20-11-2019 02:29:17 -0.5 C 43 %
2032 20-11-2019 02:39:17 -0.5 C 43 %
2033 20-11-2019 02:49:17 -0.4 C 43 %
2034 20-11-2019 02:59:17 -0.4 C 43 %
2035 20-11-2019 03:09:17 -0.3 C 43 %
2036 20-11-2019 03:19:17 -0.3 C 43 %
2037 20-11-2019 03:29:17 -0.4 C 43 %
2038 20-11-2019 03:39:17 -0.5 C 43 %
2039 20-11-2019 03:49:17 -0.5 C 43 %
2040 20-11-2019 03:59:17 -0.7 C 43 %
2041 20-11-2019 04:09:17 -0.6 C 43 %
2042 20-11-2019 04:19:17 -0.5 C 43 %
2043 20-11-2019 04:29:17 -0.6 C 42 %
2044 20-11-2019 04:39:17 -0.5 C 42 %
2045 20-11-2019 04:49:17 -0.5 C 42 %
2046 20-11-2019 04:59:17 -0.4 C 42 %
2047 20-11-2019 05:09:17 -0.3 C 42 %
2048 20-11-2019 05:19:17 -0.3 C 42 %
2049 20-11-2019 05:29:17 -0.3 C 42 %
2050 20-11-2019 05:39:17 -0.3 C 42 %
Sensor: Nr:Datum:Temp:Feuchte:
Aussen-T/F 2051 20-11-2019 05:49:17 -0.3 C 42 %
2052 20-11-2019 05:59:17 -0.2 C 42 %
2053 20-11-2019 06:09:17 -0.1 C 42 %
2054 20-11-2019 06:19:17 -0.1 C 42 %
2055 20-11-2019 06:29:17 0 C 42 %
2056 20-11-2019 06:39:17 0 C 42 %
2057 20-11-2019 06:49:17 0 C 42 %
2058 20-11-2019 06:59:17 0.2 C 42 %
2059 20-11-2019 07:09:17 0.2 C 42 %
2060 20-11-2019 07:19:17 0.2 C 42 %
2061 20-11-2019 07:29:17 0.4 C 42 %
2062 20-11-2019 07:39:18 0.3 C 42 %
2063 20-11-2019 07:49:17 0.4 C 42 %
2064 20-11-2019 07:59:17 0.4 C 42 %
2065 20-11-2019 08:09:17 0.4 C 42 %
2066 20-11-2019 08:19:17 0.5 C 42 %
2067 20-11-2019 08:29:17 0.6 C 42 %
2068 20-11-2019 08:39:17 0.7 C 43 %
2069 20-11-2019 08:49:17 0.8 C 43 %
2070 20-11-2019 08:59:17 0.9 C 43 %
2071 20-11-2019 09:09:17 1.1 C 42 %
2072 20-11-2019 09:19:17 1 C 42 %
2073 20-11-2019 09:29:17 1.2 C 42 %
2074 20-11-2019 09:39:17 1.6 C 42 %
2075 20-11-2019 09:49:17 1.7 C 42 %
Sensor: Nr:Datum:Temp:Feuchte:
Aussen-T/F 2076 20-11-2019 09:59:17 2 C 41 %
2077 20-11-2019 10:09:17 2.1 C 41 %
2078 20-11-2019 10:19:17 2.4 C 41 %
2079 20-11-2019 10:29:17 2.9 C 41 %
2080 20-11-2019 10:39:17 3 C 39 %
2081 20-11-2019 10:49:17 2.6 C 39 %
2082 20-11-2019 10:59:17 2.5 C 38 %
2083 20-11-2019 11:09:17 2.6 C 38 %
2084 20-11-2019 11:19:17 3.3 C 38 %
2085 20-11-2019 11:29:17 3.3 C 37 %
2086 20-11-2019 11:39:17 3 C 35 %
2087 20-11-2019 11:49:17 3.7 C 35 %
2088 20-11-2019 11:59:17 4.3 C 31 %
2089 20-11-2019 12:09:17 3.9 C 30 %
2090 20-11-2019 12:19:17 4.3 C 30 %
2091 20-11-2019 12:29:17 4.5 C 30 %
2092 20-11-2019 12:39:17 4.5 C 27 %
2093 20-11-2019 12:49:17 4.6 C 26 %
2094 20-11-2019 12:59:17 4.5 C 26 %
2095 20-11-2019 13:09:17 4.7 C 25 %
2096 20-11-2019 13:19:17 4.5 C 23 %
2097 20-11-2019 13:29:17 4.4 C 23 %
2098 20-11-2019 13:39:17 4.7 C 20 %
2099 20-11-2019 13:49:17 5.1 C 20 %
2100 20-11-2019 13:59:17 4.8 C 20 %
Sensor: Nr:Datum:Temp:Feuchte:
Aussen-T/F 2101 20-11-2019 14:09:17 4.8 C 20 %
2102 20-11-2019 14:19:17 4.8 C 20 %
2103 20-11-2019 14:29:17 4.7 C 20 %
2104 20-11-2019 14:39:17 4.7 C 20 %
2105 20-11-2019 14:49:17 4.7 C 20 %
2106 20-11-2019 14:59:17 4.7 C 20 %
2107 20-11-2019 15:09:17 4.7 C 20 %
2108 20-11-2019 15:19:17 4.7 C 20 %
2109 20-11-2019 15:29:17 4.6 C 20 %
2110 20-11-2019 15:39:17 4.5 C 20 %
2111 20-11-2019 15:49:17 4.3 C 21 %
2112 20-11-2019 15:59:17 3.4 C 26 %
2113 20-11-2019 16:09:17 2.7 C 28 %
2114 20-11-2019 16:19:17 2.2 C 29 %
2115 20-11-2019 16:29:17 1.8 C 30 %
2116 20-11-2019 16:39:17 1.8 C 30 %
2117 20-11-2019 16:49:17 1.5 C 32 %
2118 20-11-2019 16:59:17 1.5 C 32 %
2119 20-11-2019 17:09:17 1.7 C 32 %
2120 20-11-2019 17:19:17 1.8 C 34 %
2121 20-11-2019 17:29:17 1.7 C 35 %
2122 20-11-2019 17:39:17 0.9 C 35 %
2123 20-11-2019 17:49:17 0.5 C 38 %
2124 20-11-2019 17:59:17 0.6 C 40 %
2125 20-11-2019 18:09:17 0.3 C 40 %
Sensor: Nr:Datum:Temp:Feuchte:
Aussen-T/F 2126 20-11-2019 18:19:17 0.2 C 41 %
2127 20-11-2019 18:29:17 0.1 C 40 %
2128 20-11-2019 18:39:17 0 C 41 %
2129 20-11-2019 18:49:17 -0.2 C 41 %
2130 20-11-2019 18:59:17 -0.7 C 41 %
2131 20-11-2019 19:09:17 -0.9 C 41 %
2132 20-11-2019 19:19:17 -1.1 C 41 %
2133 20-11-2019 19:29:17 -1.2 C 41 %
2134 20-11-2019 19:39:18 -1.2 C 42 %
2135 20-11-2019 19:49:18 -1.4 C 42 %
2136 20-11-2019 19:59:18 -1.5 C 42 %
2137 20-11-2019 20:09:18 -1.6 C 42 %
2138 20-11-2019 20:19:17 -1.7 C 42 %
2139 20-11-2019 20:29:17 -1.4 C 43 %
2140 20-11-2019 20:39:17 -1.4 C 43 %
2141 20-11-2019 20:59:17 -1.7 C 43 %
2142 20-11-2019 20:59:17 -1.8 C 43 %
2143 20-11-2019 21:09:17 -1.8 C 42 %
2144 20-11-2019 21:19:17 -2 C 42 %
2145 20-11-2019 21:29:17 -2.1 C 42 %
2146 20-11-2019 21:39:17 -2.1 C 42 %
2147 20-11-2019 21:49:17 -2.3 C 42 %
2148 20-11-2019 21:59:17 -2.1 C 42 %
2149 20-11-2019 22:09:17 -2 C 43 %
2150 20-11-2019 22:19:17 -2.1 C 42 %
Sensor: Nr:Datum:Temp:Feuchte:
Aussen-T/F 2151 20-11-2019 22:29:17 -2.2 C 42 %
2152 20-11-2019 22:39:17 -2.1 C 42 %
2153 20-11-2019 22:49:17 -1.8 C 43 %
2154 20-11-2019 22:59:17 -1.7 C 43 %
2155 20-11-2019 23:09:17 -1.6 C 43 %
2156 20-11-2019 23:19:17 -1.4 C 43 %
2157 20-11-2019 23:29:17 -1.6 C 43 %
2158 20-11-2019 23:39:17 -1.3 C 43 %
2159 20-11-2019 23:49:17 -1.1 C 43 %
2160 20-11-2019 23:59:17 -1.1 C 43 %
2161 21-11-2019 00:09:17 -1.3 C 43 %
2162 21-11-2019 00:29:17 -1.8 C 42 %
2163 21-11-2019 00:30:17 -1.9 C 42 %
2164 21-11-2019 00:39:17 -2 C 41 %
2165 21-11-2019 00:50:17 -2.1 C 41 %
2166 21-11-2019 01:00:17 -2.4 C 41 %
2167 21-11-2019 01:10:17 -2.4 C 41 %
2168 21-11-2019 01:20:17 -2.5 C 41 %
2169 21-11-2019 01:30:17 -2.3 C 41 %
2170 21-11-2019 01:40:17 -2.7 C 40 %
2171 21-11-2019 01:50:17 -2.6 C 41 %
2172 21-11-2019 02:00:17 -2.6 C 40 %
2173 21-11-2019 02:10:17 -2.7 C 40 %
2174 21-11-2019 02:20:17 -2.2 C 42 %
2175 21-11-2019 02:30:17 -2.3 C 42 %
Sensor: Nr:Datum:Temp:Feuchte:
Aussen-T/F 2176 21-11-2019 02:40:17 -1.9 C 42 %
2177 21-11-2019 02:50:17 -2.1 C 42 %
2178 21-11-2019 03:00:17 -2.2 C 41 %
2179 21-11-2019 03:10:17 -2.4 C 41 %
2180 21-11-2019 03:20:17 -2.3 C 41 %
2181 21-11-2019 03:30:17 -2.1 C 42 %
2182 21-11-2019 03:40:17 -1.8 C 42 %
2183 21-11-2019 03:50:17 -1.6 C 42 %
2184 21-11-2019 04:00:17 -1.5 C 42 %
2185 21-11-2019 04:10:17 -1.3 C 43 %
2186 21-11-2019 04:20:17 -1.1 C 43 %
2187 21-11-2019 04:30:17 -1 C 43 %
2188 21-11-2019 04:40:17 -1 C 43 %
2189 21-11-2019 04:50:17 -1 C 43 %
2190 21-11-2019 05:00:17 -1 C 43 %
2191 21-11-2019 05:10:17 -0.7 C 43 %
2192 21-11-2019 05:20:17 -0.6 C 43 %
2193 21-11-2019 05:30:17 -0.6 C 43 %
2194 21-11-2019 05:40:17 -0.5 C 43 %
2195 21-11-2019 05:50:17 -0.4 C 43 %
2196 21-11-2019 06:00:17 -0.3 C 43 %
2197 21-11-2019 06:10:17 -0.3 C 43 %
2198 21-11-2019 06:20:17 -0.3 C 43 %
2199 21-11-2019 06:30:17 -0.3 C 43 %
2200 21-11-2019 06:40:17 -0.3 C 43 %
Sensor: Nr:Datum:Temp:Feuchte:
Aussen-T/F 2201 21-11-2019 06:50:17 -0.2 C 43 %
2202 21-11-2019 07:00:17 -0.2 C 43 %
2203 21-11-2019 07:10:17 -0.2 C 43 %
2204 21-11-2019 07:20:17 -0.1 C 43 %
2205 21-11-2019 07:30:17 -0.2 C 43 %
2206 21-11-2019 07:40:17 -0.2 C 43 %
2207 21-11-2019 07:50:17 -0.1 C 43 %
2208 21-11-2019 08:00:17 -0.1 C 43 %
2209 21-11-2019 08:10:17 0 C 43 %
2210 21-11-2019 08:20:17 0 C 43 %
2211 21-11-2019 08:30:17 0.1 C 43 %
2212 21-11-2019 08:40:17 0.2 C 43 %
2213 21-11-2019 08:50:17 0.2 C 43 %
2214 21-11-2019 09:00:17 0.2 C 43 %
2215 21-11-2019 09:10:17 0.3 C 43 %
2216 21-11-2019 09:20:17 0.4 C 43 %
2217 21-11-2019 09:30:17 0.6 C 43 %
2218 21-11-2019 09:40:17 0.8 C 43 %
2219 21-11-2019 09:50:17 1.1 C 42 %
2220 21-11-2019 10:00:17 1.1 C 41 %
2221 21-11-2019 10:10:17 1.2 C 40 %
2222 21-11-2019 10:20:17 1.6 C 40 %
2223 21-11-2019 10:30:17 1.5 C 39 %
2224 21-11-2019 10:40:17 1.5 C 39 %
2225 21-11-2019 10:50:17 1.7 C 38 %
Sensor: Nr:Datum:Temp:Feuchte:
Aussen-T/F 2226 21-11-2019 11:00:17 2.1 C 37 %
2227 21-11-2019 11:10:17 2.2 C 37 %
2228 21-11-2019 11:20:17 2.3 C 34 %
2229 21-11-2019 11:30:17 2.5 C 33 %
2230 21-11-2019 11:40:17 2.7 C 33 %
2231 21-11-2019 11:50:17 3 C 32 %
2232 21-11-2019 12:00:17 2.8 C 32 %
2233 21-11-2019 12:10:17 2.5 C 33 %
2234 21-11-2019 12:20:17 2.6 C 34 %
2235 21-11-2019 12:30:18 2.8 C 35 %
2236 21-11-2019 12:40:18 3.1 C 35 %
2237 21-11-2019 12:50:18 3.3 C 34 %
2238 21-11-2019 13:00:17 3.1 C 31 %
2239 21-11-2019 13:10:17 3.7 C 34 %
2240 21-11-2019 13:20:17 3.9 C 31 %
2241 21-11-2019 13:30:17 4.1 C 32 %
2242 21-11-2019 13:40:17 4 C 31 %
2243 21-11-2019 13:50:17 3.9 C 32 %
2244 21-11-2019 14:00:17 3.9 C 31 %
2245 21-11-2019 14:10:17 3.9 C 30 %
2246 21-11-2019 14:20:17 4.2 C 31 %
2247 21-11-2019 14:30:17 4.4 C 31 %
2248 21-11-2019 14:40:17 4.4 C 30 %
2249 21-11-2019 14:50:17 4.1 C 29 %
2250 21-11-2019 15:00:17 4.1 C 30 %
Sensor: Nr:Datum:Temp:Feuchte:
Aussen-T/F 2251 21-11-2019 15:10:17 4.2 C 29 %
2252 21-11-2019 15:20:17 4.4 C 30 %
2253 21-11-2019 15:30:17 4.3 C 30 %
2254 21-11-2019 15:40:17 4.2 C 29 %
2255 21-11-2019 15:50:17 4.3 C 30 %
2256 21-11-2019 16:00:17 4.3 C 30 %
2257 21-11-2019 16:10:17 4.2 C 31 %
2258 21-11-2019 16:20:17 4 C 33 %
2259 21-11-2019 16:30:17 3.9 C 36 %
2260 21-11-2019 16:40:17 3.7 C 37 %
2261 21-11-2019 16:50:17 3.7 C 39 %
2262 21-11-2019 17:00:17 3.6 C 39 %
2263 21-11-2019 17:10:17 3.6 C 38 %
2264 21-11-2019 17:20:17 3.5 C 39 %
2265 21-11-2019 17:30:17 3.4 C 39 %
2266 21-11-2019 17:40:17 3.4 C 39 %
2267 21-11-2019 17:50:17 3.3 C 39 %
2268 21-11-2019 18:00:17 3.3 C 39 %
2269 21-11-2019 18:10:17 3.3 C 39 %
2270 21-11-2019 18:20:17 3.3 C 38 %
2271 21-11-2019 18:30:17 3.3 C 39 %
2272 21-11-2019 18:40:17 3.4 C 39 %
2273 21-11-2019 18:50:17 3.3 C 40 %
2274 21-11-2019 19:00:17 3.3 C 40 %
2275 21-11-2019 19:10:17 3.2 C 40 %
Sensor: Nr:Datum:Temp:Feuchte:
Aussen-T/F 2276 21-11-2019 19:20:17 3 C 39 %
2277 21-11-2019 19:30:17 3 C 40 %
2278 21-11-2019 19:40:17 3.1 C 41 %
2279 21-11-2019 19:50:17 2.9 C 41 %
2280 21-11-2019 20:00:17 2.5 C 40 %
2281 21-11-2019 20:10:17 2 C 40 %
2282 21-11-2019 20:20:17 1.9 C 42 %
2283 21-11-2019 20:30:17 2.1 C 42 %
2284 21-11-2019 20:40:17 1.6 C 42 %
2285 21-11-2019 20:50:17 1.5 C 42 %
2286 21-11-2019 21:00:17 1.6 C 43 %
2287 21-11-2019 21:10:17 1.6 C 43 %
2288 21-11-2019 21:20:17 1.3 C 43 %
2289 21-11-2019 21:30:17 1.3 C 43 %
2290 21-11-2019 21:40:17 1.5 C 43 %
2291 21-11-2019 21:50:17 1.2 C 43 %
2292 21-11-2019 22:00:17 1 C 42 %
2293 21-11-2019 22:10:17 0.8 C 44 %
2294 21-11-2019 22:20:17 1.2 C 43 %
2295 21-11-2019 22:30:17 0.9 C 44 %
2296 21-11-2019 22:40:17 0.8 C 44 %
2297 21-11-2019 22:50:17 1 C 43 %
2298 21-11-2019 23:00:17 1.1 C 43 %
2299 21-11-2019 23:10:17 1.4 C 43 %
2300 21-11-2019 23:20:17 1 C 43 %
Sensor: Nr:Datum:Temp:Feuchte:
Aussen-T/F 2301 21-11-2019 23:30:17 1 C 43 %
2302 21-11-2019 23:40:17 1.5 C 43 %
2303 21-11-2019 23:50:17 1.5 C 43 %
2304 22-11-2019 00:00:17 1.3 C 43 %
2305 22-11-2019 00:10:17 1.3 C 43 %
2306 22-11-2019 00:20:17 1.3 C 43 %
2307 22-11-2019 00:30:17 1.3 C 43 %
2308 22-11-2019 00:40:17 1 C 42 %
2309 22-11-2019 00:50:17 1.1 C 42 %
2310 22-11-2019 01:00:17 1 C 42 %
2311 22-11-2019 01:10:17 1.2 C 43 %
2312 22-11-2019 01:20:17 0.9 C 43 %
2313 22-11-2019 01:30:17 1 C 42 %
2314 22-11-2019 01:40:17 1 C 42 %
2315 22-11-2019 01:50:17 0.6 C 43 %
2316 22-11-2019 02:00:17 0.4 C 43 %
2317 22-11-2019 02:10:17 0 C 42 %
2318 22-11-2019 02:20:17 1 C 42 %
2319 22-11-2019 02:30:17 0.8 C 44 %
2320 22-11-2019 02:40:17 0.7 C 43 %
2321 22-11-2019 02:50:17 0.5 C 43 %
2322 22-11-2019 03:00:17 0.6 C 43 %
2323 22-11-2019 03:10:17 0.8 C 44 %
2324 22-11-2019 03:20:17 0.8 C 43 %
2325 22-11-2019 03:30:17 0.6 C 43 %
Sensor: Nr:Datum:Temp:Feuchte:
Aussen-T/F 2326 22-11-2019 03:40:17 0.7 C 43 %
2327 22-11-2019 03:50:17 1.1 C 42 %
2328 22-11-2019 04:00:17 1.1 C 42 %
2329 22-11-2019 04:10:17 1.1 C 42 %
2330 22-11-2019 04:20:17 1.2 C 42 %
2331 22-11-2019 04:30:17 1.3 C 42 %
2332 22-11-2019 04:40:17 1.3 C 42 %
2333 22-11-2019 04:50:17 1.2 C 42 %
2334 22-11-2019 05:00:18 1.4 C 42 %
2335 22-11-2019 05:10:18 1.6 C 42 %
2336 22-11-2019 05:20:17 1.9 C 42 %
2337 22-11-2019 05:30:17 2.1 C 41 %
2338 22-11-2019 05:40:17 2.2 C 41 %
2339 22-11-2019 05:50:17 2.6 C 41 %
2340 22-11-2019 06:00:18 2.5 C 41 %
2341 22-11-2019 06:10:18 2.8 C 41 %
2342 22-11-2019 06:20:18 2.6 C 41 %
2343 22-11-2019 06:30:18 2.7 C 41 %
2344 22-11-2019 06:40:18 2.9 C 41 %
2345 22-11-2019 06:50:18 3 C 41 %
2346 22-11-2019 07:00:17 3 C 41 %
2347 22-11-2019 07:10:17 3 C 41 %
2348 22-11-2019 07:20:17 3.1 C 41 %
2349 22-11-2019 07:30:17 3.2 C 41 %
2350 22-11-2019 07:40:17 3.4 C 41 %
Sensor: Nr:Datum:Temp:Feuchte:
Aussen-T/F 2351 22-11-2019 07:50:17 3.4 C 41 %
2352 22-11-2019 08:00:17 3.4 C 41 %
2353 22-11-2019 08:10:17 3.5 C 41 %
2354 22-11-2019 08:20:17 3.7 C 41 %
2355 22-11-2019 08:30:17 3.8 C 41 %
2356 22-11-2019 08:40:17 3.7 C 41 %
2357 22-11-2019 08:50:17 3.7 C 41 %
2358 22-11-2019 09:00:17 3.9 C 41 %
2359 22-11-2019 09:10:17 3.9 C 40 %
2360 22-11-2019 09:20:17 4 C 39 %
2361 22-11-2019 09:30:17 3.8 C 39 %
2362 22-11-2019 09:40:17 3.7 C 39 %
2363 22-11-2019 09:50:17 3.5 C 39 %
2364 22-11-2019 10:00:17 3.3 C 39 %
2365 22-11-2019 10:10:17 3.5 C 40 %
2366 22-11-2019 10:20:17 3.5 C 39 %
2367 22-11-2019 10:30:17 3.6 C 40 %
2368 22-11-2019 10:40:17 4.1 C 39 %
2369 22-11-2019 10:50:17 4.3 C 39 %
2370 22-11-2019 11:00:17 4.2 C 38 %
2371 22-11-2019 11:10:17 4.4 C 38 %
2372 22-11-2019 11:20:17 4.5 C 37 %
2373 22-11-2019 11:30:17 5 C 35 %
2374 22-11-2019 11:40:17 5.3 C 33 %
2375 22-11-2019 11:50:17 5.3 C 32 %
Sensor: Nr:Datum:Temp:Feuchte:
Aussen-T/F 2376 22-11-2019 12:00:17 5.6 C 32 %
2377 22-11-2019 12:10:17 5.5 C 32 %
2378 22-11-2019 12:20:17 5.6 C 32 %
2379 22-11-2019 12:30:17 5.6 C 32 %
2380 22-11-2019 12:40:17 5.8 C 32 %
2381 22-11-2019 12:50:17 5.8 C 31 %
2382 22-11-2019 13:00:17 5.7 C 30 %
2383 22-11-2019 13:10:17 5.9 C 31 %
2384 22-11-2019 13:20:17 6 C 30 %
2385 22-11-2019 13:30:17 5.7 C 29 %
2386 22-11-2019 13:40:17 5.5 C 29 %
2387 22-11-2019 13:50:17 5.5 C 29 %
2388 22-11-2019 14:00:17 5.5 C 29 %
2389 22-11-2019 14:10:17 5.7 C 29 %
2390 22-11-2019 14:20:17 5.7 C 28 %
2391 22-11-2019 14:30:17 5.9 C 28 %
2392 22-11-2019 14:40:17 5.8 C 27 %
2393 22-11-2019 14:50:17 5.8 C 28 %
2394 22-11-2019 15:00:17 5.6 C 28 %
2395 22-11-2019 15:10:17 5.6 C 28 %
2396 22-11-2019 15:20:17 5.6 C 29 %
2397 22-11-2019 15:30:17 5.5 C 28 %
2398 22-11-2019 15:40:17 5.4 C 29 %
2399 22-11-2019 15:50:17 5.4 C 29 %
2400 22-11-2019 16:00:17 5.3 C 29 %
Sensor: Nr:Datum:Temp:Feuchte:
Aussen-T/F 2401 22-11-2019 16:10:17 5.3 C 30 %
2402 22-11-2019 16:20:17 5.2 C 30 %
2403 22-11-2019 16:30:17 5.2 C 30 %
2404 22-11-2019 16:40:17 5.1 C 31 %
2405 22-11-2019 16:50:17 5 C 31 %
2406 22-11-2019 17:00:17 4.9 C 32 %
2407 22-11-2019 17:10:17 4.9 C 33 %
2408 22-11-2019 17:20:17 4.8 C 34 %
2409 22-11-2019 17:30:17 4.9 C 33 %
2410 22-11-2019 17:40:17 4.9 C 32 %
2411 22-11-2019 17:50:17 5 C 31 %
2412 22-11-2019 18:00:17 5 C 30 %
2413 22-11-2019 18:10:17 4.8 C 32 %
2414 22-11-2019 18:20:17 4.7 C 34 %
2415 22-11-2019 18:30:17 4.8 C 33 %
2416 22-11-2019 18:40:17 4.8 C 32 %
2417 22-11-2019 18:50:17 4.8 C 32 %
2418 22-11-2019 19:00:17 4.8 C 31 %
2419 22-11-2019 19:10:17 4.7 C 32 %
2420 22-11-2019 19:20:17 4.8 C 30 %
2421 22-11-2019 19:30:17 4.8 C 30 %
2422 22-11-2019 19:40:17 4.8 C 30 %
2423 22-11-2019 19:50:17 4.7 C 31 %
2424 22-11-2019 20:00:17 4.6 C 31 %
2425 22-11-2019 20:10:17 4.6 C 30 %
Sensor: Nr:Datum:Temp:Feuchte:
Aussen-T/F 2426 22-11-2019 20:20:17 4.6 C 30 %
2427 22-11-2019 20:30:17 4.5 C 30 %
2428 22-11-2019 20:40:17 4.5 C 30 %
2429 22-11-2019 20:50:17 4.3 C 30 %
2430 22-11-2019 21:00:17 4.3 C 30 %
2431 22-11-2019 21:10:17 4.4 C 31 %
2432 22-11-2019 21:20:17 4.3 C 31 %
2433 22-11-2019 21:30:17 4.3 C 31 %
2434 22-11-2019 21:40:17 4.3 C 31 %
2435 22-11-2019 21:50:17 4.3 C 30 %
2436 22-11-2019 22:00:17 4.2 C 31 %
2437 22-11-2019 22:10:17 4.2 C 31 %
2438 22-11-2019 22:20:17 4.2 C 30 %
2439 22-11-2019 22:30:17 4.2 C 30 %
2440 22-11-2019 22:40:17 4.2 C 29 %
2441 22-11-2019 22:50:17 4.1 C 30 %
2442 22-11-2019 23:00:17 4 C 30 %
2443 22-11-2019 23:10:17 4.1 C 28 %
2444 22-11-2019 23:20:17 4 C 30 %
2445 22-11-2019 23:30:17 4 C 30 %
2446 22-11-2019 23:40:17 4 C 30 %
2447 22-11-2019 23:50:17 3.9 C 31 %
2448 23-11-2019 00:00:17 4 C 29 %
2449 23-11-2019 00:10:17 4 C 29 %
2450 23-11-2019 00:20:17 4 C 29 %
Sensor: Nr:Datum:Temp:Feuchte:
Aussen-T/F 2451 23-11-2019 00:30:17 4 C 29 %
2452 23-11-2019 00:40:17 4 C 28 %
2453 23-11-2019 00:50:17 4 C 29 %
2454 23-11-2019 01:00:17 4.1 C 28 %
2455 23-11-2019 01:10:17 4.2 C 27 %
2456 23-11-2019 01:20:17 4.1 C 29 %
2457 23-11-2019 01:30:17 4 C 30 %
2458 23-11-2019 01:40:17 4.1 C 29 %
2459 23-11-2019 01:50:17 4 C 29 %
2460 23-11-2019 02:00:17 4.1 C 27 %
2461 23-11-2019 02:10:17 4.1 C 27 %
2462 23-11-2019 02:20:17 4 C 30 %
2463 23-11-2019 02:30:18 3.8 C 32 %
2464 23-11-2019 02:40:18 3.7 C 32 %
2465 23-11-2019 02:50:17 3.6 C 32 %
2466 23-11-2019 03:00:17 3.6 C 33 %
2467 23-11-2019 03:10:17 3.7 C 32 %
2468 23-11-2019 03:20:17 3.8 C 31 %
2469 23-11-2019 03:30:17 3.7 C 32 %
2470 23-11-2019 03:40:17 3.5 C 33 %
2471 23-11-2019 03:50:17 3.2 C 34 %
2472 23-11-2019 04:00:17 3.2 C 35 %
2473 23-11-2019 04:10:17 3.1 C 38 %
2474 23-11-2019 04:20:17 3.3 C 36 %
2475 23-11-2019 04:30:17 3 C 36 %
Sensor: Nr:Datum:Temp:Feuchte:
Aussen-T/F 2476 23-11-2019 04:40:17 3 C 37 %
2477 23-11-2019 04:50:17 3 C 37 %
2478 23-11-2019 05:00:17 3 C 38 %
2479 23-11-2019 05:10:17 3 C 39 %
2480 23-11-2019 05:20:17 2.7 C 39 %
2481 23-11-2019 05:30:17 2.9 C 40 %
2482 23-11-2019 05:40:17 2.8 C 40 %
2483 23-11-2019 05:50:17 2.9 C 40 %
2484 23-11-2019 06:00:17 3 C 39 %
2485 23-11-2019 06:10:17 3 C 39 %
2486 23-11-2019 06:20:17 3 C 39 %
2487 23-11-2019 06:30:17 3 C 40 %
2488 23-11-2019 06:40:17 3.1 C 40 %
2489 23-11-2019 06:50:17 3 C 40 %
2490 23-11-2019 07:00:17 3.2 C 40 %
2491 23-11-2019 07:10:17 3.2 C 39 %
2492 23-11-2019 07:20:17 3.3 C 40 %
2493 23-11-2019 07:30:17 3.2 C 39 %
2494 23-11-2019 07:40:17 3.3 C 40 %
2495 23-11-2019 07:50:17 3.2 C 40 %
2496 23-11-2019 08:00:17 3.3 C 39 %
2497 23-11-2019 08:10:17 3.3 C 40 %
2498 23-11-2019 08:20:17 3.2 C 40 %
2499 23-11-2019 08:30:17 3.3 C 40 %
2500 23-11-2019 08:40:17 3.4 C 40 %
Sensor: Nr:Datum:Temp:Feuchte:
Aussen-T/F 2501 23-11-2019 08:50:17 3.8 C 37 %
2502 23-11-2019 09:00:17 4.2 C 33 %
2503 23-11-2019 09:10:17 4.3 C 33 %
2504 23-11-2019 09:20:17 4.5 C 33 %
2505 23-11-2019 09:30:17 4.9 C 31 %
2506 23-11-2019 09:40:17 5.1 C 31 %
2507 23-11-2019 09:50:17 5.4 C 27 %
2508 23-11-2019 10:00:17 5.4 C 26 %
2509 23-11-2019 10:10:17 5.7 C 26 %
2510 23-11-2019 10:20:17 6 C 26 %
2511 23-11-2019 10:30:17 6 C 25 %
2512 23-11-2019 10:40:17 6.1 C 26 %
2513 23-11-2019 10:50:17 6.2 C 25 %
2514 23-11-2019 11:00:17 6.4 C 25 %
2515 23-11-2019 11:10:17 6.6 C 25 %
2516 23-11-2019 11:20:17 6.7 C 25 %
2517 23-11-2019 11:30:17 7.1 C 21 %
2518 23-11-2019 11:40:17 7.1 C 23 %
2519 23-11-2019 11:50:17 7 C 25 %
2520 23-11-2019 12:00:17 6.4 C 28 %
2521 23-11-2019 12:10:17 6.4 C 28 %
2522 23-11-2019 12:20:17 6.5 C 27 %
2523 23-11-2019 12:30:17 6.5 C 28 %
2524 23-11-2019 12:40:17 6.5 C 29 %
2525 23-11-2019 12:50:17 7.3 C 25 %
Sensor: Nr:Datum:Temp:Feuchte:
Aussen-T/F 2526 23-11-2019 13:00:17 7.3 C 25 %
2527 23-11-2019 13:10:17 6.7 C 28 %
2528 23-11-2019 13:20:17 6.8 C 29 %
2529 23-11-2019 13:30:17 6.6 C 29 %
2530 23-11-2019 13:40:17 6.6 C 30 %
2531 23-11-2019 13:50:17 6.6 C 30 %
2532 23-11-2019 14:00:17 6.6 C 30 %
2533 23-11-2019 14:10:17 6.8 C 30 %
2534 23-11-2019 14:20:17 7 C 29 %
2535 23-11-2019 14:30:17 7.2 C 27 %
2536 23-11-2019 14:40:17 7.1 C 28 %
2537 23-11-2019 14:50:17 7.2 C 28 %
2538 23-11-2019 15:00:17 7.7 C 26 %
2539 23-11-2019 15:10:17 8.1 C 26 %
2540 23-11-2019 15:20:17 8.4 C 23 %
2541 23-11-2019 15:30:17 8.4 C 25 %
2542 23-11-2019 15:40:17 8.1 C 25 %
2543 23-11-2019 15:50:17 7.5 C 26 %
2544 23-11-2019 16:00:17 7.5 C 26 %
2545 23-11-2019 16:10:17 7.3 C 25 %
2546 23-11-2019 16:20:17 7.3 C 25 %
2547 23-11-2019 16:30:17 6.5 C 28 %
2548 23-11-2019 16:40:17 5.9 C 31 %
2549 23-11-2019 16:50:17 5.7 C 32 %
2550 23-11-2019 17:00:17 5.7 C 32 %
Sensor: Nr:Datum:Temp:Feuchte:
Aussen-T/F 2551 23-11-2019 17:10:17 5.8 C 31 %
2552 23-11-2019 17:20:17 5.6 C 32 %
2553 23-11-2019 17:30:17 5.5 C 33 %
2554 23-11-2019 17:40:17 5.3 C 32 %
2555 23-11-2019 17:50:17 5.3 C 33 %
2556 23-11-2019 18:00:17 5.3 C 33 %
2557 23-11-2019 18:10:17 5 C 34 %
2558 23-11-2019 18:20:17 5.3 C 34 %
2559 23-11-2019 18:30:17 5.3 C 34 %
2560 23-11-2019 18:40:17 5.3 C 34 %
2561 23-11-2019 18:50:17 4.9 C 36 %
2562 23-11-2019 19:00:17 5.1 C 35 %
2563 23-11-2019 19:10:17 5 C 36 %
2564 23-11-2019 19:20:17 5 C 36 %
2565 23-11-2019 19:30:17 5 C 36 %
2566 23-11-2019 19:40:17 4.7 C 36 %
2567 23-11-2019 19:50:17 4.7 C 38 %
2568 23-11-2019 20:00:17 4.5 C 40 %
2569 23-11-2019 20:10:17 4.2 C 39 %
2570 23-11-2019 20:20:17 4.1 C 40 %
2571 23-11-2019 20:30:17 3.6 C 40 %
2572 23-11-2019 20:40:18 3.6 C 40 %
2573 23-11-2019 20:50:17 3.6 C 42 %
2574 23-11-2019 21:00:17 3.6 C 42 %
2575 23-11-2019 21:10:17 3.5 C 42 %
Sensor: Nr:Datum:Temp:Feuchte:
Aussen-T/F 2576 23-11-2019 21:20:17 3.3 C 41 %
2577 23-11-2019 21:30:17 3.2 C 41 %
2578 23-11-2019 21:40:17 3.2 C 42 %
2579 23-11-2019 21:50:17 3.2 C 42 %
2580 23-11-2019 22:00:17 3.1 C 42 %
2581 23-11-2019 22:10:17 2.8 C 42 %
2582 23-11-2019 22:20:17 2.6 C 42 %
2583 23-11-2019 22:30:17 2.7 C 42 %
2584 23-11-2019 22:40:17 2.6 C 42 %
2585 23-11-2019 22:50:17 2.6 C 42 %
2586 23-11-2019 23:00:17 2.5 C 42 %
2587 23-11-2019 23:10:17 2.2 C 42 %
2588 23-11-2019 23:20:17 2.2 C 42 %
2589 23-11-2019 23:30:17 2 C 42 %
2590 23-11-2019 23:40:17 2.1 C 42 %
2591 23-11-2019 23:50:17 2.1 C 42 %
2592 24-11-2019 00:00:17 1.9 C 43 %
2593 24-11-2019 00:10:17 1.7 C 43 %
2594 24-11-2019 00:20:17 1.7 C 43 %
2595 24-11-2019 00:30:17 1.6 C 43 %
2596 24-11-2019 00:40:17 1.4 C 42 %
2597 24-11-2019 00:50:18 1.1 C 42 %
2598 24-11-2019 01:00:18 1.2 C 43 %
2599 24-11-2019 01:10:18 1.4 C 43 %
2600 24-11-2019 01:20:17 1.3 C 43 %
Sensor: Nr:Datum:Temp:Feuchte:
Aussen-T/F 2601 24-11-2019 01:30:17 1.2 C 42 %
2602 24-11-2019 01:40:17 1.2 C 43 %
2603 24-11-2019 01:50:17 1.1 C 43 %
2604 24-11-2019 02:00:17 1.1 C 43 %
2605 24-11-2019 02:10:17 1.1 C 43 %
2606 24-11-2019 02:20:17 1.2 C 43 %
2607 24-11-2019 02:30:17 1 C 42 %
2608 24-11-2019 02:40:17 1.1 C 42 %
2609 24-11-2019 02:50:17 1.1 C 42 %
2610 24-11-2019 03:00:17 0.9 C 44 %
2611 24-11-2019 03:10:17 1.1 C 43 %
2612 24-11-2019 03:20:17 1.2 C 42 %
2613 24-11-2019 03:30:17 1 C 42 %
2614 24-11-2019 03:40:17 0.7 C 43 %
2615 24-11-2019 03:50:17 0.6 C 43 %
2616 24-11-2019 04:00:17 0.5 C 43 %
2617 24-11-2019 04:10:17 0.5 C 43 %
2618 24-11-2019 04:20:17 0.6 C 43 %
2619 24-11-2019 04:30:17 0.5 C 43 %
2620 24-11-2019 04:40:17 0.5 C 43 %
2621 24-11-2019 04:50:17 0.6 C 44 %
2622 24-11-2019 05:00:17 0.6 C 44 %
2623 24-11-2019 05:10:17 0.8 C 44 %
2624 24-11-2019 05:20:17 1 C 42 %
2625 24-11-2019 05:30:17 1.1 C 42 %
Sensor: Nr:Datum:Temp:Feuchte:
Aussen-T/F 2626 24-11-2019 05:40:17 1 C 42 %
2627 24-11-2019 05:50:17 0.6 C 43 %
2628 24-11-2019 06:00:18 0.4 C 43 %
2629 24-11-2019 06:10:18 0.5 C 43 %
2630 24-11-2019 06:20:17 0.5 C 43 %
2631 24-11-2019 06:30:17 0.5 C 43 %
2632 24-11-2019 06:40:17 0.5 C 43 %
2633 24-11-2019 06:50:17 0.3 C 43 %
2634 24-11-2019 07:00:18 0.4 C 43 %
2635 24-11-2019 07:10:18 0.1 C 43 %
2636 24-11-2019 07:20:18 0.1 C 43 %
2637 24-11-2019 07:30:17 0.1 C 43 %
2638 24-11-2019 07:40:17 -0.3 C 43 %
2639 24-11-2019 07:50:18 -0.3 C 43 %
2640 24-11-2019 08:00:18 -0.1 C 43 %
2641 24-11-2019 08:10:18 0.1 C 43 %
2642 24-11-2019 08:20:17 -0.1 C 43 %
2643 24-11-2019 08:30:17 0.3 C 43 %
2644 24-11-2019 08:40:17 0.5 C 43 %
2645 24-11-2019 08:50:17 0.5 C 43 %
2646 24-11-2019 09:00:17 0.6 C 43 %
2647 24-11-2019 09:10:17 0.7 C 43 %
2648 24-11-2019 09:20:17 0.8 C 43 %
2649 24-11-2019 09:30:17 0.8 C 43 %
2650 24-11-2019 09:40:17 1 C 42 %
Sensor: Nr:Datum:Temp:Feuchte:
Aussen-T/F 2651 24-11-2019 09:50:17 1.1 C 42 %
2652 24-11-2019 10:00:17 1.2 C 42 %
2653 24-11-2019 10:10:17 1.5 C 42 %
2654 24-11-2019 10:20:17 1.7 C 42 %
2655 24-11-2019 10:30:17 2 C 42 %
2656 24-11-2019 10:40:17 2.2 C 41 %
2657 24-11-2019 10:50:17 2.7 C 42 %
2658 24-11-2019 11:00:17 2.5 C 41 %
2659 24-11-2019 11:10:17 2.1 C 40 %
2660 24-11-2019 11:20:17 2.2 C 40 %
2661 24-11-2019 11:30:17 2.2 C 40 %
2662 24-11-2019 11:40:17 2.3 C 40 %
2663 24-11-2019 11:50:17 2.5 C 40 %
2664 24-11-2019 12:00:17 2.7 C 41 %
2665 24-11-2019 12:10:17 3 C 40 %
2666 24-11-2019 12:20:17 3.4 C 40 %
2667 24-11-2019 12:30:17 3.8 C 40 %
2668 24-11-2019 12:40:17 4 C 38 %
2669 24-11-2019 12:50:17 4.2 C 38 %
2670 24-11-2019 13:00:17 4.6 C 38 %
2671 24-11-2019 13:10:17 5.1 C 35 %
2672 24-11-2019 13:20:17 5 C 35 %
2673 24-11-2019 13:30:17 5 C 35 %
2674 24-11-2019 13:40:17 4.7 C 35 %
2675 24-11-2019 13:50:17 4.8 C 35 %
Sensor: Nr:Datum:Temp:Feuchte:
Aussen-T/F 2676 24-11-2019 14:00:17 5.1 C 35 %
2677 24-11-2019 14:10:17 5.1 C 35 %
2678 24-11-2019 14:20:17 5 C 35 %
2679 24-11-2019 14:30:17 4.8 C 37 %
2680 24-11-2019 14:40:17 4.6 C 37 %
2681 24-11-2019 14:50:17 4.6 C 39 %
2682 24-11-2019 15:00:17 4.5 C 38 %
2683 24-11-2019 15:10:17 4.7 C 40 %
2684 24-11-2019 15:20:17 4.9 C 39 %
2685 24-11-2019 15:30:17 4.8 C 38 %
2686 24-11-2019 15:40:17 4.7 C 38 %
2687 24-11-2019 15:50:17 4.6 C 38 %
2688 24-11-2019 16:00:17 4.5 C 40 %
2689 24-11-2019 16:10:17 4.2 C 39 %
2690 24-11-2019 16:20:17 3.9 C 40 %
2691 24-11-2019 16:30:17 3.7 C 41 %
2692 24-11-2019 16:40:17 3.5 C 41 %
2693 24-11-2019 16:50:17 3.2 C 41 %
2694 24-11-2019 17:00:17 3 C 41 %
2695 24-11-2019 17:10:17 2.8 C 42 %
2696 24-11-2019 17:20:17 2.7 C 42 %
2697 24-11-2019 17:30:17 2.6 C 42 %
2698 24-11-2019 17:40:17 2.4 C 42 %
2699 24-11-2019 17:50:17 2.6 C 43 %
2700 24-11-2019 18:00:17 2.5 C 42 %
Sensor: Nr:Datum:Temp:Feuchte:
Aussen-T/F 2701 24-11-2019 18:10:17 2.8 C 43 %
2702 24-11-2019 18:20:17 2.6 C 42 %
2703 24-11-2019 18:30:17 2.9 C 43 %
2704 24-11-2019 18:40:17 2.6 C 42 %
2705 24-11-2019 18:50:17 2.7 C 42 %
2706 24-11-2019 19:00:17 2.5 C 42 %
2707 24-11-2019 19:10:17 2.6 C 42 %
2708 24-11-2019 19:20:17 2.6 C 42 %
2709 24-11-2019 19:30:17 2.8 C 42 %
2710 24-11-2019 19:40:17 2.7 C 42 %
2711 24-11-2019 19:50:17 2.7 C 42 %
2712 24-11-2019 20:00:17 2.5 C 42 %
2713 24-11-2019 20:10:17 2.4 C 42 %
2714 24-11-2019 20:20:17 2.1 C 41 %
2715 24-11-2019 20:30:17 2 C 41 %
2716 24-11-2019 20:40:17 2 C 41 %
2717 24-11-2019 20:50:17 2 C 42 %
2718 24-11-2019 21:00:17 1.8 C 42 %
2719 24-11-2019 21:10:17 2.2 C 42 %
2720 24-11-2019 21:20:17 2 C 42 %
2721 24-11-2019 21:30:17 2 C 42 %
2722 24-11-2019 21:40:17 1.8 C 43 %
2723 24-11-2019 21:50:17 1.8 C 43 %
2724 24-11-2019 22:00:17 1.7 C 42 %
2725 24-11-2019 22:10:17 1.3 C 42 %
Sensor: Nr:Datum:Temp:Feuchte:
Aussen-T/F 2726 24-11-2019 22:20:17 1.2 C 42 %
2727 24-11-2019 22:30:17 1.2 C 42 %
2728 24-11-2019 22:40:17 1 C 42 %
2729 24-11-2019 22:50:17 1 C 42 %
2730 24-11-2019 23:00:17 1.2 C 42 %
2731 24-11-2019 23:10:17 1 C 42 %
2732 24-11-2019 23:20:17 1 C 42 %
2733 24-11-2019 23:30:17 0.8 C 43 %
2734 24-11-2019 23:40:17 0.8 C 43 %
2735 24-11-2019 23:50:17 0.9 C 43 %
2736 25-11-2019 00:00:18 0.8 C 43 %
2737 25-11-2019 00:10:18 0.9 C 43 %
2738 25-11-2019 00:20:17 1.2 C 42 %
2739 25-11-2019 00:30:17 1.4 C 42 %
2740 25-11-2019 00:40:17 1.5 C 42 %
2741 25-11-2019 00:50:18 1.5 C 42 %
2742 25-11-2019 01:00:18 1.5 C 42 %
2743 25-11-2019 01:10:18 1.5 C 42 %
2744 25-11-2019 01:20:17 1.6 C 42 %
2745 25-11-2019 01:30:17 1.5 C 42 %
2746 25-11-2019 01:40:17 1.4 C 42 %
2747 25-11-2019 01:50:17 1.3 C 42 %
2748 25-11-2019 02:00:17 1.3 C 42 %
2749 25-11-2019 02:10:17 1.3 C 42 %
2750 25-11-2019 02:20:17 1.2 C 42 %
Sensor: Nr:Datum:Temp:Feuchte:
Aussen-T/F 2751 25-11-2019 02:30:17 1.3 C 42 %
2752 25-11-2019 02:40:17 1.4 C 42 %
2753 25-11-2019 02:50:17 1.5 C 42 %
2754 25-11-2019 03:00:17 1.6 C 42 %
2755 25-11-2019 03:10:17 1.5 C 42 %
2756 25-11-2019 03:20:17 1.5 C 42 %
2757 25-11-2019 03:30:17 1.5 C 42 %
2758 25-11-2019 03:40:17 1.6 C 42 %
2759 25-11-2019 03:50:17 1.7 C 42 %
2760 25-11-2019 04:00:17 1.8 C 42 %
2761 25-11-2019 04:10:17 1.8 C 42 %
2762 25-11-2019 04:20:17 1.9 C 42 %
2763 25-11-2019 04:30:17 2 C 41 %
2764 25-11-2019 04:40:17 2.1 C 41 %
2765 25-11-2019 04:50:17 2.1 C 41 %
2766 25-11-2019 05:00:17 2.2 C 41 %
2767 25-11-2019 05:10:17 2.1 C 41 %
2768 25-11-2019 05:20:17 2.2 C 41 %
2769 25-11-2019 05:30:17 2.4 C 41 %
2770 25-11-2019 05:40:17 2.4 C 41 %
2771 25-11-2019 05:50:17 2.5 C 41 %
2772 25-11-2019 06:00:17 2.5 C 41 %
2773 25-11-2019 06:10:17 2.5 C 41 %
2774 25-11-2019 06:20:17 2.5 C 41 %
2775 25-11-2019 06:30:17 2.6 C 41 %
Sensor: Nr:Datum:Temp:Feuchte:
Aussen-T/F 2776 25-11-2019 06:40:17 2.6 C 41 %
2777 25-11-2019 06:50:17 2.8 C 41 %
2778 25-11-2019 07:00:17 2.8 C 41 %
2779 25-11-2019 07:10:17 2.8 C 41 %
2780 25-11-2019 07:20:17 2.8 C 41 %
2781 25-11-2019 07:30:17 2.8 C 41 %
2782 25-11-2019 07:40:17 2.8 C 41 %
2783 25-11-2019 07:50:17 2.8 C 41 %
2784 25-11-2019 08:00:17 2.9 C 41 %
2785 25-11-2019 08:10:17 3 C 41 %
2786 25-11-2019 08:20:17 3.1 C 41 %
2787 25-11-2019 08:30:18 3.2 C 41 %
2788 25-11-2019 08:40:18 3.3 C 42 %
2789 25-11-2019 08:50:17 3.4 C 42 %
2790 25-11-2019 09:00:17 3.6 C 43 %
2791 25-11-2019 09:10:17 3.6 C 43 %
2792 25-11-2019 09:20:17 3.7 C 43 %
2793 25-11-2019 09:30:17 3.6 C 43 %
2794 25-11-2019 09:40:17 3.8 C 43 %
2795 25-11-2019 09:50:17 3.8 C 42 %
2796 25-11-2019 10:00:17 4.1 C 42 %
2797 25-11-2019 10:10:17 4.5 C 43 %
2798 25-11-2019 10:20:17 4.5 C 43 %
2799 25-11-2019 10:30:17 5.1 C 40 %
2800 25-11-2019 10:40:17 5.1 C 38 %
Sensor: Nr:Datum:Temp:Feuchte:
Aussen-T/F 2801 25-11-2019 10:50:17 5.1 C 37 %
2802 25-11-2019 11:00:17 5.1 C 37 %
2803 25-11-2019 11:10:17 5.2 C 37 %
2804 25-11-2019 11:20:17 5.3 C 37 %
2805 25-11-2019 11:30:17 5.4 C 37 %
2806 25-11-2019 11:40:17 5.8 C 37 %
2807 25-11-2019 11:50:17 6.3 C 36 %
2808 25-11-2019 12:00:17 6.1 C 33 %
2809 25-11-2019 12:10:17 6.4 C 33 %
2810 25-11-2019 12:20:17 6.3 C 33 %
2811 25-11-2019 12:30:17 6.3 C 32 %
2812 25-11-2019 12:40:17 6.6 C 32 %
2813 25-11-2019 12:50:17 6.6 C 32 %
2814 25-11-2019 13:00:17 6.7 C 31 %
2815 25-11-2019 13:10:17 6.8 C 33 %
2816 25-11-2019 13:20:17 7 C 32 %
2817 25-11-2019 13:30:17 7 C 32 %
2818 25-11-2019 13:40:17 7 C 33 %
2819 25-11-2019 13:50:17 6.9 C 32 %
2820 25-11-2019 14:00:17 6.9 C 33 %
2821 25-11-2019 14:10:17 6.8 C 31 %
2822 25-11-2019 14:20:17 6.8 C 35 %
2823 25-11-2019 14:30:17 6.8 C 36 %
2824 25-11-2019 14:40:17 6.9 C 36 %
2825 25-11-2019 14:50:17 6.8 C 35 %
Sensor: Nr:Datum:Temp:Feuchte:
Aussen-T/F 2826 25-11-2019 15:00:17 6.7 C 35 %
2827 25-11-2019 15:10:17 6.7 C 35 %
2828 25-11-2019 15:20:17 6.7 C 34 %
2829 25-11-2019 15:30:17 6.7 C 35 %
2830 25-11-2019 15:40:17 6.6 C 33 %
2831 25-11-2019 15:50:17 6.5 C 34 %
2832 25-11-2019 16:00:17 6.5 C 35 %
2833 25-11-2019 16:10:17 6.4 C 36 %
2834 25-11-2019 16:20:17 6.3 C 36 %
2835 25-11-2019 16:30:17 6.2 C 37 %
2836 25-11-2019 16:40:17 6.1 C 38 %
2837 25-11-2019 16:50:17 6.1 C 38 %
2838 25-11-2019 17:00:17 6 C 38 %
2839 25-11-2019 17:10:17 6 C 38 %
2840 25-11-2019 17:20:17 5.9 C 38 %
2841 25-11-2019 17:30:17 5.9 C 39 %
2842 25-11-2019 17:40:17 5.8 C 39 %
2843 25-11-2019 17:50:17 5.9 C 39 %
2844 25-11-2019 18:00:18 5.9 C 39 %
2845 25-11-2019 18:10:18 5.9 C 40 %
2846 25-11-2019 18:20:17 5.9 C 39 %
2847 25-11-2019 18:30:17 5.9 C 40 %
2848 25-11-2019 18:40:17 5.9 C 40 %
2849 25-11-2019 18:50:17 5.8 C 40 %
2850 25-11-2019 19:00:17 5.8 C 39 %
Sensor: Nr:Datum:Temp:Feuchte:
Aussen-T/F 2851 25-11-2019 19:10:17 5.4 C 38 %
2852 25-11-2019 19:20:17 5 C 38 %
2853 25-11-2019 19:30:17 5.1 C 40 %
2854 25-11-2019 19:40:17 5 C 40 %
2855 25-11-2019 19:50:17 5.2 C 40 %
2856 25-11-2019 20:00:17 5.1 C 41 %
2857 25-11-2019 20:10:17 5.3 C 41 %
2858 25-11-2019 20:20:17 5.4 C 41 %
2859 25-11-2019 20:30:17 5.4 C 41 %
2860 25-11-2019 20:40:17 5.2 C 40 %
2861 25-11-2019 20:50:17 5.1 C 40 %
2862 25-11-2019 21:00:17 5.3 C 40 %
2863 25-11-2019 21:10:17 5.1 C 39 %
2864 25-11-2019 21:20:17 5.1 C 39 %
2865 25-11-2019 21:30:17 5.2 C 40 %
2866 25-11-2019 21:40:17 5 C 40 %
2867 25-11-2019 21:50:17 4.7 C 40 %
2868 25-11-2019 22:00:17 4.7 C 40 %
2869 25-11-2019 22:10:17 4.3 C 40 %
2870 25-11-2019 22:20:17 4.1 C 40 %
2871 25-11-2019 22:30:17 3.9 C 41 %
2872 25-11-2019 22:40:17 4.1 C 41 %
2873 25-11-2019 22:50:17 3.8 C 42 %
2874 25-11-2019 23:00:17 3.5 C 42 %
2875 25-11-2019 23:10:17 3.3 C 42 %
Sensor: Nr:Datum:Temp:Feuchte:
Aussen-T/F 2876 25-11-2019 23:20:17 3.1 C 42 %
2877 25-11-2019 23:30:17 2.7 C 42 %
2878 25-11-2019 23:40:17 3 C 42 %
2879 25-11-2019 23:50:17 2.8 C 43 %
2880 26-11-2019 00:00:17 2.3 C 42 %
2881 26-11-2019 00:10:17 2.3 C 42 %
2882 26-11-2019 00:20:17 2.5 C 42 %
2883 26-11-2019 00:30:17 2.4 C 42 %
2884 26-11-2019 00:40:17 2.5 C 43 %
2885 26-11-2019 00:50:17 3.1 C 42 %
2886 26-11-2019 01:00:17 3.3 C 42 %
2887 26-11-2019 01:10:17 3.4 C 42 %
2888 26-11-2019 01:20:17 3.4 C 42 %
2889 26-11-2019 01:30:17 3.4 C 42 %
2890 26-11-2019 01:40:17 3.5 C 42 %
2891 26-11-2019 01:50:17 3.6 C 42 %
2892 26-11-2019 02:00:17 3.8 C 42 %
2893 26-11-2019 02:10:17 3.8 C 42 %
2894 26-11-2019 02:20:17 3.8 C 41 %
2895 26-11-2019 02:30:17 3.8 C 41 %
2896 26-11-2019 02:40:17 3.9 C 41 %
2897 26-11-2019 02:50:17 4.3 C 41 %
2898 26-11-2019 03:00:17 4.5 C 41 %
2899 26-11-2019 03:10:17 4.5 C 41 %
2900 26-11-2019 03:20:17 4.5 C 41 %
Sensor: Nr:Datum:Temp:Feuchte:
Aussen-T/F 2901 26-11-2019 03:30:17 4.1 C 40 %
2902 26-11-2019 03:40:17 4.4 C 40 %
2903 26-11-2019 03:50:17 4.6 C 41 %
2904 26-11-2019 04:00:17 4.8 C 41 %
2905 26-11-2019 04:10:17 5.1 C 40 %
2906 26-11-2019 04:20:17 5.2 C 40 %
2907 26-11-2019 04:30:18 5.2 C 40 %
2908 26-11-2019 04:40:18 5.4 C 40 %
2909 26-11-2019 04:50:17 5.6 C 40 %
2910 26-11-2019 05:00:18 5.7 C 40 %
2911 26-11-2019 05:10:18 5.7 C 40 %
2912 26-11-2019 05:20:17 5.8 C 40 %
2913 26-11-2019 05:30:17 5.8 C 40 %
2914 26-11-2019 05:40:17 5.8 C 40 %
2915 26-11-2019 05:50:17 5.9 C 40 %
2916 26-11-2019 06:00:17 5.9 C 40 %
2917 26-11-2019 06:10:17 5.9 C 40 %
2918 26-11-2019 06:20:17 6 C 39 %
2919 26-11-2019 06:30:17 6.2 C 40 %
2920 26-11-2019 06:40:17 6.2 C 39 %
2921 26-11-2019 06:50:17 6.2 C 39 %
2922 26-11-2019 07:00:17 6.5 C 40 %
2923 26-11-2019 07:10:17 6.5 C 40 %
2924 26-11-2019 07:20:17 6.6 C 39 %
2925 26-11-2019 07:30:17 6.6 C 39 %
Sensor: Nr:Datum:Temp:Feuchte:
Aussen-T/F 2926 26-11-2019 07:40:17 6.6 C 39 %
2927 26-11-2019 07:50:17 6.7 C 39 %
2928 26-11-2019 08:00:17 6.8 C 39 %
2929 26-11-2019 08:10:17 6.9 C 39 %
2930 26-11-2019 08:20:17 6.8 C 38 %
2931 26-11-2019 08:30:17 6.8 C 38 %
2932 26-11-2019 08:40:17 6.7 C 38 %
2933 26-11-2019 08:50:17 6.8 C 38 %
2934 26-11-2019 09:00:17 7 C 37 %
2935 26-11-2019 09:10:17 7.4 C 38 %
2936 26-11-2019 09:20:17 7.6 C 37 %
2937 26-11-2019 09:30:17 7.9 C 36 %
2938 26-11-2019 09:40:17 8.3 C 33 %
2939 26-11-2019 09:50:17 8.5 C 31 %
2940 26-11-2019 10:00:17 8.8 C 32 %
2941 26-11-2019 10:10:17 9.1 C 32 %
2942 26-11-2019 10:20:17 9.4 C 32 %
2943 26-11-2019 10:30:17 9.6 C 32 %
2944 26-11-2019 10:40:17 9.7 C 31 %
2945 26-11-2019 10:50:17 9.9 C 31 %
2946 26-11-2019 11:00:17 10.3 C 29 %
2947 26-11-2019 11:10:17 10.5 C 29 %
2948 26-11-2019 11:20:17 10.6 C 26 %
2949 26-11-2019 11:30:17 10.7 C 26 %
2950 26-11-2019 11:40:17 10.6 C 26 %
Sensor: Nr:Datum:Temp:Feuchte:
Aussen-T/F 2951 26-11-2019 11:50:17 10.5 C 26 %
2952 26-11-2019 12:00:17 10.6 C 27 %
2953 26-11-2019 12:10:17 10.6 C 28 %
2954 26-11-2019 12:20:17 10.4 C 26 %
2955 26-11-2019 12:30:17 10.4 C 27 %
2956 26-11-2019 12:40:17 10.8 C 27 %
2957 26-11-2019 12:50:17 10.7 C 26 %
2958 26-11-2019 13:00:17 10.8 C 27 %
2959 26-11-2019 13:10:17 10.8 C 27 %
2960 26-11-2019 13:20:17 11 C 26 %
2961 26-11-2019 13:30:17 10.8 C 26 %
2962 26-11-2019 13:40:17 10.6 C 26 %
2963 26-11-2019 13:50:17 10.5 C 27 %
2964 26-11-2019 14:00:17 10.2 C 30 %
2965 26-11-2019 14:10:17 10.2 C 30 %
2966 26-11-2019 14:20:17 10.5 C 30 %
2967 26-11-2019 14:30:17 10.2 C 28 %
2968 26-11-2019 14:40:17 10.6 C 28 %
2969 26-11-2019 14:50:17 10.6 C 28 %
2970 26-11-2019 15:00:17 10.7 C 27 %
2971 26-11-2019 15:10:17 10.9 C 26 %
2972 26-11-2019 15:20:17 11.1 C 26 %
2973 26-11-2019 15:30:17 11.1 C 26 %
2974 26-11-2019 15:40:17 10.6 C 27 %
2975 26-11-2019 15:50:17 10.5 C 28 %
Sensor: Nr:Datum:Temp:Feuchte:
Aussen-T/F 2976 26-11-2019 16:00:17 10.1 C 30 %
2977 26-11-2019 16:10:17 10 C 30 %
2978 26-11-2019 16:20:17 9.9 C 31 %
2979 26-11-2019 16:30:17 10 C 30 %
2980 26-11-2019 16:40:17 10 C 29 %
2981 26-11-2019 16:50:17 9.7 C 30 %
2982 26-11-2019 17:00:17 9.6 C 30 %
2983 26-11-2019 17:10:17 9.4 C 31 %
2984 26-11-2019 17:20:17 9.3 C 31 %
2985 26-11-2019 17:30:17 9.2 C 31 %
2986 26-11-2019 17:40:17 9.1 C 31 %
2987 26-11-2019 17:50:17 8.9 C 32 %
2988 26-11-2019 18:00:17 8.8 C 34 %
2989 26-11-2019 18:10:17 8.9 C 36 %
2990 26-11-2019 18:20:17 8.9 C 37 %
2991 26-11-2019 18:30:17 9 C 35 %
2992 26-11-2019 18:40:17 8.9 C 35 %
2993 26-11-2019 18:50:17 9.1 C 34 %
2994 26-11-2019 19:00:17 9.7 C 31 %
2995 26-11-2019 19:10:17 9.5 C 31 %
2996 26-11-2019 19:20:17 9.6 C 30 %
2997 26-11-2019 19:30:17 9.6 C 30 %
2998 26-11-2019 19:40:17 9.7 C 30 %
2999 26-11-2019 19:50:17 9.5 C 30 %
3000 26-11-2019 20:00:17 9.5 C 30 %
Sensor: Nr:Datum:Temp:Feuchte:
Aussen-T/F 3001 26-11-2019 20:10:17 9.2 C 31 %
3002 26-11-2019 20:20:17 8.9 C 32 %
3003 26-11-2019 20:30:17 8.4 C 35 %
3004 26-11-2019 20:40:17 8.2 C 35 %
3005 26-11-2019 20:50:17 8 C 37 %
3006 26-11-2019 21:00:17 7.9 C 38 %
3007 26-11-2019 21:10:17 8.3 C 39 %
3008 26-11-2019 21:20:17 8.5 C 37 %
3009 26-11-2019 21:30:17 8.7 C 36 %
3010 26-11-2019 21:40:17 8.8 C 35 %
3011 26-11-2019 21:50:17 8.8 C 35 %
3012 26-11-2019 22:00:17 8.9 C 35 %
3013 26-11-2019 22:10:17 8.8 C 34 %
3014 26-11-2019 22:20:17 8.6 C 34 %
3015 26-11-2019 22:30:17 8.4 C 35 %
3016 26-11-2019 22:40:17 8.1 C 35 %
3017 26-11-2019 22:50:17 7.8 C 36 %
3018 26-11-2019 23:00:17 7.9 C 39 %
3019 26-11-2019 23:10:17 7.9 C 39 %
3020 26-11-2019 23:20:17 8 C 38 %
3021 26-11-2019 23:30:17 7.8 C 38 %
3022 26-11-2019 23:40:17 7.7 C 38 %
3023 26-11-2019 23:50:17 7.8 C 39 %
3024 27-11-2019 00:00:17 7.6 C 39 %
3025 27-11-2019 00:10:17 7.5 C 39 %
Sensor: Nr:Datum:Temp:Feuchte:
Aussen-T/F 3026 27-11-2019 00:20:17 7.6 C 40 %
3027 27-11-2019 00:30:17 7.6 C 39 %
3028 27-11-2019 00:40:17 7.9 C 40 %
3029 27-11-2019 00:50:17 7.7 C 39 %
3030 27-11-2019 01:00:17 7.4 C 39 %
3031 27-11-2019 01:10:17 7.6 C 40 %
3032 27-11-2019 01:20:17 7.6 C 40 %
3033 27-11-2019 01:30:17 7.8 C 40 %
3034 27-11-2019 01:40:17 7.8 C 40 %
3035 27-11-2019 01:50:17 8 C 39 %
3036 27-11-2019 02:00:17 8.1 C 39 %
3037 27-11-2019 02:10:17 8.1 C 38 %
3038 27-11-2019 02:20:17 8.1 C 38 %
3039 27-11-2019 02:30:17 8 C 39 %
3040 27-11-2019 02:40:17 7.8 C 40 %
3041 27-11-2019 02:50:17 7.7 C 40 %
3042 27-11-2019 03:00:17 7.8 C 40 %
3043 27-11-2019 03:10:17 7.6 C 41 %
3044 27-11-2019 03:20:17 7.5 C 40 %
3045 27-11-2019 03:30:17 7.2 C 40 %
3046 27-11-2019 03:40:17 7.1 C 40 %
3047 27-11-2019 03:50:17 7 C 40 %
3048 27-11-2019 04:00:17 7.1 C 40 %
3049 27-11-2019 04:10:17 7.3 C 40 %
3050 27-11-2019 04:20:17 7.5 C 40 %
Sensor: Nr:Datum:Temp:Feuchte:
Aussen-T/F 3051 27-11-2019 04:30:17 7.6 C 40 %
3052 27-11-2019 04:40:17 7.6 C 40 %
3053 27-11-2019 04:50:17 7.4 C 39 %
3054 27-11-2019 05:00:17 7.1 C 38 %
3055 27-11-2019 05:10:17 7.4 C 39 %
3056 27-11-2019 05:20:17 7.8 C 37 %
3057 27-11-2019 05:30:17 7.7 C 37 %
3058 27-11-2019 05:40:17 8 C 35 %
3059 27-11-2019 05:50:17 8 C 35 %
3060 27-11-2019 06:00:18 8 C 34 %
3061 27-11-2019 06:10:18 7.8 C 35 %
3062 27-11-2019 06:20:17 7.8 C 36 %
3063 27-11-2019 06:30:17 7.6 C 37 %
3064 27-11-2019 06:40:17 7.7 C 39 %
3065 27-11-2019 06:50:17 7.6 C 39 %
3066 27-11-2019 07:00:17 7.8 C 37 %
3067 27-11-2019 07:10:17 7.8 C 35 %
3068 27-11-2019 07:20:17 7.9 C 35 %
3069 27-11-2019 07:30:17 8.1 C 34 %
3070 27-11-2019 07:40:17 8 C 32 %
3071 27-11-2019 07:50:17 8 C 34 %
3072 27-11-2019 08:00:17 8.2 C 33 %
3073 27-11-2019 08:10:17 8.2 C 33 %
3074 27-11-2019 08:20:17 8.3 C 34 %
3075 27-11-2019 08:30:17 8.4 C 33 %
Sensor: Nr:Datum:Temp:Feuchte:
Aussen-T/F 3076 27-11-2019 08:40:17 8.4 C 33 %
3077 27-11-2019 08:50:17 8.4 C 35 %
3078 27-11-2019 09:00:17 8.6 C 35 %
3079 27-11-2019 09:10:17 8.6 C 36 %
3080 27-11-2019 09:20:17 8.8 C 36 %
3081 27-11-2019 09:30:17 9.1 C 33 %
3082 27-11-2019 09:40:17 9 C 34 %
3083 27-11-2019 09:50:17 9 C 34 %
3084 27-11-2019 10:00:17 9.1 C 35 %
3085 27-11-2019 10:10:17 9.2 C 35 %
3086 27-11-2019 10:20:17 9.3 C 35 %
3087 27-11-2019 10:30:17 9.7 C 31 %
3088 27-11-2019 10:40:17 10 C 29 %
3089 27-11-2019 10:50:17 10.4 C 27 %
3090 27-11-2019 11:00:17 11 C 25 %
3091 27-11-2019 11:10:17 11.3 C 24 %
3092 27-11-2019 11:20:17 11.6 C 22 %
3093 27-11-2019 11:30:17 11.7 C 22 %
3094 27-11-2019 11:40:17 12.1 C 20 %
3095 27-11-2019 11:50:17 12.4 C 20 %
3096 27-11-2019 12:00:17 12.7 C 20 %
3097 27-11-2019 12:10:17 12.7 C 20 %
3098 27-11-2019 12:20:18 12.7 C 20 %
3099 27-11-2019 12:30:17 12.7 C 20 %
3100 27-11-2019 12:40:17 12.8 C 20 %
Sensor: Nr:Datum:Temp:Feuchte:
Aussen-T/F 3101 27-11-2019 12:50:17 12.8 C 20 %
3102 27-11-2019 13:00:17 12.7 C 20 %
3103 27-11-2019 13:10:17 12.8 C 20 %
3104 27-11-2019 13:20:17 12.8 C 20 %
3105 27-11-2019 13:30:17 12.6 C 20 %
3106 27-11-2019 13:40:17 12.7 C 20 %
3107 27-11-2019 13:50:17 12.9 C 20 %
3108 27-11-2019 14:00:17 13.1 C 20 %
3109 27-11-2019 14:10:17 13 C 20 %
3110 27-11-2019 14:20:17 12.9 C 20 %
3111 27-11-2019 14:30:17 12.9 C 20 %
3112 27-11-2019 14:40:17 12.9 C 20 %
3113 27-11-2019 14:50:17 12.9 C 20 %
3114 27-11-2019 15:00:17 12.7 C 20 %
3115 27-11-2019 15:10:17 12.8 C 20 %
3116 27-11-2019 15:20:17 12.8 C 20 %
3117 27-11-2019 15:30:17 12.8 C 20 %
3118 27-11-2019 15:40:17 12.5 C 20 %
3119 27-11-2019 15:50:17 12.2 C 20 %
3120 27-11-2019 16:00:17 11.5 C 20 %
3121 27-11-2019 16:10:17 11.1 C 20 %
3122 27-11-2019 16:20:17 10.8 C 25 %
3123 27-11-2019 16:30:17 10.3 C 26 %
3124 27-11-2019 16:40:17 9.9 C 29 %
3125 27-11-2019 16:50:18 9.7 C 30 %
Sensor: Nr:Datum:Temp:Feuchte:
Aussen-T/F 3126 27-11-2019 17:00:17 9.5 C 31 %
3127 27-11-2019 17:10:17 9.8 C 31 %
3128 27-11-2019 17:20:17 9.8 C 31 %
3129 27-11-2019 17:30:17 9.8 C 31 %
3130 27-11-2019 17:40:17 9.7 C 33 %
3131 27-11-2019 17:50:17 9.6 C 33 %
3132 27-11-2019 18:00:17 9.7 C 32 %
3133 27-11-2019 18:10:17 9.7 C 32 %
3134 27-11-2019 18:20:17 9.9 C 31 %
3135 27-11-2019 18:30:17 9.9 C 31 %
3136 27-11-2019 18:40:17 9.8 C 32 %
3137 27-11-2019 18:50:17 9.7 C 34 %
3138 27-11-2019 19:00:17 9.7 C 36 %
3139 27-11-2019 19:10:17 9.8 C 34 %
3140 27-11-2019 19:20:17 9.7 C 33 %
3141 27-11-2019 19:30:17 10 C 31 %
3142 27-11-2019 19:40:17 10 C 31 %
3143 27-11-2019 19:50:17 10.4 C 28 %
3144 27-11-2019 20:00:17 10.8 C 26 %
3145 27-11-2019 20:10:17 10.9 C 26 %
3146 27-11-2019 20:20:17 11 C 25 %
3147 27-11-2019 20:30:17 10.6 C 26 %
3148 27-11-2019 20:40:17 9.9 C 30 %
3149 27-11-2019 20:50:17 9.7 C 31 %
3150 27-11-2019 21:00:17 9.8 C 33 %
Sensor: Nr:Datum:Temp:Feuchte:
Aussen-T/F 3151 27-11-2019 21:10:17 9.8 C 32 %
3152 27-11-2019 21:20:17 9.6 C 33 %
3153 27-11-2019 21:30:17 9.8 C 32 %
3154 27-11-2019 21:40:17 10.1 C 31 %
3155 27-11-2019 21:50:17 10.2 C 29 %
3156 27-11-2019 22:00:17 10.3 C 28 %
3157 27-11-2019 22:10:17 10.6 C 27 %
3158 27-11-2019 22:20:17 10.9 C 26 %
3159 27-11-2019 22:30:17 10.9 C 26 %
3160 27-11-2019 22:40:17 10.8 C 25 %
3161 27-11-2019 22:50:17 10.7 C 25 %
3162 27-11-2019 23:00:17 11.1 C 24 %
3163 27-11-2019 23:10:17 11.3 C 23 %
3164 27-11-2019 23:20:17 11.1 C 23 %
3165 27-11-2019 23:30:17 11.5 C 21 %
3166 27-11-2019 23:40:18 11.5 C 21 %
3167 27-11-2019 23:50:17 11.2 C 21 %
3168 28-11-2019 00:00:18 11.2 C 21 %
3169 28-11-2019 00:10:18 11.3 C 20 %
3170 28-11-2019 00:20:17 11.2 C 20 %
3171 28-11-2019 00:30:17 11.2 C 20 %
3172 28-11-2019 00:40:17 11.5 C 20 %
3173 28-11-2019 00:50:17 11.3 C 20 %
3174 28-11-2019 01:00:17 11.4 C 20 %
3175 28-11-2019 01:10:17 11.4 C 20 %
Sensor: Nr:Datum:Temp:Feuchte:
Aussen-T/F 3176 28-11-2019 01:20:17 11.4 C 20 %
3177 28-11-2019 01:30:17 11.4 C 20 %
3178 28-11-2019 01:40:17 11.1 C 20 %
3179 28-11-2019 01:50:17 11.1 C 20 %
3180 28-11-2019 02:00:18 10.8 C 20 %
3181 28-11-2019 02:10:18 10.5 C 20 %
3182 28-11-2019 02:20:17 10.7 C 20 %
3183 28-11-2019 02:30:17 11 C 20 %
3184 28-11-2019 02:40:17 10.5 C 21 %
3185 28-11-2019 02:50:17 10.8 C 20 %
3186 28-11-2019 03:00:17 10.9 C 20 %
3187 28-11-2019 03:10:17 10.3 C 20 %
3188 28-11-2019 03:20:18 10.8 C 20 %
3189 28-11-2019 03:30:18 10.6 C 20 %
3190 28-11-2019 03:40:18 10.9 C 20 %
3191 28-11-2019 03:50:18 10.9 C 20 %
3192 28-11-2019 04:00:18 10.7 C 20 %
3193 28-11-2019 04:10:18 10.6 C 20 %
3194 28-11-2019 04:20:17 10.6 C 20 %
3195 28-11-2019 04:30:17 10.6 C 20 %
3196 28-11-2019 04:40:17 10.5 C 20 %
3197 28-11-2019 04:50:17 10.3 C 20 %
3198 28-11-2019 05:00:17 10.5 C 20 %
3199 28-11-2019 05:10:17 10.2 C 20 %
3200 28-11-2019 05:20:17 10.1 C 20 %
Sensor: Nr:Datum:Temp:Feuchte:
Aussen-T/F 3201 28-11-2019 05:30:17 10.4 C 20 %
3202 28-11-2019 05:40:17 10.1 C 20 %
3203 28-11-2019 05:50:17 10.2 C 20 %
3204 28-11-2019 06:00:17 9.9 C 20 %
3205 28-11-2019 06:10:17 10.1 C 20 %
3206 28-11-2019 06:20:17 10.2 C 20 %
3207 28-11-2019 06:30:17 10.5 C 20 %
3208 28-11-2019 06:40:17 10.6 C 20 %
3209 28-11-2019 06:50:17 10.5 C 20 %
3210 28-11-2019 07:00:17 10.4 C 20 %
3211 28-11-2019 07:10:17 10 C 20 %
3212 28-11-2019 07:20:17 10 C 20 %
3213 28-11-2019 07:30:17 10 C 20 %
3214 28-11-2019 07:40:17 10.2 C 20 %
3215 28-11-2019 07:50:17 10.3 C 20 %
3216 28-11-2019 08:00:17 10.4 C 20 %
3217 28-11-2019 08:10:17 10.2 C 20 %
3218 28-11-2019 08:20:17 10.2 C 20 %
3219 28-11-2019 08:30:17 10.1 C 20 %
3220 28-11-2019 08:40:17 10.1 C 20 %
3221 28-11-2019 08:50:17 10.1 C 20 %
3222 28-11-2019 09:00:17 10.3 C 20 %
3223 28-11-2019 09:10:17 10.7 C 20 %
3224 28-11-2019 09:20:17 11 C 20 %
3225 28-11-2019 09:30:17 11 C 20 %
Sensor: Nr:Datum:Temp:Feuchte:
Aussen-T/F 3226 28-11-2019 09:40:17 11.1 C 20 %
3227 28-11-2019 09:50:17 11.1 C 20 %
3228 28-11-2019 10:00:17 11.3 C 20 %
3229 28-11-2019 10:10:17 11.3 C 20 %
3230 28-11-2019 10:20:17 11.5 C 20 %
3231 28-11-2019 10:30:17 11.6 C 20 %
3232 28-11-2019 10:40:17 11.7 C 20 %
3233 28-11-2019 10:50:17 11.7 C 20 %
3234 28-11-2019 11:00:17 11.7 C 20 %
3235 28-11-2019 11:10:17 11.8 C 20 %
3236 28-11-2019 11:20:17 11.9 C 20 %
3237 28-11-2019 11:30:17 11.9 C 20 %
3238 28-11-2019 11:40:17 12.2 C 20 %
3239 28-11-2019 11:50:17 11.9 C 20 %
3240 28-11-2019 12:00:17 11.6 C 20 %
3241 28-11-2019 12:10:17 11.5 C 20 %
3242 28-11-2019 12:20:17 11.1 C 20 %
3243 28-11-2019 12:30:17 11.1 C 20 %
3244 28-11-2019 12:40:17 10.9 C 20 %
3245 28-11-2019 12:50:17 11.2 C 20 %
3246 28-11-2019 13:00:17 11.2 C 20 %
3247 28-11-2019 13:10:17 11.7 C 20 %
3248 28-11-2019 13:20:17 11.8 C 20 %
3249 28-11-2019 13:30:17 12.1 C 20 %
3250 28-11-2019 13:40:17 11.4 C 20 %
Sensor: Nr:Datum:Temp:Feuchte:
Aussen-T/F 3251 28-11-2019 13:50:17 11.4 C 20 %
3252 28-11-2019 14:00:17 11.3 C 20 %
3253 28-11-2019 14:10:17 11.4 C 20 %
3254 28-11-2019 14:20:17 11.2 C 20 %
3255 28-11-2019 14:30:17 11.1 C 20 %
3256 28-11-2019 14:40:17 11.2 C 20 %
3257 28-11-2019 14:50:17 11.2 C 20 %
3258 28-11-2019 15:00:17 11.2 C 20 %
3259 28-11-2019 15:10:17 11.1 C 20 %
3260 28-11-2019 15:20:17 11 C 20 %
3261 28-11-2019 15:30:17 10.2 C 23 %
3262 28-11-2019 15:40:17 10.2 C 21 %
3263 28-11-2019 15:50:17 10.3 C 21 %
3264 28-11-2019 16:00:17 10.5 C 21 %
3265 28-11-2019 16:10:17 10.3 C 22 %
3266 28-11-2019 16:20:17 10.5 C 21 %
3267 28-11-2019 16:30:17 10.6 C 21 %
3268 28-11-2019 16:40:17 10.4 C 21 %
3269 28-11-2019 16:50:17 10.4 C 21 %
3270 28-11-2019 17:00:17 10.3 C 22 %
3271 28-11-2019 17:10:17 9.7 C 27 %
3272 28-11-2019 17:20:17 9.5 C 29 %
3273 28-11-2019 17:30:17 9.4 C 30 %
3274 28-11-2019 17:40:17 9.3 C 30 %
3275 28-11-2019 17:50:17 9.6 C 28 %
Sensor: Nr:Datum:Temp:Feuchte:
Aussen-T/F 3276 28-11-2019 18:00:17 9.8 C 27 %
3277 28-11-2019 18:10:17 10.2 C 25 %
3278 28-11-2019 18:20:17 10.3 C 25 %
3279 28-11-2019 18:30:17 10.2 C 25 %
3280 28-11-2019 18:40:17 10.2 C 25 %
3281 28-11-2019 18:50:17 10.2 C 25 %
3282 28-11-2019 19:00:17 10.1 C 25 %
3283 28-11-2019 19:10:17 9.8 C 26 %
3284 28-11-2019 19:20:17 9.8 C 26 %
3285 28-11-2019 19:30:17 9.8 C 26 %
3286 28-11-2019 19:40:17 9.9 C 26 %
3287 28-11-2019 19:50:17 10.1 C 25 %
3288 28-11-2019 20:00:17 10.1 C 26 %
3289 28-11-2019 20:10:17 9.8 C 26 %
3290 28-11-2019 20:20:17 9.8 C 26 %
3291 28-11-2019 20:30:17 9.8 C 27 %
3292 28-11-2019 20:40:17 10.1 C 26 %
3293 28-11-2019 20:50:17 10 C 25 %
3294 28-11-2019 21:00:17 10.1 C 25 %
3295 28-11-2019 21:10:17 9.7 C 27 %
3296 28-11-2019 21:20:17 9.9 C 27 %
3297 28-11-2019 21:30:17 10.1 C 26 %
3298 28-11-2019 21:40:17 10 C 26 %
3299 28-11-2019 21:50:17 10 C 25 %
3300 28-11-2019 22:00:17 9.6 C 27 %
Sensor: Nr:Datum:Temp:Feuchte:
Aussen-T/F 3301 28-11-2019 22:10:17 9.6 C 28 %
3302 28-11-2019 22:20:17 9.6 C 28 %
3303 28-11-2019 22:30:17 9.5 C 28 %
3304 28-11-2019 22:40:17 9.6 C 28 %
3305 28-11-2019 22:50:17 9.5 C 28 %
3306 28-11-2019 23:00:17 9.5 C 28 %
3307 28-11-2019 23:10:17 9.5 C 29 %
3308 28-11-2019 23:20:17 9.6 C 28 %
3309 28-11-2019 23:30:17 9.2 C 30 %
3310 28-11-2019 23:40:17 9.1 C 32 %
3311 28-11-2019 23:50:17 8.9 C 35 %
3312 29-11-2019 00:00:17 8.9 C 34 %
3313 29-11-2019 00:10:17 8.7 C 36 %
3314 29-11-2019 00:20:17 8.8 C 35 %
3315 29-11-2019 00:30:17 8.7 C 36 %
3316 29-11-2019 00:40:17 8.7 C 35 %
3317 29-11-2019 00:50:17 8.6 C 35 %
3318 29-11-2019 01:00:17 8.6 C 36 %
3319 29-11-2019 01:10:17 8.5 C 37 %
3320 29-11-2019 01:20:17 8.3 C 37 %
3321 29-11-2019 01:30:17 8.3 C 36 %
3322 29-11-2019 01:40:17 8.3 C 36 %
3323 29-11-2019 01:50:17 8.1 C 39 %
3324 29-11-2019 02:00:17 8.1 C 40 %
3325 29-11-2019 02:10:17 8.1 C 40 %
Sensor: Nr:Datum:Temp:Feuchte:
Aussen-T/F 3326 29-11-2019 02:20:17 8.1 C 40 %
3327 29-11-2019 02:30:17 8.1 C 40 %
3328 29-11-2019 02:40:17 8.1 C 40 %
3329 29-11-2019 02:50:17 8 C 40 %
3330 29-11-2019 03:00:17 8 C 40 %
3331 29-11-2019 03:10:17 8 C 40 %
3332 29-11-2019 03:20:17 7.9 C 40 %
3333 29-11-2019 03:30:17 7.8 C 40 %
3334 29-11-2019 03:40:17 7.7 C 40 %
3335 29-11-2019 03:50:17 7.6 C 40 %
3336 29-11-2019 04:00:17 7.6 C 40 %
3337 29-11-2019 04:10:17 7.6 C 40 %
3338 29-11-2019 04:20:17 7.6 C 40 %
3339 29-11-2019 04:30:17 7.5 C 40 %
3340 29-11-2019 04:40:17 7.5 C 40 %
3341 29-11-2019 04:50:17 7.2 C 38 %
3342 29-11-2019 05:00:17 6.8 C 34 %
3343 29-11-2019 05:10:17 6.4 C 33 %
3344 29-11-2019 05:20:17 6.2 C 34 %
3345 29-11-2019 05:30:17 6.2 C 35 %
3346 29-11-2019 05:40:18 6.1 C 36 %
3347 29-11-2019 05:50:17 6 C 36 %
3348 29-11-2019 06:00:17 6 C 38 %
3349 29-11-2019 06:10:17 5.9 C 38 %
3350 29-11-2019 06:20:17 5.9 C 38 %
Sensor: Nr:Datum:Temp:Feuchte:
Aussen-T/F 3351 29-11-2019 06:30:17 5.9 C 40 %
3352 29-11-2019 06:40:17 5.9 C 40 %
3353 29-11-2019 06:50:17 5.8 C 36 %
3354 29-11-2019 07:00:17 5.7 C 35 %
3355 29-11-2019 07:10:17 5.6 C 37 %
3356 29-11-2019 07:20:17 5.4 C 37 %
3357 29-11-2019 07:30:17 5.4 C 40 %
3358 29-11-2019 07:40:17 5.4 C 37 %
3359 29-11-2019 07:50:17 5.4 C 39 %
3360 29-11-2019 08:00:17 5.3 C 40 %
3361 29-11-2019 08:10:17 5.2 C 40 %
3362 29-11-2019 08:20:17 5.1 C 40 %
3363 29-11-2019 08:30:17 5 C 40 %
3364 29-11-2019 08:40:17 5 C 40 %
3365 29-11-2019 08:50:17 5 C 39 %
3366 29-11-2019 09:00:17 5 C 39 %
3367 29-11-2019 09:10:17 5 C 39 %
3368 29-11-2019 09:20:17 4.8 C 37 %
3369 29-11-2019 09:30:17 4.6 C 37 %
3370 29-11-2019 09:40:17 4.6 C 37 %
3371 29-11-2019 09:50:17 4.7 C 36 %
3372 29-11-2019 10:00:17 4.8 C 32 %
3373 29-11-2019 10:10:17 5.1 C 31 %
3374 29-11-2019 10:20:17 5.8 C 27 %
3375 29-11-2019 10:30:17 5.9 C 29 %
Sensor: Nr:Datum:Temp:Feuchte:
Aussen-T/F 3376 29-11-2019 10:40:17 5.7 C 27 %
3377 29-11-2019 10:50:17 5.4 C 28 %
3378 29-11-2019 11:00:17 5.6 C 30 %
3379 29-11-2019 11:10:17 5.9 C 26 %
3380 29-11-2019 11:20:17 6 C 27 %
3381 29-11-2019 11:30:17 6.4 C 26 %
3382 29-11-2019 11:40:17 7 C 23 %
3383 29-11-2019 11:50:17 7.3 C 21 %
3384 29-11-2019 12:00:17 7.2 C 20 %
3385 29-11-2019 12:10:17 7.2 C 20 %
3386 29-11-2019 12:20:17 7.1 C 20 %
3387 29-11-2019 12:30:17 7.6 C 20 %
3388 29-11-2019 12:40:17 7.2 C 20 %
3389 29-11-2019 12:50:17 6.9 C 21 %
3390 29-11-2019 13:00:17 6.6 C 21 %
3391 29-11-2019 13:10:17 6.2 C 23 %
3392 29-11-2019 13:20:17 5.9 C 25 %
3393 29-11-2019 13:30:17 6.1 C 25 %
3394 29-11-2019 13:40:17 6.1 C 25 %
3395 29-11-2019 13:50:17 6.5 C 20 %
3396 29-11-2019 14:00:17 6.5 C 20 %
3397 29-11-2019 14:10:17 7 C 20 %
3398 29-11-2019 14:20:17 7.3 C 20 %
3399 29-11-2019 14:30:17 7.3 C 20 %
3400 29-11-2019 14:40:17 6.9 C 20 %
Sensor: Nr:Datum:Temp:Feuchte:
Aussen-T/F 3401 29-11-2019 14:50:17 6.5 C 20 %
3402 29-11-2019 15:00:17 7.3 C 20 %
3403 29-11-2019 15:10:17 7.3 C 20 %
3404 29-11-2019 15:20:17 7.2 C 20 %
3405 29-11-2019 15:30:17 7.2 C 20 %
3406 29-11-2019 15:40:17 7.2 C 20 %
3407 29-11-2019 15:50:17 6.7 C 20 %
3408 29-11-2019 16:00:17 6.4 C 20 %
3409 29-11-2019 16:10:17 5.6 C 20 %
3410 29-11-2019 16:20:17 6.2 C 20 %
3411 29-11-2019 16:30:17 6 C 20 %
3412 29-11-2019 16:40:18 5.3 C 20 %
3413 29-11-2019 16:50:17 5.3 C 20 %
3414 29-11-2019 17:00:18 4.5 C 23 %
3415 29-11-2019 17:10:18 4 C 26 %
3416 29-11-2019 17:20:17 4 C 26 %
3417 29-11-2019 17:30:18 3.9 C 27 %
3418 29-11-2019 17:40:18 4 C 26 %
3419 29-11-2019 17:50:17 3.8 C 27 %
3420 29-11-2019 18:00:17 4.2 C 26 %
3421 29-11-2019 18:10:18 4.6 C 25 %
3422 29-11-2019 18:20:17 5 C 21 %
3423 29-11-2019 18:30:17 5 C 21 %
3424 29-11-2019 18:40:17 4.8 C 23 %
3425 29-11-2019 18:50:17 4.7 C 26 %
Sensor: Nr:Datum:Temp:Feuchte:
Aussen-T/F 3426 29-11-2019 19:00:17 4.8 C 21 %
3427 29-11-2019 19:10:17 4.8 C 21 %
3428 29-11-2019 19:20:17 4.8 C 21 %
3429 29-11-2019 19:30:17 4.4 C 25 %
3430 29-11-2019 19:40:17 4.6 C 21 %
3431 29-11-2019 19:50:17 4.4 C 25 %
3432 29-11-2019 20:00:17 4 C 26 %
3433 29-11-2019 20:10:17 4 C 26 %
3434 29-11-2019 20:20:17 4.3 C 25 %
3435 29-11-2019 20:30:17 4.7 C 23 %
3436 29-11-2019 20:40:17 4 C 25 %
3437 29-11-2019 20:50:17 3.9 C 26 %
3438 29-11-2019 21:00:17 3.8 C 28 %
3439 29-11-2019 21:10:17 3.9 C 27 %
3440 29-11-2019 21:20:17 3.8 C 27 %
3441 29-11-2019 21:30:17 3.8 C 28 %
3442 29-11-2019 21:40:17 3.9 C 28 %
3443 29-11-2019 21:50:17 3.2 C 30 %
3444 29-11-2019 22:00:17 3.3 C 29 %
3445 29-11-2019 22:10:17 2.6 C 32 %
3446 29-11-2019 22:20:17 2.1 C 35 %
3447 29-11-2019 22:30:17 1.9 C 37 %
3448 29-11-2019 22:40:17 1.7 C 40 %
3449 29-11-2019 22:50:17 1.8 C 41 %
3450 29-11-2019 23:00:17 1.5 C 38 %
Sensor: Nr:Datum:Temp:Feuchte:
Aussen-T/F 3451 29-11-2019 23:10:17 1.1 C 39 %
3452 29-11-2019 23:20:17 1.3 C 41 %
3453 29-11-2019 23:30:17 1.5 C 42 %
3454 29-11-2019 23:40:17 1.6 C 41 %
3455 29-11-2019 23:50:17 1.7 C 41 %
3456 30-11-2019 00:00:17 1.9 C 40 %
3457 30-11-2019 00:10:17 1.8 C 40 %
3458 30-11-2019 00:20:17 1.8 C 40 %
3459 30-11-2019 00:30:17 2 C 37 %
3460 30-11-2019 00:40:17 1.7 C 37 %
3461 30-11-2019 00:50:17 1.6 C 40 %
3462 30-11-2019 01:00:17 1.3 C 40 %
3463 30-11-2019 01:10:17 1 C 40 %
3464 30-11-2019 01:20:17 0.7 C 41 %
3465 30-11-2019 01:30:17 0.5 C 42 %
3466 30-11-2019 01:40:17 0.7 C 44 %
3467 30-11-2019 01:50:17 0.5 C 43 %
3468 30-11-2019 02:00:17 0.4 C 44 %
3469 30-11-2019 02:10:17 0.9 C 45 %
3470 30-11-2019 02:20:17 1.1 C 44 %
3471 30-11-2019 02:30:17 1.2 C 44 %
3472 30-11-2019 02:40:17 0.8 C 43 %
3473 30-11-2019 02:50:17 0.8 C 43 %
3474 30-11-2019 03:00:17 0.9 C 43 %
3475 30-11-2019 03:10:17 0.7 C 43 %
Sensor: Nr:Datum:Temp:Feuchte:
Aussen-T/F 3476 30-11-2019 03:20:17 0.3 C 41 %
3477 30-11-2019 03:30:17 0.5 C 44 %
3478 30-11-2019 03:40:17 0.2 C 43 %
3479 30-11-2019 03:50:17 0.6 C 44 %
3480 30-11-2019 04:00:17 1 C 44 %
3481 30-11-2019 04:10:17 1.3 C 43 %
3482 30-11-2019 04:20:17 1.3 C 41 %
3483 30-11-2019 04:30:17 1.4 C 40 %
3484 30-11-2019 04:40:17 1.3 C 40 %
3485 30-11-2019 04:50:17 1 C 38 %
3486 30-11-2019 05:00:17 0.6 C 40 %
3487 30-11-2019 05:10:17 1.1 C 41 %
3488 30-11-2019 05:20:17 0.8 C 40 %
3489 30-11-2019 05:30:17 0.3 C 40 %
3490 30-11-2019 05:40:17 -0.5 C 40 %
3491 30-11-2019 05:50:17 -0.7 C 41 %
3492 30-11-2019 06:00:17 -0.7 C 43 %
3493 30-11-2019 06:10:17 -0.9 C 43 %
3494 30-11-2019 06:20:17 -1 C 43 %
3495 30-11-2019 06:30:17 -1.2 C 43 %
3496 30-11-2019 06:40:17 -1.3 C 43 %
3497 30-11-2019 06:50:17 -1.2 C 44 %
3498 30-11-2019 07:00:17 -1.4 C 44 %
3499 30-11-2019 07:10:17 -1.4 C 43 %
3500 30-11-2019 07:20:17 -1.4 C 43 %
Sensor: Nr:Datum:Temp:Feuchte:
Aussen-T/F 3501 30-11-2019 07:30:17 -1.5 C 43 %
3502 30-11-2019 07:40:17 -1.2 C 44 %
3503 30-11-2019 07:50:17 -1.1 C 44 %
3504 30-11-2019 08:00:17 -1 C 44 %
3505 30-11-2019 08:10:17 -0.7 C 44 %
3506 30-11-2019 08:20:17 -0.6 C 44 %
3507 30-11-2019 08:30:17 -0.7 C 44 %
3508 30-11-2019 08:40:17 -0.6 C 44 %
3509 30-11-2019 08:50:17 -0.7 C 44 %
3510 30-11-2019 09:00:17 -0.7 C 44 %
3511 30-11-2019 09:10:17 -0.6 C 44 %
3512 30-11-2019 09:20:17 -0.7 C 44 %
3513 30-11-2019 09:30:17 -0.7 C 44 %
3514 30-11-2019 09:40:17 -0.6 C 44 %
3515 30-11-2019 09:50:17 -0.3 C 44 %
3516 30-11-2019 10:00:17 -0.3 C 44 %
3517 30-11-2019 10:10:17 0 C 44 %
3518 30-11-2019 10:20:17 0.1 C 43 %
3519 30-11-2019 10:30:17 0.4 C 43 %
3520 30-11-2019 10:40:17 0.5 C 43 %
3521 30-11-2019 10:50:17 0.4 C 43 %
3522 30-11-2019 11:00:18 0.5 C 42 %
3523 30-11-2019 11:10:18 0.6 C 42 %
3524 30-11-2019 11:20:17 0.6 C 42 %
3525 30-11-2019 11:30:17 0.4 C 41 %
Sensor: Nr:Datum:Temp:Feuchte:
Aussen-T/F 3526 30-11-2019 11:40:17 0.6 C 41 %
3527 30-11-2019 11:50:17 0.9 C 41 %
3528 30-11-2019 12:00:17 1.1 C 40 %
3529 30-11-2019 12:10:17 0.9 C 38 %
3530 30-11-2019 12:20:17 1.3 C 39 %
3531 30-11-2019 12:30:17 1.4 C 37 %
3532 30-11-2019 12:40:17 1.4 C 36 %
3533 30-11-2019 12:50:17 2.3 C 36 %
3534 30-11-2019 13:00:17 2.4 C 36 %
3535 30-11-2019 13:10:17 1.8 C 36 %
3536 30-11-2019 13:20:17 2.2 C 36 %
3537 30-11-2019 13:30:17 2.1 C 36 %
3538 30-11-2019 13:40:17 2.3 C 36 %
3539 30-11-2019 13:50:17 2.3 C 36 %
3540 30-11-2019 14:00:17 2 C 36 %
3541 30-11-2019 14:10:17 2.1 C 38 %
3542 30-11-2019 14:20:17 2.2 C 38 %
3543 30-11-2019 14:30:17 2.2 C 38 %
3544 30-11-2019 14:40:17 2.4 C 38 %
3545 30-11-2019 14:50:17 2.2 C 37 %
3546 30-11-2019 15:00:17 1.9 C 39 %
3547 30-11-2019 15:10:17 1.8 C 40 %
3548 30-11-2019 15:20:18 1.9 C 41 %
3549 30-11-2019 15:30:17 1.8 C 41 %
3550 30-11-2019 15:40:17 1.6 C 41 %
Sensor: Nr:Datum:Temp:Feuchte:
Aussen-T/F 3551 30-11-2019 15:50:17 1.7 C 42 %
3552 30-11-2019 16:00:17 1.5 C 42 %
3553 30-11-2019 16:10:17 1.5 C 42 %
3554 30-11-2019 16:20:17 1.4 C 43 %
3555 30-11-2019 16:30:17 1.3 C 43 %
3556 30-11-2019 16:40:17 1.3 C 43 %
3557 30-11-2019 16:50:17 1.1 C 43 %
3558 30-11-2019 17:00:17 0.9 C 44 %
3559 30-11-2019 17:10:17 0.9 C 44 %
3560 30-11-2019 17:20:17 0.6 C 44 %
3561 30-11-2019 17:30:17 0.6 C 44 %
3562 30-11-2019 17:40:17 0.6 C 44 %
3563 30-11-2019 17:50:17 0.5 C 44 %
3564 30-11-2019 18:00:17 0.4 C 44 %
3565 30-11-2019 18:10:17 0.3 C 44 %
3566 30-11-2019 18:20:17 0.3 C 44 %
3567 30-11-2019 18:30:17 0.4 C 44 %
3568 30-11-2019 18:40:17 0.4 C 44 %
3569 30-11-2019 18:50:17 0.4 C 44 %
3570 30-11-2019 19:00:17 0.2 C 44 %
3571 30-11-2019 19:10:17 0 C 44 %
3572 30-11-2019 19:20:17 0 C 44 %
3573 30-11-2019 19:30:17 0 C 44 %
3574 30-11-2019 19:40:17 -0.1 C 44 %
3575 30-11-2019 19:50:17 -0.1 C 44 %
Sensor: Nr:Datum:Temp:Feuchte:
Aussen-T/F 3576 30-11-2019 20:00:17 -0.2 C 44 %
3577 30-11-2019 20:10:18 -0.2 C 44 %
3578 30-11-2019 20:20:18 -0.2 C 44 %
3579 30-11-2019 20:30:17 -0.2 C 44 %
3580 30-11-2019 20:40:17 -0.4 C 44 %
3581 30-11-2019 20:50:17 -0.3 C 44 %
3582 30-11-2019 21:00:17 -0.2 C 44 %
3583 30-11-2019 21:10:17 -0.3 C 44 %
3584 30-11-2019 21:20:17 -0.3 C 44 %
3585 30-11-2019 21:30:17 -0.4 C 44 %
3586 30-11-2019 21:40:17 -0.2 C 44 %
3587 30-11-2019 21:50:17 -0.3 C 44 %
3588 30-11-2019 22:00:17 -0.3 C 44 %
3589 30-11-2019 22:10:17 -0.3 C 44 %
3590 30-11-2019 22:20:17 -0.3 C 44 %
3591 30-11-2019 22:30:17 -0.1 C 44 %
3592 30-11-2019 22:40:17 0 C 44 %
3593 30-11-2019 22:50:17 0 C 44 %
3594 30-11-2019 23:00:17 0 C 44 %
3595 30-11-2019 23:10:17 0 C 44 %
3596 30-11-2019 23:20:17 -0.1 C 44 %
3597 30-11-2019 23:30:17 -0.4 C 43 %
3598 30-11-2019 23:40:17 -0.5 C 43 %
3599 30-11-2019 23:50:17 -0.4 C 43 %
3600 01-12-2019 00:00:17 -0.2 C 43 %
Sensor: Nr:Datum:Temp:Feuchte:
Aussen-T/F 3601 01-12-2019 00:10:17 -0.3 C 43 %
3602 01-12-2019 00:20:17 -0.3 C 43 %
3603 01-12-2019 00:30:17 -0.3 C 43 %
3604 01-12-2019 00:40:17 -0.3 C 43 %
3605 01-12-2019 00:50:18 -0.2 C 43 %
3606 01-12-2019 01:00:17 0 C 44 %
3607 01-12-2019 01:10:17 -0.1 C 43 %
3608 01-12-2019 01:20:17 -0.1 C 43 %
3609 01-12-2019 01:30:17 -0.1 C 43 %
3610 01-12-2019 01:40:17 -0.1 C 43 %
3611 01-12-2019 01:50:17 -0.2 C 43 %
3612 01-12-2019 02:00:17 -0.1 C 43 %
3613 01-12-2019 02:10:17 -0.2 C 43 %
3614 01-12-2019 02:20:17 -0.2 C 43 %
3615 01-12-2019 02:30:17 -0.2 C 43 %
3616 01-12-2019 02:40:17 -0.3 C 43 %
3617 01-12-2019 02:50:17 -0.2 C 43 %
3618 01-12-2019 03:00:17 -0.3 C 43 %
3619 01-12-2019 03:10:17 -0.3 C 43 %
3620 01-12-2019 03:20:17 -0.4 C 43 %
3621 01-12-2019 03:30:17 -0.4 C 43 %
3622 01-12-2019 03:40:17 -0.4 C 43 %
3623 01-12-2019 03:50:17 -0.4 C 43 %
3624 01-12-2019 04:00:17 -0.4 C 43 %
3625 01-12-2019 04:10:17 -0.8 C 42 %
Sensor: Nr:Datum:Temp:Feuchte:
Aussen-T/F 3626 01-12-2019 04:20:17 -1.1 C 42 %
3627 01-12-2019 04:30:17 -1.3 C 42 %
3628 01-12-2019 04:40:17 -0.9 C 43 %
3629 01-12-2019 04:50:17 -0.9 C 43 %
3630 01-12-2019 05:00:17 -0.7 C 43 %
3631 01-12-2019 05:10:17 -0.8 C 43 %
3632 01-12-2019 05:20:17 -0.9 C 43 %
3633 01-12-2019 05:30:17 -1.1 C 43 %
3634 01-12-2019 05:40:17 -1 C 43 %
3635 01-12-2019 05:50:17 -0.9 C 43 %
3636 01-12-2019 06:00:17 -1 C 43 %
3637 01-12-2019 06:10:17 -1.1 C 43 %
3638 01-12-2019 06:20:17 -1.3 C 43 %
3639 01-12-2019 06:30:17 -1 C 43 %
3640 01-12-2019 06:40:17 -0.9 C 43 %
3641 01-12-2019 06:50:17 -0.9 C 43 %
3642 01-12-2019 07:00:17 -0.8 C 43 %
3643 01-12-2019 07:10:17 -0.7 C 43 %
3644 01-12-2019 07:20:17 -0.5 C 43 %
3645 01-12-2019 07:30:17 -0.5 C 43 %
3646 01-12-2019 07:40:17 -0.3 C 43 %
3647 01-12-2019 07:50:17 -0.2 C 43 %
3648 01-12-2019 08:00:17 -0.1 C 43 %
3649 01-12-2019 08:10:17 -0.1 C 43 %
3650 01-12-2019 08:20:17 -0.2 C 43 %
Sensor: Nr:Datum:Temp:Feuchte:
Aussen-T/F 3651 01-12-2019 08:30:17 -0.2 C 43 %
3652 01-12-2019 08:40:17 -0.2 C 43 %
3653 01-12-2019 08:50:17 0 C 43 %
3654 01-12-2019 09:00:17 0 C 42 %
3655 01-12-2019 09:10:17 0.2 C 42 %
3656 01-12-2019 09:20:17 0.1 C 42 %
3657 01-12-2019 09:30:17 0.1 C 42 %
3658 01-12-2019 09:40:17 0.2 C 41 %
3659 01-12-2019 09:50:17 0.3 C 41 %
3660 01-12-2019 10:00:17 0.5 C 41 %
3661 01-12-2019 10:10:17 0.6 C 41 %
3662 01-12-2019 10:20:17 0.7 C 40 %
3663 01-12-2019 10:30:17 0.8 C 39 %
3664 01-12-2019 10:40:17 1 C 38 %
3665 01-12-2019 10:50:17 1.1 C 37 %
3666 01-12-2019 11:00:17 1.4 C 36 %
3667 01-12-2019 11:10:17 1.9 C 34 %
3668 01-12-2019 11:20:17 2.1 C 32 %
3669 01-12-2019 11:30:17 2.7 C 30 %
3670 01-12-2019 11:40:17 3 C 27 %
3671 01-12-2019 11:50:17 2.9 C 20 %
3672 01-12-2019 12:00:17 3 C 21 %
3673 01-12-2019 12:10:17 3.1 C 20 %
3674 01-12-2019 12:20:17 3.3 C 20 %
3675 01-12-2019 12:30:18 3.3 C 20 %
Sensor: Nr:Datum:Temp:Feuchte:
Aussen-T/F 3676 01-12-2019 12:40:18 3.3 C 20 %
3677 01-12-2019 12:50:18 3.4 C 20 %
3678 01-12-2019 13:00:17 3.3 C 20 %
3679 01-12-2019 13:10:17 3.4 C 20 %
3680 01-12-2019 13:20:18 3.5 C 20 %
3681 01-12-2019 13:30:18 3.5 C 20 %
3682 01-12-2019 13:40:18 3.6 C 20 %
3683 01-12-2019 13:50:17 3.8 C 20 %
3684 01-12-2019 14:00:17 3.9 C 20 %
3685 01-12-2019 14:10:18 3.9 C 20 %
3686 01-12-2019 14:20:18 3.7 C 20 %
3687 01-12-2019 14:30:17 3.7 C 20 %
3688 01-12-2019 14:40:17 3.6 C 20 %
3689 01-12-2019 14:50:17 3.6 C 20 %
3690 01-12-2019 15:00:17 3.5 C 20 %
3691 01-12-2019 15:10:17 3.3 C 20 %
3692 01-12-2019 15:20:17 3.2 C 21 %
3693 01-12-2019 15:30:17 3 C 20 %
3694 01-12-2019 15:40:17 3 C 21 %
3695 01-12-2019 15:50:17 2.7 C 25 %
3696 01-12-2019 16:00:17 2.6 C 25 %
3697 01-12-2019 16:10:17 2.5 C 25 %
3698 01-12-2019 16:20:17 2.4 C 25 %
3699 01-12-2019 16:30:18 2.4 C 25 %
3700 01-12-2019 16:40:18 2.2 C 25 %
Sensor: Nr:Datum:Temp:Feuchte:
Aussen-T/F 3701 01-12-2019 16:50:18 2.2 C 25 %
3702 01-12-2019 17:00:18 2.2 C 25 %
3703 01-12-2019 17:10:18 2.2 C 25 %
3704 01-12-2019 17:20:17 2.3 C 25 %
3705 01-12-2019 17:30:17 2.3 C 25 %
3706 01-12-2019 17:40:17 2.3 C 25 %
3707 01-12-2019 17:50:17 2.3 C 25 %
3708 01-12-2019 18:00:17 2.3 C 25 %
3709 01-12-2019 18:10:17 2.3 C 25 %
3710 01-12-2019 18:20:17 2.3 C 25 %
3711 01-12-2019 18:30:17 2.3 C 25 %
3712 01-12-2019 18:40:17 2.3 C 25 %
3713 01-12-2019 18:50:17 2.3 C 23 %
3714 01-12-2019 19:00:17 2.3 C 23 %
3715 01-12-2019 19:10:18 2.4 C 25 %
3716 01-12-2019 19:20:17 2.3 C 25 %
3717 01-12-2019 19:30:17 2.3 C 25 %
3718 01-12-2019 19:40:17 2.3 C 25 %
3719 01-12-2019 19:50:17 2.2 C 26 %
3720 01-12-2019 20:00:17 2.5 C 25 %
3721 01-12-2019 20:10:17 2.2 C 25 %
3722 01-12-2019 20:20:17 2.1 C 25 %
3723 01-12-2019 20:30:18 2.1 C 25 %
3724 01-12-2019 20:40:18 2.1 C 25 %
3725 01-12-2019 20:50:17 2 C 27 %
Sensor: Nr:Datum:Temp:Feuchte:
Aussen-T/F 3726 01-12-2019 21:00:17 1.9 C 27 %
3727 01-12-2019 21:10:17 1.8 C 28 %
3728 01-12-2019 21:20:17 1.6 C 30 %
3729 01-12-2019 21:30:18 1.5 C 29 %
3730 01-12-2019 21:40:18 1.6 C 28 %
3731 01-12-2019 21:50:17 1.6 C 28 %
3732 01-12-2019 22:00:17 1.5 C 29 %
3733 01-12-2019 22:10:17 1.4 C 29 %
3734 01-12-2019 22:20:17 1.4 C 30 %
3735 01-12-2019 22:30:18 1.3 C 28 %
3736 01-12-2019 22:40:18 1.2 C 29 %
3737 01-12-2019 22:50:17 1.1 C 29 %
3738 01-12-2019 23:00:17 0.8 C 30 %
3739 01-12-2019 23:10:17 0.8 C 30 %
3740 01-12-2019 23:20:18 0.7 C 30 %
3741 01-12-2019 23:30:17 0.5 C 32 %
3742 01-12-2019 23:40:17 0.3 C 33 %
3743 01-12-2019 23:50:17 0.2 C 33 %
3744 02-12-2019 00:00:17 0.1 C 33 %
3745 02-12-2019 00:10:17 0.2 C 33 %
3746 02-12-2019 00:20:17 0.3 C 32 %
3747 02-12-2019 00:30:17 0.3 C 32 %
3748 02-12-2019 00:40:17 0.2 C 32 %
3749 02-12-2019 00:50:18 0.2 C 35 %
3750 02-12-2019 01:00:17 0.1 C 36 %
Sensor: Nr:Datum:Temp:Feuchte:
Aussen-T/F 3751 02-12-2019 01:10:17 0 C 38 %
3752 02-12-2019 01:20:17 -0.2 C 36 %
3753 02-12-2019 01:30:17 0.2 C 34 %
3754 02-12-2019 01:40:17 -0.2 C 35 %
3755 02-12-2019 01:50:17 -0.9 C 35 %
3756 02-12-2019 02:00:18 -0.9 C 37 %
3757 02-12-2019 02:10:18 -0.9 C 37 %
3758 02-12-2019 02:20:17 -0.5 C 37 %
3759 02-12-2019 02:30:17 -1 C 36 %
3760 02-12-2019 02:40:17 -1.1 C 37 %
3761 02-12-2019 02:50:17 -1.1 C 36 %
3762 02-12-2019 03:00:17 -1 C 37 %
3763 02-12-2019 03:10:17 -1.2 C 38 %
3764 02-12-2019 03:20:17 -1.3 C 37 %
3765 02-12-2019 03:30:18 -1.3 C 38 %
3766 02-12-2019 03:40:18 -1.4 C 37 %
3767 02-12-2019 03:50:17 -1.4 C 37 %
3768 02-12-2019 04:00:18 -1.7 C 39 %
3769 02-12-2019 04:10:18 -1.4 C 40 %
3770 02-12-2019 04:20:17 -1.1 C 40 %
3771 02-12-2019 04:30:17 -1 C 40 %
3772 02-12-2019 04:40:17 -0.8 C 36 %
3773 02-12-2019 04:50:17 -1.1 C 37 %
3774 02-12-2019 05:00:17 -1.4 C 40 %
3775 02-12-2019 05:10:17 -1.1 C 40 %
Sensor: Nr:Datum:Temp:Feuchte:
Aussen-T/F 3776 02-12-2019 05:20:17 -1.2 C 39 %
3777 02-12-2019 05:30:17 -1.6 C 40 %
3778 02-12-2019 05:40:17 -1.4 C 41 %
3779 02-12-2019 05:50:17 -1.3 C 42 %
3780 02-12-2019 06:00:17 -1.2 C 41 %
3781 02-12-2019 06:10:17 -1.3 C 39 %
3782 02-12-2019 06:20:17 -1.2 C 39 %
3783 02-12-2019 06:30:17 -1.4 C 38 %
3784 02-12-2019 06:40:17 -1.4 C 40 %
3785 02-12-2019 06:50:17 -1.8 C 37 %
3786 02-12-2019 07:00:17 -2.4 C 38 %
3787 02-12-2019 07:10:17 -2.6 C 40 %
3788 02-12-2019 07:20:17 -2.9 C 40 %
3789 02-12-2019 07:30:17 -2.7 C 42 %
3790 02-12-2019 07:40:17 -2.6 C 42 %
3791 02-12-2019 07:50:17 -2.4 C 43 %
3792 02-12-2019 08:00:17 -1.9 C 45 %
3793 02-12-2019 08:10:18 -1.6 C 44 %
3794 02-12-2019 08:20:17 -1.3 C 44 %
3795 02-12-2019 08:30:17 -1 C 43 %
3796 02-12-2019 08:40:17 -0.7 C 43 %
3797 02-12-2019 08:50:17 -0.5 C 42 %
3798 02-12-2019 09:00:17 -0.5 C 40 %
3799 02-12-2019 09:10:17 -0.4 C 38 %
3800 02-12-2019 09:20:17 -0.4 C 36 %
Sensor: Nr:Datum:Temp:Feuchte:
Aussen-T/F 3801 02-12-2019 09:30:17 -0.4 C 36 %
3802 02-12-2019 09:40:17 0 C 36 %
3803 02-12-2019 09:50:17 0 C 35 %
3804 02-12-2019 10:00:17 0.1 C 35 %
3805 02-12-2019 10:10:17 0.1 C 34 %
3806 02-12-2019 10:20:17 0.2 C 35 %
3807 02-12-2019 10:30:17 0.5 C 36 %
3808 02-12-2019 10:40:17 1 C 31 %
3809 02-12-2019 10:50:17 0.8 C 31 %
3810 02-12-2019 11:00:17 1.2 C 30 %
3811 02-12-2019 11:10:17 1.1 C 30 %
3812 02-12-2019 11:20:17 1.2 C 30 %
3813 02-12-2019 11:30:17 0.9 C 31 %
3814 02-12-2019 11:40:18 1 C 31 %
3815 02-12-2019 11:50:17 0.8 C 32 %
3816 02-12-2019 12:00:18 1.6 C 31 %
3817 02-12-2019 12:10:18 2.3 C 27 %
3818 02-12-2019 12:20:17 2.8 C 25 %
3819 02-12-2019 12:30:17 3.1 C 26 %
3820 02-12-2019 12:40:17 3 C 25 %
3821 02-12-2019 12:50:18 3.2 C 26 %
3822 02-12-2019 13:00:17 3.2 C 26 %
3823 02-12-2019 13:10:17 3.5 C 25 %
3824 02-12-2019 13:20:17 3.9 C 25 %
3825 02-12-2019 13:30:17 3.9 C 25 %
Sensor: Nr:Datum:Temp:Feuchte:
Aussen-T/F 3826 02-12-2019 13:40:17 3.8 C 25 %
3827 02-12-2019 13:50:17 3.6 C 25 %
3828 02-12-2019 14:00:17 4 C 26 %
3829 02-12-2019 14:10:17 3.7 C 28 %
3830 02-12-2019 14:20:17 3.7 C 30 %
3831 02-12-2019 14:30:17 4.1 C 27 %
3832 02-12-2019 14:40:17 4.3 C 27 %
3833 02-12-2019 14:50:17 4.5 C 27 %
3834 02-12-2019 15:00:18 4.3 C 28 %
3835 02-12-2019 15:10:18 4.3 C 29 %
3836 02-12-2019 15:20:17 4.7 C 27 %
3837 02-12-2019 15:30:17 4.4 C 27 %
3838 02-12-2019 15:40:17 4.1 C 31 %
3839 02-12-2019 15:50:17 3.9 C 36 %
3840 02-12-2019 16:00:18 3.7 C 37 %
3841 02-12-2019 16:10:18 3.6 C 37 %
3842 02-12-2019 16:20:17 3.5 C 40 %
3843 02-12-2019 16:30:17 3.5 C 38 %
3844 02-12-2019 16:40:17 3.5 C 35 %
3845 02-12-2019 16:50:17 3.5 C 35 %
3846 02-12-2019 17:00:17 3.3 C 36 %
3847 02-12-2019 17:10:17 3.2 C 39 %
3848 02-12-2019 17:20:17 3.2 C 36 %
3849 02-12-2019 17:30:18 3.3 C 36 %
3850 02-12-2019 17:40:18 3.4 C 35 %
Sensor: Nr:Datum:Temp:Feuchte:
Aussen-T/F 3851 02-12-2019 17:50:17 3.3 C 35 %
3852 02-12-2019 18:01:17 3.1 C 36 %
3853 02-12-2019 18:11:17 3.2 C 37 %
3854 02-12-2019 18:21:17 3.2 C 36 %
3855 02-12-2019 18:30:17 3 C 36 %
3856 02-12-2019 18:40:17 2.5 C 40 %
3857 02-12-2019 18:50:17 2.2 C 40 %
3858 02-12-2019 19:00:17 2.1 C 42 %
3859 02-12-2019 19:10:17 2.7 C 43 %
3860 02-12-2019 19:21:17 2.7 C 42 %
3861 02-12-2019 19:30:17 2.7 C 41 %
3862 02-12-2019 19:40:17 2.9 C 42 %
3863 02-12-2019 19:51:17 2.9 C 42 %
3864 02-12-2019 20:01:17 2.9 C 39 %
3865 02-12-2019 20:11:17 2.8 C 38 %
3866 02-12-2019 20:21:17 2.9 C 37 %
3867 02-12-2019 20:31:17 2.9 C 38 %
3868 02-12-2019 20:40:17 2.8 C 40 %
3869 02-12-2019 20:51:17 2.7 C 42 %
3870 02-12-2019 21:00:17 2.7 C 42 %
3871 02-12-2019 21:10:17 2.7 C 42 %
3872 02-12-2019 21:21:17 2.7 C 42 %
3873 02-12-2019 21:30:18 2.7 C 42 %
3874 02-12-2019 21:40:18 2.6 C 41 %
3875 02-12-2019 21:51:17 2.6 C 42 %
Sensor: Nr:Datum:Temp:Feuchte:
Aussen-T/F 3876 02-12-2019 22:01:17 2.6 C 41 %
3877 02-12-2019 22:11:17 2.6 C 41 %
3878 02-12-2019 22:21:17 2.6 C 41 %
3879 02-12-2019 22:30:18 2.5 C 40 %
3880 02-12-2019 22:40:18 2.5 C 41 %
3881 02-12-2019 22:51:17 2.4 C 41 %
3882 02-12-2019 23:01:17 2.5 C 41 %
3883 02-12-2019 23:11:17 2.4 C 42 %
3884 02-12-2019 23:21:17 2.5 C 42 %
3885 02-12-2019 23:31:17 2.5 C 42 %
3886 02-12-2019 23:41:17 2.5 C 42 %
3887 02-12-2019 23:50:18 2.5 C 42 %
3888 03-12-2019 00:01:17 2.5 C 42 %
3889 03-12-2019 00:11:17 2.5 C 42 %
3890 03-12-2019 00:21:17 2.5 C 41 %
3891 03-12-2019 00:30:18 2.5 C 41 %
3892 03-12-2019 00:40:18 2.6 C 41 %
3893 03-12-2019 00:51:17 2.6 C 41 %
3894 03-12-2019 01:01:18 2.6 C 41 %
3895 03-12-2019 01:11:18 2.6 C 41 %
3896 03-12-2019 01:21:17 2.7 C 41 %
3897 03-12-2019 01:31:17 2.7 C 41 %
3898 03-12-2019 01:41:17 2.7 C 42 %
3899 03-12-2019 01:51:17 2.7 C 42 %
3900 03-12-2019 02:01:17 2.7 C 42 %
Sensor: Nr:Datum:Temp:Feuchte:
Aussen-T/F 3901 03-12-2019 02:11:17 2.8 C 42 %
3902 03-12-2019 02:21:17 2.8 C 42 %
3903 03-12-2019 02:31:17 2.8 C 42 %
3904 03-12-2019 02:41:17 2.9 C 42 %
3905 03-12-2019 02:51:17 2.8 C 42 %
3906 03-12-2019 03:01:17 2.8 C 42 %
3907 03-12-2019 03:11:17 2.8 C 42 %
3908 03-12-2019 03:21:17 2.8 C 42 %
3909 03-12-2019 03:31:17 2.9 C 42 %
3910 03-12-2019 03:41:17 3 C 42 %
3911 03-12-2019 03:51:17 3 C 42 %
3912 03-12-2019 04:01:17 3 C 42 %
3913 03-12-2019 04:11:17 3 C 42 %
3914 03-12-2019 04:21:17 3 C 42 %
3915 03-12-2019 04:31:17 3.1 C 42 %
3916 03-12-2019 04:41:17 3.1 C 42 %
3917 03-12-2019 04:51:17 3.1 C 42 %
3918 03-12-2019 05:01:17 3.1 C 42 %
3919 03-12-2019 05:11:17 3.1 C 42 %
3920 03-12-2019 05:21:17 3.1 C 42 %
3921 03-12-2019 05:31:17 3.2 C 42 %
3922 03-12-2019 05:41:17 3.2 C 41 %
3923 03-12-2019 05:51:17 3.2 C 41 %
3924 03-12-2019 06:01:18 3.2 C 41 %
3925 03-12-2019 06:11:18 3.2 C 41 %
Sensor: Nr:Datum:Temp:Feuchte:
Aussen-T/F 3926 03-12-2019 06:21:17 3.2 C 41 %
3927 03-12-2019 06:31:17 3.3 C 41 %
3928 03-12-2019 06:41:17 3.3 C 41 %
3929 03-12-2019 06:51:18 3.3 C 41 %
3930 03-12-2019 07:01:17 3.3 C 41 %
3931 03-12-2019 07:11:17 3.3 C 41 %
3932 03-12-2019 07:21:17 3.3 C 41 %
3933 03-12-2019 07:31:17 3.2 C 41 %
3934 03-12-2019 07:41:17 3.3 C 41 %
3935 03-12-2019 07:51:17 3.3 C 42 %
3936 03-12-2019 08:01:17 3.3 C 42 %
3937 03-12-2019 08:11:17 3.4 C 42 %
3938 03-12-2019 08:21:17 3.3 C 42 %
3939 03-12-2019 08:31:17 3.4 C 42 %
3940 03-12-2019 08:41:17 3.4 C 41 %
3941 03-12-2019 08:51:17 3.4 C 41 %
3942 03-12-2019 09:01:17 3.5 C 42 %
3943 03-12-2019 09:11:17 3.5 C 42 %
3944 03-12-2019 09:21:17 3.5 C 41 %
3945 03-12-2019 09:31:17 3.6 C 41 %
3946 03-12-2019 09:41:17 3.6 C 41 %
3947 03-12-2019 09:51:17 3.7 C 41 %
3948 03-12-2019 10:01:17 3.7 C 41 %
3949 03-12-2019 10:11:17 3.8 C 41 %
3950 03-12-2019 10:21:17 3.8 C 41 %
Sensor: Nr:Datum:Temp:Feuchte:
Aussen-T/F 3951 03-12-2019 10:31:17 3.8 C 41 %
3952 03-12-2019 10:41:17 4.1 C 40 %
3953 03-12-2019 10:51:17 4.1 C 40 %
3954 03-12-2019 11:01:18 4.3 C 39 %
3955 03-12-2019 11:11:18 4.3 C 37 %
3956 03-12-2019 11:21:17 4.4 C 37 %
3957 03-12-2019 11:31:17 4.6 C 37 %
3958 03-12-2019 11:41:17 4.6 C 37 %
3959 03-12-2019 11:51:17 4.7 C 37 %
3960 03-12-2019 12:01:17 4.7 C 37 %
3961 03-12-2019 12:11:17 4.9 C 35 %
3962 03-12-2019 12:21:17 5 C 34 %
3963 03-12-2019 12:31:17 5 C 35 %
3964 03-12-2019 12:41:17 5.2 C 35 %
3965 03-12-2019 12:51:18 5.3 C 34 %
3966 03-12-2019 13:01:17 5.6 C 34 %
3967 03-12-2019 13:11:17 5.8 C 33 %
3968 03-12-2019 13:21:17 5.8 C 32 %
3969 03-12-2019 13:31:17 5.7 C 32 %
3970 03-12-2019 13:41:17 5.9 C 32 %
3971 03-12-2019 13:51:18 6.1 C 31 %
3972 03-12-2019 14:01:17 6.1 C 31 %
3973 03-12-2019 14:11:17 6.2 C 31 %
3974 03-12-2019 14:21:17 6.1 C 31 %
3975 03-12-2019 14:31:17 6.3 C 31 %
Sensor: Nr:Datum:Temp:Feuchte:
Aussen-T/F 3976 03-12-2019 14:41:17 6.2 C 30 %
3977 03-12-2019 14:51:18 6.4 C 31 %
3978 03-12-2019 15:01:17 6.2 C 30 %
3979 03-12-2019 15:11:17 6.3 C 31 %
3980 03-12-2019 15:21:17 6.3 C 31 %
3981 03-12-2019 15:31:17 6.2 C 31 %
3982 03-12-2019 15:41:17 6.1 C 32 %
3983 03-12-2019 15:51:17 6 C 33 %
3984 03-12-2019 16:01:17 5.7 C 36 %
3985 03-12-2019 16:11:17 5.6 C 39 %
3986 03-12-2019 16:21:17 5.4 C 40 %
3987 03-12-2019 16:31:18 5.3 C 41 %
3988 03-12-2019 16:41:18 5.2 C 41 %
3989 03-12-2019 16:51:17 5.2 C 41 %
3990 03-12-2019 17:01:18 5.1 C 41 %
3991 03-12-2019 17:11:18 5.1 C 41 %
3992 03-12-2019 17:21:17 5.1 C 41 %
3993 03-12-2019 17:31:17 5 C 41 %
3994 03-12-2019 17:41:17 5 C 41 %
3995 03-12-2019 17:51:17 5 C 41 %
3996 03-12-2019 18:01:18 4.8 C 41 %
3997 03-12-2019 18:11:18 4.7 C 40 %
3998 03-12-2019 18:21:17 4.7 C 40 %
3999 03-12-2019 18:31:18 4.7 C 40 %
4000 03-12-2019 18:41:18 4.7 C 40 %
Sensor: Nr:Datum:Temp:Feuchte:
Aussen-T/F 4001 03-12-2019 18:51:17 4.7 C 40 %
4002 03-12-2019 19:01:17 4.7 C 40 %
4003 03-12-2019 19:11:17 4.6 C 39 %
4004 03-12-2019 19:21:17 4.6 C 38 %
4005 03-12-2019 19:31:17 4.6 C 38 %
4006 03-12-2019 19:41:17 4.4 C 37 %
4007 03-12-2019 19:51:17 4.3 C 38 %
4008 03-12-2019 20:01:17 4.3 C 39 %
4009 03-12-2019 20:11:17 4.3 C 38 %
4010 03-12-2019 20:21:18 4.2 C 37 %
4011 03-12-2019 20:31:17 4.2 C 38 %
4012 03-12-2019 20:41:18 4.1 C 39 %
4013 03-12-2019 20:51:17 3.9 C 40 %
4014 03-12-2019 21:01:17 3.9 C 41 %
4015 03-12-2019 21:11:17 4 C 40 %
4016 03-12-2019 21:21:17 4 C 40 %
4017 03-12-2019 21:31:17 3.8 C 40 %
4018 03-12-2019 21:41:17 3.5 C 40 %
4019 03-12-2019 21:51:17 3.3 C 40 %
4020 03-12-2019 22:01:17 2.9 C 41 %
4021 03-12-2019 22:11:17 2.8 C 42 %
4022 03-12-2019 22:21:18 2.8 C 42 %
4023 03-12-2019 22:31:18 3.3 C 42 %
4024 03-12-2019 22:41:18 3.5 C 40 %
4025 03-12-2019 22:51:17 3.2 C 38 %
Sensor: Nr:Datum:Temp:Feuchte:
Aussen-T/F 4026 03-12-2019 23:01:18 2.6 C 39 %
4027 03-12-2019 23:11:18 2.5 C 41 %
4028 03-12-2019 23:21:17 2.5 C 41 %
4029 03-12-2019 23:31:17 2.2 C 40 %
4030 03-12-2019 23:41:17 2.8 C 40 %
4031 03-12-2019 23:51:17 2.6 C 38 %
<
Sensor: Nr:Datum:Temp:Feuchte:
G-T/H 1 06-11-2019 00:08:17 12.5 C 76 %
2 06-11-2019 00:18:17 12.5 C 76 %
3 06-11-2019 00:28:17 12.5 C 76 %
4 06-11-2019 00:38:17 12.5 C 76 %
5 06-11-2019 00:48:17 12.5 C 76 %
6 06-11-2019 00:58:17 12.5 C 76 %
7 06-11-2019 01:08:17 12.5 C 76 %
8 06-11-2019 01:18:17 12.5 C 76 %
9 06-11-2019 01:28:17 12.5 C 76 %
10 06-11-2019 01:38:17 12.5 C 76 %
11 06-11-2019 01:48:17 12.4 C 76 %
12 06-11-2019 01:58:17 12.4 C 76 %
13 06-11-2019 02:08:17 12.4 C 76 %
14 06-11-2019 02:18:17 12.4 C 76 %
15 06-11-2019 02:28:17 12.4 C 76 %
16 06-11-2019 02:38:17 12.4 C 76 %
17 06-11-2019 02:48:17 12.4 C 76 %
18 06-11-2019 02:58:17 12.4 C 76 %
19 06-11-2019 03:08:18 12.5 C 76 %
20 06-11-2019 03:18:18 12.4 C 76 %
21 06-11-2019 03:28:18 12.4 C 76 %
22 06-11-2019 03:38:17 12.4 C 76 %
23 06-11-2019 03:48:17 12.4 C 75 %
24 06-11-2019 03:58:17 12.4 C 75 %
25 06-11-2019 04:08:17 12.4 C 75 %
Sensor: Nr:Datum:Temp:Feuchte:
G-T/H 26 06-11-2019 04:18:17 12.4 C 75 %
27 06-11-2019 04:28:17 12.3 C 75 %
28 06-11-2019 04:38:17 12.4 C 75 %
29 06-11-2019 04:48:17 12.3 C 75 %
30 06-11-2019 04:58:17 12.4 C 75 %
31 06-11-2019 05:08:17 12.3 C 75 %
32 06-11-2019 05:18:17 12.3 C 75 %
33 06-11-2019 05:28:17 12.3 C 75 %
34 06-11-2019 05:38:17 12.3 C 75 %
35 06-11-2019 05:48:18 12.4 C 75 %
36 06-11-2019 05:58:18 12.3 C 75 %
37 06-11-2019 06:08:17 12.3 C 75 %
38 06-11-2019 06:18:17 12.3 C 75 %
39 06-11-2019 06:28:17 12.3 C 75 %
40 06-11-2019 06:38:18 12.3 C 75 %
41 06-11-2019 06:48:17 12.3 C 75 %
42 06-11-2019 06:58:17 12.3 C 75 %
43 06-11-2019 07:08:17 12.3 C 75 %
44 06-11-2019 07:18:17 12.3 C 75 %
45 06-11-2019 07:28:17 12.3 C 75 %
46 06-11-2019 07:38:17 12.3 C 75 %
47 06-11-2019 07:48:17 12.3 C 75 %
48 06-11-2019 07:58:17 12.2 C 75 %
49 06-11-2019 08:08:17 12.2 C 75 %
50 06-11-2019 08:18:17 12.2 C 75 %
Sensor: Nr:Datum:Temp:Feuchte:
G-T/H 51 06-11-2019 08:28:17 12.2 C 75 %
52 06-11-2019 08:38:18 12.2 C 75 %
53 06-11-2019 08:48:17 12.2 C 75 %
54 06-11-2019 08:58:17 12.2 C 75 %
55 06-11-2019 09:08:17 12.2 C 75 %
56 06-11-2019 09:18:17 12.2 C 75 %
57 06-11-2019 09:28:17 12.2 C 75 %
58 06-11-2019 09:38:17 12.2 C 75 %
59 06-11-2019 09:48:17 12.2 C 75 %
60 06-11-2019 09:58:17 12.2 C 75 %
61 06-11-2019 10:08:17 12.2 C 75 %
62 06-11-2019 10:18:17 12.2 C 75 %
63 06-11-2019 10:28:17 12.2 C 75 %
64 06-11-2019 10:38:18 12.2 C 75 %
65 06-11-2019 10:48:17 12.2 C 75 %
66 06-11-2019 10:58:17 12.2 C 75 %
67 06-11-2019 11:08:17 12.2 C 75 %
68 06-11-2019 11:18:17 12.2 C 75 %
69 06-11-2019 11:28:17 12.2 C 75 %
70 06-11-2019 11:38:17 12.2 C 75 %
71 06-11-2019 11:48:17 12.2 C 75 %
72 06-11-2019 11:58:17 12.2 C 76 %
73 06-11-2019 12:08:17 12.2 C 76 %
74 06-11-2019 12:18:17 12.2 C 76 %
75 06-11-2019 12:28:17 12.2 C 76 %
Sensor: Nr:Datum:Temp:Feuchte:
G-T/H 76 06-11-2019 12:38:17 12.2 C 76 %
77 06-11-2019 12:48:17 12.2 C 76 %
78 06-11-2019 12:58:17 12.2 C 76 %
79 06-11-2019 13:08:18 12.3 C 76 %
80 06-11-2019 13:18:17 12.3 C 76 %
81 06-11-2019 13:28:17 12.3 C 76 %
82 06-11-2019 13:38:17 12.3 C 76 %
83 06-11-2019 13:48:17 12.3 C 76 %
84 06-11-2019 13:58:17 12.3 C 76 %
85 06-11-2019 14:08:18 12.3 C 76 %
86 06-11-2019 14:18:17 12.3 C 76 %
87 06-11-2019 14:28:17 12.3 C 76 %
88 06-11-2019 14:38:17 12.3 C 76 %
89 06-11-2019 14:48:17 12.3 C 76 %
90 06-11-2019 14:58:17 12.3 C 76 %
91 06-11-2019 15:08:18 12.3 C 76 %
92 06-11-2019 15:18:17 12.3 C 76 %
93 06-11-2019 15:28:17 12.3 C 76 %
94 06-11-2019 15:38:17 12.3 C 76 %
95 06-11-2019 15:48:17 12.3 C 76 %
96 06-11-2019 15:58:17 12.3 C 76 %
97 06-11-2019 16:08:18 12.3 C 76 %
98 06-11-2019 16:18:17 12.4 C 76 %
99 06-11-2019 16:28:17 12.4 C 76 %
100 06-11-2019 16:38:17 12.4 C 76 %
Sensor: Nr:Datum:Temp:Feuchte:
G-T/H 101 06-11-2019 16:48:17 12.3 C 76 %
102 06-11-2019 16:58:17 12.2 C 75 %
103 06-11-2019 17:08:17 12.2 C 76 %
104 06-11-2019 17:18:17 12.3 C 76 %
105 06-11-2019 17:28:17 12.3 C 76 %
106 06-11-2019 17:38:17 12.3 C 76 %
107 06-11-2019 17:48:18 12.3 C 76 %
108 06-11-2019 17:58:18 12.4 C 76 %
109 06-11-2019 18:08:17 12.4 C 76 %
110 06-11-2019 18:18:17 12.4 C 76 %
111 06-11-2019 18:28:17 12.4 C 76 %
112 06-11-2019 18:38:17 12.4 C 76 %
113 06-11-2019 18:48:17 12.4 C 76 %
114 06-11-2019 18:58:17 12.4 C 76 %
115 06-11-2019 19:08:17 12.4 C 76 %
116 06-11-2019 19:18:17 12.3 C 76 %
117 06-11-2019 19:28:17 12.4 C 76 %
118 06-11-2019 19:38:17 12.4 C 76 %
119 06-11-2019 19:48:18 12.4 C 76 %
120 06-11-2019 19:58:18 12.4 C 76 %
121 06-11-2019 20:08:17 12.4 C 76 %
122 06-11-2019 20:18:17 12.4 C 76 %
123 06-11-2019 20:28:17 12.4 C 76 %
124 06-11-2019 20:38:17 12.4 C 76 %
125 06-11-2019 20:48:17 12.4 C 76 %
Sensor: Nr:Datum:Temp:Feuchte:
G-T/H 126 06-11-2019 20:58:17 12.4 C 76 %
127 06-11-2019 21:08:17 12.4 C 76 %
128 06-11-2019 21:18:17 12.4 C 76 %
129 06-11-2019 21:28:17 12.4 C 76 %
130 06-11-2019 21:38:17 12.4 C 76 %
131 06-11-2019 21:48:18 12.4 C 76 %
132 06-11-2019 21:58:18 12.4 C 76 %
133 06-11-2019 22:08:17 12.4 C 76 %
134 06-11-2019 22:18:17 12.4 C 76 %
135 06-11-2019 22:28:17 12.4 C 76 %
136 06-11-2019 22:38:17 12.4 C 76 %
137 06-11-2019 22:48:17 12.4 C 76 %
138 06-11-2019 22:58:18 12.4 C 76 %
139 06-11-2019 23:08:17 12.4 C 76 %
140 06-11-2019 23:18:17 12.4 C 76 %
141 06-11-2019 23:28:17 12.4 C 76 %
142 06-11-2019 23:38:17 12.4 C 76 %
143 06-11-2019 23:48:17 12.4 C 76 %
144 06-11-2019 23:58:17 12.4 C 76 %
145 07-11-2019 00:08:17 12.4 C 76 %
146 07-11-2019 00:18:17 12.4 C 76 %
147 07-11-2019 00:28:17 12.4 C 76 %
148 07-11-2019 00:38:17 12.4 C 76 %
149 07-11-2019 00:48:17 12.4 C 76 %
150 07-11-2019 00:58:17 12.4 C 76 %
Sensor: Nr:Datum:Temp:Feuchte:
G-T/H 151 07-11-2019 01:08:17 12.4 C 76 %
152 07-11-2019 01:18:17 12.4 C 76 %
153 07-11-2019 01:28:17 12.4 C 76 %
154 07-11-2019 01:38:17 12.4 C 76 %
155 07-11-2019 01:48:18 12.4 C 76 %
156 07-11-2019 01:58:18 12.4 C 76 %
157 07-11-2019 02:08:17 12.4 C 76 %
158 07-11-2019 02:18:17 12.4 C 76 %
159 07-11-2019 02:28:17 12.4 C 76 %
160 07-11-2019 02:38:17 12.4 C 76 %
161 07-11-2019 02:48:17 12.4 C 76 %
162 07-11-2019 02:58:17 12.3 C 76 %
163 07-11-2019 03:08:17 12.4 C 76 %
164 07-11-2019 03:18:17 12.4 C 76 %
165 07-11-2019 03:28:17 12.3 C 76 %
166 07-11-2019 03:38:17 12.4 C 76 %
167 07-11-2019 03:48:17 12.3 C 76 %
168 07-11-2019 03:58:18 12.4 C 76 %
169 07-11-2019 04:08:17 12.3 C 76 %
170 07-11-2019 04:18:17 12.3 C 76 %
171 07-11-2019 04:28:17 12.3 C 76 %
172 07-11-2019 04:38:17 12.3 C 76 %
173 07-11-2019 04:48:17 12.3 C 76 %
174 07-11-2019 04:58:17 12.3 C 76 %
175 07-11-2019 05:08:17 12.3 C 76 %
Sensor: Nr:Datum:Temp:Feuchte:
G-T/H 176 07-11-2019 05:18:17 12.3 C 76 %
177 07-11-2019 05:28:17 12.3 C 76 %
178 07-11-2019 05:38:17 12.3 C 76 %
179 07-11-2019 05:48:17 12.3 C 76 %
180 07-11-2019 05:58:17 12.3 C 76 %
181 07-11-2019 06:08:17 12.3 C 76 %
182 07-11-2019 06:18:17 12.2 C 76 %
183 07-11-2019 06:28:17 12.3 C 76 %
184 07-11-2019 06:38:17 12.3 C 76 %
185 07-11-2019 06:48:17 12.2 C 76 %
186 07-11-2019 06:58:17 12.2 C 76 %
187 07-11-2019 07:08:18 12.2 C 76 %
188 07-11-2019 07:18:17 12.2 C 76 %
189 07-11-2019 07:28:17 12.2 C 76 %
190 07-11-2019 07:38:17 12.2 C 75 %
191 07-11-2019 07:48:17 12.2 C 76 %
192 07-11-2019 07:58:17 12.2 C 76 %
193 07-11-2019 08:08:17 12.2 C 76 %
194 07-11-2019 08:18:17 12.2 C 76 %
195 07-11-2019 08:28:17 12.2 C 76 %
196 07-11-2019 08:38:18 12.2 C 76 %
197 07-11-2019 08:48:17 12.2 C 76 %
198 07-11-2019 08:58:17 12.2 C 76 %
199 07-11-2019 09:08:17 12.2 C 76 %
200 07-11-2019 09:18:17 12.2 C 76 %
Sensor: Nr:Datum:Temp:Feuchte:
G-T/H 201 07-11-2019 09:28:17 12.2 C 76 %
202 07-11-2019 09:38:17 12.2 C 76 %
203 07-11-2019 09:48:17 12.2 C 76 %
204 07-11-2019 09:58:17 12.2 C 76 %
205 07-11-2019 10:08:17 12.2 C 76 %
206 07-11-2019 10:18:17 12.2 C 76 %
207 07-11-2019 10:28:17 12.2 C 76 %
208 07-11-2019 10:38:17 12.2 C 76 %
209 07-11-2019 10:48:18 12.2 C 76 %
210 07-11-2019 10:58:18 12.2 C 76 %
211 07-11-2019 11:08:17 12.2 C 76 %
212 07-11-2019 11:18:17 12.2 C 76 %
213 07-11-2019 11:28:17 12.2 C 76 %
214 07-11-2019 11:38:17 12.2 C 76 %
215 07-11-2019 11:48:18 12.2 C 76 %
216 07-11-2019 11:58:18 12.2 C 76 %
217 07-11-2019 12:08:17 12.2 C 76 %
218 07-11-2019 12:18:17 12.2 C 76 %
219 07-11-2019 12:28:17 12.2 C 76 %
220 07-11-2019 12:38:17 12.2 C 76 %
221 07-11-2019 12:48:17 12.2 C 76 %
222 07-11-2019 12:58:17 12.2 C 76 %
223 07-11-2019 13:08:17 12.2 C 76 %
224 07-11-2019 13:18:17 12.2 C 76 %
225 07-11-2019 13:28:17 12.2 C 76 %
Sensor: Nr:Datum:Temp:Feuchte:
G-T/H 226 07-11-2019 13:38:17 12.2 C 76 %
227 07-11-2019 13:48:17 12.3 C 76 %
228 07-11-2019 13:58:17 12.3 C 76 %
229 07-11-2019 14:08:17 12.3 C 76 %
230 07-11-2019 14:18:17 12.2 C 76 %
231 07-11-2019 14:28:17 12.3 C 76 %
232 07-11-2019 14:38:17 12.3 C 76 %
233 07-11-2019 14:48:18 12.3 C 76 %
234 07-11-2019 14:58:18 12.3 C 76 %
235 07-11-2019 15:08:17 12.2 C 76 %
236 07-11-2019 15:18:17 12.3 C 76 %
237 07-11-2019 15:28:17 12.3 C 76 %
238 07-11-2019 15:38:17 12.3 C 76 %
239 07-11-2019 15:48:17 12.3 C 76 %
240 07-11-2019 15:58:17 12.3 C 76 %
241 07-11-2019 16:08:17 12.3 C 76 %
242 07-11-2019 16:18:17 12.3 C 76 %
243 07-11-2019 16:28:17 12.3 C 76 %
244 07-11-2019 16:38:18 12.3 C 76 %
245 07-11-2019 16:48:17 12.3 C 76 %
246 07-11-2019 16:58:17 12.3 C 76 %
247 07-11-2019 17:08:17 12.3 C 76 %
248 07-11-2019 17:18:17 12 C 74 %
249 07-11-2019 17:28:18 12.1 C 74 %
250 07-11-2019 17:38:17 12.1 C 74 %
Sensor: Nr:Datum:Temp:Feuchte:
G-T/H 251 07-11-2019 17:48:17 12.1 C 74 %
252 07-11-2019 17:58:17 12.1 C 74 %
253 07-11-2019 18:08:17 12.1 C 74 %
254 07-11-2019 18:18:17 12.1 C 75 %
255 07-11-2019 18:28:17 12.1 C 75 %
256 07-11-2019 18:38:17 12.1 C 75 %
257 07-11-2019 18:48:18 12.1 C 75 %
258 07-11-2019 18:58:18 12.1 C 75 %
259 07-11-2019 19:08:17 12.1 C 75 %
260 07-11-2019 19:18:17 12.1 C 75 %
261 07-11-2019 19:28:17 12.1 C 74 %
262 07-11-2019 19:38:17 12.1 C 74 %
263 07-11-2019 19:48:18 12.1 C 74 %
264 07-11-2019 19:58:18 12.1 C 74 %
265 07-11-2019 20:08:17 12.1 C 74 %
266 07-11-2019 20:18:17 12.1 C 74 %
267 07-11-2019 20:28:17 12 C 74 %
268 07-11-2019 20:38:17 12 C 74 %
269 07-11-2019 20:48:17 12 C 74 %
270 07-11-2019 20:58:17 12 C 74 %
271 07-11-2019 21:08:17 12 C 74 %
272 07-11-2019 21:18:17 11.9 C 74 %
273 07-11-2019 21:28:17 11.9 C 74 %
274 07-11-2019 21:38:18 11.9 C 74 %
275 07-11-2019 21:48:17 11.9 C 74 %
Sensor: Nr:Datum:Temp:Feuchte:
G-T/H 276 07-11-2019 21:58:17 11.8 C 73 %
277 07-11-2019 22:08:17 11.8 C 73 %
278 07-11-2019 22:18:17 11.8 C 73 %
279 07-11-2019 22:28:17 11.8 C 73 %
280 07-11-2019 22:38:17 11.8 C 73 %
281 07-11-2019 22:48:17 11.8 C 73 %
282 07-11-2019 22:58:17 11.7 C 73 %
283 07-11-2019 23:08:18 11.7 C 72 %
284 07-11-2019 23:18:17 11.7 C 72 %
285 07-11-2019 23:28:18 11.7 C 72 %
286 07-11-2019 23:38:17 11.7 C 72 %
287 07-11-2019 23:48:17 11.7 C 72 %
288 07-11-2019 23:58:17 11.6 C 72 %
289 08-11-2019 00:08:17 11.6 C 72 %
290 08-11-2019 00:18:17 11.6 C 72 %
291 08-11-2019 00:28:17 11.6 C 72 %
292 08-11-2019 00:38:17 11.5 C 72 %
293 08-11-2019 00:48:18 11.5 C 71 %
294 08-11-2019 00:58:18 11.5 C 71 %
295 08-11-2019 01:08:17 11.5 C 71 %
296 08-11-2019 01:18:17 11.5 C 71 %
297 08-11-2019 01:28:17 11.5 C 71 %
298 08-11-2019 01:38:17 11.4 C 71 %
299 08-11-2019 01:48:18 11.4 C 71 %
300 08-11-2019 01:58:18 11.4 C 71 %
Sensor: Nr:Datum:Temp:Feuchte:
G-T/H 301 08-11-2019 02:08:17 11.4 C 70 %
302 08-11-2019 02:18:17 11.3 C 70 %
303 08-11-2019 02:28:17 11.3 C 70 %
304 08-11-2019 02:38:17 11.3 C 70 %
305 08-11-2019 02:48:18 11.3 C 70 %
306 08-11-2019 02:58:18 11.2 C 70 %
307 08-11-2019 03:08:17 11.2 C 70 %
308 08-11-2019 03:18:17 11.2 C 70 %
309 08-11-2019 03:28:17 11.2 C 70 %
310 08-11-2019 03:38:17 11.2 C 69 %
311 08-11-2019 03:48:18 11.1 C 69 %
312 08-11-2019 03:58:18 11.1 C 69 %
313 08-11-2019 04:08:17 11.1 C 69 %
314 08-11-2019 04:18:17 11.1 C 69 %
315 08-11-2019 04:28:17 11.1 C 69 %
316 08-11-2019 04:38:17 11 C 69 %
317 08-11-2019 04:48:17 11 C 69 %
318 08-11-2019 04:58:17 11 C 69 %
319 08-11-2019 05:08:17 11 C 69 %
320 08-11-2019 05:18:17 11 C 69 %
321 08-11-2019 05:28:17 10.9 C 69 %
322 08-11-2019 05:38:17 10.9 C 69 %
323 08-11-2019 05:48:17 10.9 C 69 %
324 08-11-2019 05:58:17 10.8 C 69 %
325 08-11-2019 06:08:17 10.8 C 69 %
Sensor: Nr:Datum:Temp:Feuchte:
G-T/H 326 08-11-2019 06:18:17 10.8 C 69 %
327 08-11-2019 06:28:17 10.8 C 69 %
328 08-11-2019 06:38:18 10.8 C 69 %
329 08-11-2019 06:48:17 10.8 C 69 %
330 08-11-2019 06:58:17 10.8 C 69 %
331 08-11-2019 07:08:17 10.7 C 69 %
332 08-11-2019 07:18:17 10.7 C 68 %
333 08-11-2019 07:28:17 10.7 C 68 %
334 08-11-2019 07:38:17 10.7 C 68 %
335 08-11-2019 07:48:18 10.7 C 68 %
336 08-11-2019 07:58:18 10.6 C 68 %
337 08-11-2019 08:08:17 10.7 C 68 %
338 08-11-2019 08:18:17 10.6 C 68 %
339 08-11-2019 08:28:17 10.6 C 68 %
340 08-11-2019 08:38:17 10.6 C 68 %
341 08-11-2019 08:48:18 10.6 C 68 %
342 08-11-2019 08:58:18 10.6 C 68 %
343 08-11-2019 09:08:17 10.6 C 69 %
344 08-11-2019 09:18:18 10.6 C 69 %
345 08-11-2019 09:28:18 10.6 C 69 %
346 08-11-2019 09:38:17 10.6 C 69 %
347 08-11-2019 09:48:17 10.7 C 69 %
348 08-11-2019 09:58:17 10.7 C 69 %
349 08-11-2019 10:08:17 10.6 C 70 %
350 08-11-2019 10:18:17 10.6 C 70 %
Sensor: Nr:Datum:Temp:Feuchte:
G-T/H 351 08-11-2019 10:28:17 10.7 C 70 %
352 08-11-2019 10:38:17 10.7 C 70 %
353 08-11-2019 10:48:18 10.6 C 70 %
354 08-11-2019 10:58:18 10.7 C 70 %
355 08-11-2019 11:08:17 10.7 C 70 %
356 08-11-2019 11:18:17 10.7 C 70 %
357 08-11-2019 11:28:17 10.7 C 70 %
358 08-11-2019 11:38:17 10.7 C 71 %
359 08-11-2019 11:48:18 10.7 C 71 %
360 08-11-2019 11:58:18 10.7 C 71 %
361 08-11-2019 12:08:17 10.7 C 71 %
362 08-11-2019 12:18:17 10.7 C 71 %
363 08-11-2019 12:28:17 10.7 C 71 %
364 08-11-2019 12:38:17 10.7 C 71 %
365 08-11-2019 12:48:18 10.7 C 71 %
366 08-11-2019 12:58:18 10.7 C 71 %
367 08-11-2019 13:08:17 10.7 C 71 %
368 08-11-2019 13:18:17 10.7 C 71 %
369 08-11-2019 13:28:17 10.7 C 72 %
370 08-11-2019 13:38:17 10.7 C 72 %
371 08-11-2019 13:48:17 10.7 C 72 %
372 08-11-2019 13:58:17 10.7 C 72 %
373 08-11-2019 14:08:18 10.8 C 72 %
374 08-11-2019 14:18:17 10.8 C 72 %
375 08-11-2019 14:28:17 10.6 C 71 %
Sensor: Nr:Datum:Temp:Feuchte:
G-T/H 376 08-11-2019 14:38:17 10.6 C 71 %
377 08-11-2019 14:48:17 10.1 C 70 %
378 08-11-2019 14:58:17 10.3 C 71 %
379 08-11-2019 15:08:17 11.1 C 70 %
380 08-11-2019 15:18:17 11.6 C 70 %
381 08-11-2019 15:28:17 11.8 C 70 %
382 08-11-2019 15:38:17 12.1 C 69 %
383 08-11-2019 15:48:17 12.2 C 69 %
384 08-11-2019 15:58:17 12.2 C 69 %
385 08-11-2019 16:08:18 12.5 C 69 %
386 08-11-2019 16:18:17 12.7 C 69 %
387 08-11-2019 16:28:17 12.8 C 69 %
388 08-11-2019 16:38:17 12.8 C 69 %
389 08-11-2019 16:48:17 11.8 C 68 %
390 08-11-2019 16:58:17 11.3 C 67 %
391 08-11-2019 17:08:18 11.8 C 68 %
392 08-11-2019 17:18:17 11.9 C 68 %
393 08-11-2019 17:28:17 11.9 C 68 %
394 08-11-2019 17:38:17 11.8 C 69 %
395 08-11-2019 17:48:17 11.8 C 69 %
396 08-11-2019 17:58:17 11.7 C 69 %
397 08-11-2019 18:08:17 11.7 C 69 %
398 08-11-2019 18:18:17 11.6 C 70 %
399 08-11-2019 18:28:17 11.6 C 70 %
400 08-11-2019 18:38:17 11.5 C 70 %
Sensor: Nr:Datum:Temp:Feuchte:
G-T/H 401 08-11-2019 18:48:17 11.5 C 70 %
402 08-11-2019 18:58:17 11.5 C 70 %
403 08-11-2019 19:08:18 11.5 C 70 %
404 08-11-2019 19:18:17 11.4 C 71 %
405 08-11-2019 19:28:17 11.4 C 71 %
406 08-11-2019 19:38:17 11.4 C 71 %
407 08-11-2019 19:48:17 11.4 C 71 %
408 08-11-2019 19:58:17 11.4 C 71 %
409 08-11-2019 20:08:18 11.4 C 71 %
410 08-11-2019 20:18:17 11.3 C 71 %
411 08-11-2019 20:28:17 11.4 C 71 %
412 08-11-2019 20:38:17 11.3 C 71 %
413 08-11-2019 20:48:17 11.3 C 71 %
414 08-11-2019 20:58:17 11.3 C 71 %
415 08-11-2019 21:08:17 11.2 C 72 %
416 08-11-2019 21:18:18 11.2 C 72 %
417 08-11-2019 21:28:18 11.2 C 72 %
418 08-11-2019 21:38:17 11.2 C 72 %
419 08-11-2019 21:48:17 11.2 C 72 %
420 08-11-2019 21:58:17 11.2 C 72 %
421 08-11-2019 22:08:17 11.2 C 72 %
422 08-11-2019 22:19:17 11.2 C 72 %
423 08-11-2019 22:28:17 11.2 C 72 %
424 08-11-2019 22:38:17 11.2 C 72 %
425 08-11-2019 22:49:17 11.2 C 72 %
Sensor: Nr:Datum:Temp:Feuchte:
G-T/H 426 08-11-2019 22:59:17 11.2 C 72 %
427 08-11-2019 23:08:18 11.2 C 72 %
428 08-11-2019 23:18:17 11.2 C 72 %
429 08-11-2019 23:28:18 11.1 C 72 %
430 08-11-2019 23:38:17 11.1 C 72 %
431 08-11-2019 23:49:17 11.1 C 72 %
432 08-11-2019 23:59:17 11.1 C 72 %
433 09-11-2019 00:09:17 11.1 C 72 %
434 09-11-2019 00:19:17 11.1 C 72 %
435 09-11-2019 00:29:17 11.1 C 72 %
436 09-11-2019 00:39:17 11.1 C 72 %
437 09-11-2019 00:48:17 11.1 C 72 %
438 09-11-2019 00:58:17 11.1 C 72 %
439 09-11-2019 01:08:17 11.1 C 72 %
440 09-11-2019 01:18:17 11.1 C 72 %
441 09-11-2019 01:28:17 11.1 C 72 %
442 09-11-2019 01:38:17 11.1 C 72 %
443 09-11-2019 01:49:17 11 C 72 %
444 09-11-2019 01:59:17 11 C 72 %
445 09-11-2019 02:09:18 11 C 72 %
446 09-11-2019 02:19:17 11 C 72 %
447 09-11-2019 02:29:17 11 C 72 %
448 09-11-2019 02:39:17 11 C 72 %
449 09-11-2019 02:49:17 11 C 72 %
450 09-11-2019 02:59:17 11 C 72 %
Sensor: Nr:Datum:Temp:Feuchte:
G-T/H 451 09-11-2019 03:09:18 11 C 72 %
452 09-11-2019 03:19:17 11 C 72 %
453 09-11-2019 03:29:17 11 C 72 %
454 09-11-2019 03:39:17 11 C 72 %
455 09-11-2019 03:49:17 11 C 72 %
456 09-11-2019 03:59:17 11 C 72 %
457 09-11-2019 04:09:18 11 C 72 %
458 09-11-2019 04:19:17 11 C 72 %
459 09-11-2019 04:29:17 11 C 72 %
460 09-11-2019 04:39:17 11 C 72 %
461 09-11-2019 04:49:17 11 C 72 %
462 09-11-2019 04:59:17 10.9 C 73 %
463 09-11-2019 05:09:17 10.9 C 73 %
464 09-11-2019 05:19:17 10.9 C 73 %
465 09-11-2019 05:29:17 10.9 C 73 %
466 09-11-2019 05:39:17 10.8 C 73 %
467 09-11-2019 05:49:17 10.9 C 73 %
468 09-11-2019 05:59:17 10.9 C 73 %
469 09-11-2019 06:09:17 10.8 C 73 %
470 09-11-2019 06:19:17 10.8 C 73 %
471 09-11-2019 06:29:17 10.8 C 73 %
472 09-11-2019 06:39:17 10.8 C 73 %
473 09-11-2019 06:49:17 10.8 C 72 %
474 09-11-2019 06:59:17 10.8 C 72 %
475 09-11-2019 07:09:17 10.7 C 72 %
Sensor: Nr:Datum:Temp:Feuchte:
G-T/H 476 09-11-2019 07:19:17 10.7 C 71 %
477 09-11-2019 07:29:17 10.7 C 71 %
478 09-11-2019 07:39:17 10.7 C 71 %
479 09-11-2019 07:49:18 10.6 C 71 %
480 09-11-2019 07:59:18 10.6 C 71 %
481 09-11-2019 08:09:17 10.6 C 70 %
482 09-11-2019 08:19:17 10.6 C 70 %
483 09-11-2019 08:29:17 10.5 C 70 %
484 09-11-2019 08:39:17 10.5 C 70 %
485 09-11-2019 08:49:18 10.5 C 70 %
486 09-11-2019 08:59:18 10.5 C 70 %
487 09-11-2019 09:09:17 10.5 C 70 %
488 09-11-2019 09:19:17 10.5 C 70 %
489 09-11-2019 09:29:17 10.5 C 70 %
490 09-11-2019 09:39:17 10 C 68 %
491 09-11-2019 09:49:18 9.3 C 67 %
492 09-11-2019 09:59:18 8.8 C 67 %
493 09-11-2019 10:09:17 8.6 C 67 %
494 09-11-2019 10:19:17 8.6 C 67 %
495 09-11-2019 10:29:17 8.6 C 67 %
496 09-11-2019 10:39:17 8.6 C 67 %
497 09-11-2019 10:49:17 8.5 C 66 %
498 09-11-2019 10:59:17 8.5 C 66 %
499 09-11-2019 11:09:17 8.7 C 67 %
500 09-11-2019 11:19:17 8.9 C 67 %
Sensor: Nr:Datum:Temp:Feuchte:
G-T/H 501 09-11-2019 11:29:17 8.9 C 67 %
502 09-11-2019 11:39:17 8.9 C 67 %
503 09-11-2019 11:49:18 8.9 C 67 %
504 09-11-2019 11:59:18 8.9 C 67 %
505 09-11-2019 12:09:17 11.9 C 67 %
506 09-11-2019 12:19:17 12.1 C 66 %
507 09-11-2019 12:29:17 12.2 C 66 %
508 09-11-2019 12:39:17 12.4 C 66 %
509 09-11-2019 12:49:18 12.5 C 67 %
510 09-11-2019 12:59:18 12.7 C 67 %
511 09-11-2019 13:09:17 12.8 C 67 %
512 09-11-2019 13:19:17 12.8 C 67 %
513 09-11-2019 13:29:17 13 C 66 %
514 09-11-2019 13:39:17 13 C 66 %
515 09-11-2019 13:49:17 13.1 C 66 %
516 09-11-2019 13:59:17 13.1 C 66 %
517 09-11-2019 14:09:17 13.2 C 66 %
518 09-11-2019 14:19:17 13 C 64 %
519 09-11-2019 14:29:17 13 C 64 %
520 09-11-2019 14:39:17 12.3 C 63 %
521 09-11-2019 14:49:17 12.4 C 64 %
522 09-11-2019 14:59:17 12.4 C 64 %
523 09-11-2019 15:09:17 12.2 C 64 %
524 09-11-2019 15:19:17 12.1 C 64 %
525 09-11-2019 15:29:17 12 C 65 %
Sensor: Nr:Datum:Temp:Feuchte:
G-T/H 526 09-11-2019 15:39:17 11.9 C 66 %
527 09-11-2019 15:49:17 11.8 C 66 %
528 09-11-2019 15:59:17 11.8 C 67 %
529 09-11-2019 16:09:18 11.7 C 67 %
530 09-11-2019 16:19:17 11.7 C 67 %
531 09-11-2019 16:29:17 11.7 C 67 %
532 09-11-2019 16:39:17 11.6 C 68 %
533 09-11-2019 16:49:17 11.6 C 68 %
534 09-11-2019 16:59:17 11.5 C 68 %
535 09-11-2019 17:09:17 11.5 C 68 %
536 09-11-2019 17:19:17 11.5 C 68 %
537 09-11-2019 17:29:17 11.5 C 69 %
538 09-11-2019 17:39:17 11.4 C 69 %
539 09-11-2019 17:49:18 11.5 C 69 %
540 09-11-2019 17:59:18 11.4 C 69 %
541 09-11-2019 18:09:17 11.4 C 69 %
542 09-11-2019 18:19:17 11.4 C 69 %
543 09-11-2019 18:29:17 11.4 C 69 %
544 09-11-2019 18:39:17 11.4 C 69 %
545 09-11-2019 18:49:17 11.3 C 69 %
546 09-11-2019 18:59:17 11.4 C 69 %
547 09-11-2019 19:09:17 11.3 C 69 %
548 09-11-2019 19:19:17 11.3 C 69 %
549 09-11-2019 19:29:17 11.3 C 69 %
550 09-11-2019 19:39:17 11.2 C 69 %
Sensor: Nr:Datum:Temp:Feuchte:
G-T/H 551 09-11-2019 19:49:17 11.3 C 69 %
552 09-11-2019 19:59:17 11.3 C 69 %
553 09-11-2019 20:09:18 11.2 C 69 %
554 09-11-2019 20:19:17 11.2 C 69 %
555 09-11-2019 20:29:17 11.2 C 69 %
556 09-11-2019 20:39:17 11 C 69 %
557 09-11-2019 20:49:17 11 C 69 %
558 09-11-2019 20:59:17 11 C 69 %
559 09-11-2019 21:09:17 11 C 68 %
560 09-11-2019 21:19:17 11 C 68 %
561 09-11-2019 21:29:17 10.9 C 69 %
562 09-11-2019 21:39:17 10.9 C 69 %
563 09-11-2019 21:49:17 10.8 C 68 %
564 09-11-2019 21:59:17 10.8 C 68 %
565 09-11-2019 22:09:17 10.8 C 68 %
566 09-11-2019 22:19:17 10.7 C 68 %
567 09-11-2019 22:29:17 10.8 C 68 %
568 09-11-2019 22:39:17 10.7 C 68 %
569 09-11-2019 22:49:18 10.7 C 68 %
570 09-11-2019 22:59:18 10.7 C 68 %
571 09-11-2019 23:09:17 10.7 C 67 %
572 09-11-2019 23:19:17 10.7 C 67 %
573 09-11-2019 23:29:17 10.6 C 68 %
574 09-11-2019 23:39:17 10.7 C 67 %
575 09-11-2019 23:49:17 10.6 C 67 %
Sensor: Nr:Datum:Temp:Feuchte:
G-T/H 576 09-11-2019 23:59:17 10.5 C 67 %
577 10-11-2019 00:09:18 10.5 C 67 %
578 10-11-2019 00:19:17 10.5 C 67 %
579 10-11-2019 00:29:17 10.5 C 67 %
580 10-11-2019 00:39:17 10.4 C 67 %
581 10-11-2019 00:49:17 10.4 C 66 %
582 10-11-2019 00:59:17 10.4 C 66 %
583 10-11-2019 01:09:17 10.3 C 66 %
584 10-11-2019 01:19:17 10.4 C 66 %
585 10-11-2019 01:29:17 10.3 C 66 %
586 10-11-2019 01:39:17 10.3 C 66 %
587 10-11-2019 01:49:17 10.3 C 66 %
588 10-11-2019 01:59:17 10.3 C 66 %
589 10-11-2019 02:09:18 10.2 C 66 %
590 10-11-2019 02:19:17 10.2 C 66 %
591 10-11-2019 02:29:17 10.2 C 66 %
592 10-11-2019 02:39:17 10.2 C 66 %
593 10-11-2019 02:49:17 10.2 C 66 %
594 10-11-2019 02:59:17 10.2 C 66 %
595 10-11-2019 03:09:17 10.2 C 66 %
596 10-11-2019 03:19:17 10.2 C 66 %
597 10-11-2019 03:29:17 10.1 C 65 %
598 10-11-2019 03:39:17 10.1 C 65 %
599 10-11-2019 03:49:17 10.1 C 65 %
600 10-11-2019 03:59:18 10.1 C 65 %
Sensor: Nr:Datum:Temp:Feuchte:
G-T/H 601 10-11-2019 04:09:17 10.1 C 65 %
602 10-11-2019 04:19:17 10 C 65 %
603 10-11-2019 04:29:17 10 C 65 %
604 10-11-2019 04:39:17 10 C 65 %
605 10-11-2019 04:49:18 10 C 65 %
606 10-11-2019 04:59:18 10 C 65 %
607 10-11-2019 05:09:17 10 C 65 %
608 10-11-2019 05:19:17 10.1 C 66 %
609 10-11-2019 05:29:17 10.1 C 66 %
610 10-11-2019 05:39:17 10 C 66 %
611 10-11-2019 05:49:17 10.1 C 66 %
612 10-11-2019 05:59:17 10 C 66 %
613 10-11-2019 06:09:17 10 C 66 %
614 10-11-2019 06:19:17 10.1 C 66 %
615 10-11-2019 06:29:17 10 C 66 %
616 10-11-2019 06:39:17 10 C 66 %
617 10-11-2019 06:49:17 10 C 66 %
618 10-11-2019 06:59:17 10 C 67 %
619 10-11-2019 07:09:17 10 C 67 %
620 10-11-2019 07:19:18 10 C 67 %
621 10-11-2019 07:29:18 10 C 67 %
622 10-11-2019 07:39:17 10 C 67 %
623 10-11-2019 07:49:17 10 C 67 %
624 10-11-2019 07:59:17 10 C 67 %
625 10-11-2019 08:09:17 10 C 67 %
Sensor: Nr:Datum:Temp:Feuchte:
G-T/H 626 10-11-2019 08:19:17 10 C 67 %
627 10-11-2019 08:29:17 10 C 67 %
628 10-11-2019 08:39:17 10 C 68 %
629 10-11-2019 08:49:17 10 C 68 %
630 10-11-2019 08:59:17 9.9 C 69 %
631 10-11-2019 09:09:18 9.9 C 69 %
632 10-11-2019 09:19:17 10 C 68 %
633 10-11-2019 09:29:18 9.9 C 69 %
634 10-11-2019 09:39:17 9.9 C 69 %
635 10-11-2019 09:49:17 10 C 68 %
636 10-11-2019 09:59:17 10 C 68 %
637 10-11-2019 10:09:17 10 C 68 %
638 10-11-2019 10:19:17 9.9 C 69 %
639 10-11-2019 10:29:17 9.9 C 69 %
640 10-11-2019 10:39:18 9.9 C 69 %
641 10-11-2019 10:49:17 9.9 C 69 %
642 10-11-2019 10:59:17 9.9 C 69 %
643 10-11-2019 11:09:17 9.9 C 69 %
644 10-11-2019 11:19:17 9.9 C 69 %
645 10-11-2019 11:29:17 9.9 C 69 %